[[{"header":{"parameterUnit":"m.s-1","parameterCategory":1,"la1":30.6,"la2":29.2853,"lo1":-89.7004,"lo2":-87.6739,"dy":0.0162,"dx":0.0183,"nx":112,"ny":82,"refTime":"2023-11-22T18:00:00:Z","depth":0,"parameterNumber":2,"parameterNumberName":"U-component_of_WINDS"},"data":[0.0,0.0,0.0,0.0,0.0,0.0,0.0,0.0,0.0,0.0,0.0,0.0,0.0,0.0,0.0,0.0,0.0,0.0,0.0,0.0,0.0,0.0,0.0,0.0,0.0,0.0,0.0,0.0,0.0,0.0,0.0,0.0,0.0,0.0,0.0,0.0,0.0,0.0,0.0,0.0,0.0,0.0,0.0,0.0,0.0,0.0,0.0,0.0,0.0,0.0,0.0,0.0,0.0,0.0,0.0,0.0,0.0,0.0,0.0,0.0,0.0,0.0,0.0,0.0,0.0,0.0,0.0,0.0,0.0,0.0,0.0,0.0,0.0,0.0,0.0,0.0,0.0,0.0,0.0,0.0,0.0,0.0,0.0,0.0,0.0,0.0,0.0,0.0,0.0,0.0,5.6601,5.6601,5.6601,5.6601,5.6601,5.6601,5.6601,5.6601,0.0,0.0,0.0,0.0,0.0,0.0,0.0,0.0,0.0,0.0,0.0,0.0,0.0,0.0,0.0,0.0,0.0,0.0,0.0,0.0,0.0,0.0,0.0,0.0,0.0,0.0,0.0,0.0,0.0,0.0,0.0,0.0,0.0,0.0,0.0,0.0,0.0,0.0,0.0,0.0,0.0,0.0,0.0,0.0,0.0,0.0,0.0,0.0,0.0,0.0,0.0,0.0,0.0,0.0,0.0,0.0,0.0,0.0,0.0,0.0,0.0,0.0,0.0,0.0,0.0,0.0,0.0,0.0,0.0,0.0,0.0,0.0,0.0,0.0,0.0,0.0,0.0,0.0,0.0,0.0,0.0,0.0,0.0,0.0,0.0,0.0,0.0,0.0,0.0,0.0,0.0,0.0,0.0,0.0,0.0,0.0,0.0,0.0,0.0,0.0,0.0,0.0,0.0,0.0,5.6601,5.6601,5.6601,5.6601,5.6601,5.6601,5.6601,5.6601,0.0,0.0,0.0,0.0,0.0,0.0,0.0,0.0,0.0,0.0,0.0,0.0,0.0,0.0,0.0,0.0,0.0,0.0,0.0,0.0,0.0,0.0,0.0,0.0,0.0,0.0,0.0,0.0,0.0,0.0,0.0,0.0,0.0,0.0,0.0,0.0,0.0,0.0,0.0,0.0,0.0,0.0,0.0,0.0,0.0,0.0,0.0,0.0,0.0,0.0,0.0,0.0,0.0,0.0,0.0,0.0,0.0,0.0,0.0,0.0,0.0,0.0,0.0,0.0,0.0,0.0,0.0,0.0,0.0,0.0,0.0,0.0,0.0,0.0,0.0,0.0,0.0,0.0,0.0,0.0,0.0,0.0,0.0,0.0,0.0,0.0,0.0,0.0,0.0,0.0,0.0,0.0,0.0,0.0,0.0,0.0,0.0,0.0,0.0,0.0,0.0,0.0,0.0,5.6601,5.6601,5.6601,5.6601,5.6601,5.6601,5.6601,5.6601,5.6601,5.6601,0.0,0.0,0.0,0.0,0.0,0.0,0.0,0.0,0.0,0.0,0.0,0.0,0.0,0.0,0.0,0.0,0.0,0.0,0.0,0.0,0.0,0.0,0.0,0.0,0.0,0.0,0.0,0.0,0.0,0.0,0.0,0.0,0.0,0.0,0.0,0.0,0.0,0.0,0.0,0.0,0.0,0.0,0.0,0.0,0.0,0.0,0.0,0.0,0.0,0.0,0.0,0.0,0.0,0.0,0.0,0.0,0.0,0.0,0.0,0.0,0.0,0.0,0.0,0.0,0.0,0.0,0.0,0.0,0.0,0.0,0.0,0.0,0.0,0.0,0.0,0.0,0.0,0.0,0.0,0.0,0.0,0.0,0.0,0.0,0.0,0.0,0.0,0.0,0.0,0.0,0.0,0.0,0.0,0.0,0.0,0.0,0.0,0.0,0.0,0.0,0.0,0.0,5.6601,5.6601,5.6601,5.6601,5.6601,5.6601,5.6601,5.6601,5.6601,5.6601,0.0,0.0,0.0,0.0,0.0,0.0,0.0,0.0,0.0,0.0,0.0,0.0,0.0,0.0,0.0,0.0,0.0,0.0,0.0,0.0,0.0,0.0,0.0,0.0,0.0,0.0,0.0,0.0,0.0,0.0,0.0,0.0,0.0,0.0,0.0,0.0,0.0,0.0,0.0,0.0,0.0,0.0,0.0,0.0,0.0,0.0,0.0,0.0,0.0,0.0,0.0,0.0,0.0,0.0,0.0,0.0,0.0,0.0,0.0,0.0,0.0,0.0,0.0,0.0,0.0,0.0,0.0,0.0,0.0,0.0,0.0,0.0,0.0,0.0,0.0,0.0,0.0,0.0,0.0,0.0,0.0,0.0,0.0,0.0,0.0,0.0,0.0,0.0,0.0,0.0,0.0,0.0,0.0,0.0,0.0,0.0,0.0,0.0,0.0,0.0,0.0,0.0,5.6601,5.6601,5.6601,5.6601,5.6601,5.6601,5.6601,5.6601,5.6601,5.6601,0.0,0.0,0.0,0.0,0.0,0.0,0.0,0.0,0.0,0.0,0.0,0.0,0.0,0.0,0.0,0.0,0.0,0.0,0.0,0.0,0.0,0.0,0.0,0.0,0.0,0.0,0.0,0.0,0.0,0.0,0.0,0.0,0.0,0.0,0.0,0.0,0.0,0.0,0.0,0.0,0.0,0.0,0.0,0.0,0.0,0.0,0.0,0.0,0.0,0.0,0.0,0.0,0.0,0.0,0.0,0.0,0.0,0.0,0.0,0.0,0.0,0.0,0.0,0.0,0.0,0.0,0.0,0.0,0.0,0.0,0.0,0.0,0.0,0.0,0.0,0.0,0.0,0.0,0.0,0.0,0.0,0.0,0.0,0.0,0.0,0.0,0.0,0.0,0.0,0.0,0.0,0.0,0.0,0.0,0.0,0.0,0.0,0.0,0.0,0.0,0.0,0.0,5.6601,5.6601,0.0,5.6601,5.6601,5.6601,5.6601,5.6601,5.6601,0.0,0.0,0.0,0.0,0.0,0.0,0.0,0.0,0.0,0.0,0.0,0.0,0.0,0.0,0.0,0.0,0.0,0.0,0.0,0.0,0.0,0.0,0.0,0.0,0.0,0.0,0.0,0.0,0.0,0.0,0.0,0.0,0.0,0.0,0.0,0.0,0.0,0.0,0.0,0.0,0.0,0.0,0.0,0.0,0.0,0.0,0.0,0.0,0.0,0.0,0.0,0.0,0.0,0.0,0.0,0.0,0.0,0.0,0.0,0.0,0.0,0.0,0.0,0.0,0.0,0.0,0.0,0.0,0.0,0.0,0.0,0.0,0.0,0.0,0.0,0.0,0.0,0.0,0.0,0.0,0.0,0.0,0.0,0.0,0.0,0.0,0.0,0.0,0.0,0.0,0.0,0.0,0.0,0.0,0.0,0.0,0.0,0.0,0.0,0.0,0.0,0.0,5.6562,5.6523,5.6484,0.0,5.6503,5.6507,5.6507,5.6497,5.651,5.651,0.0,0.0,0.0,0.0,0.0,0.0,0.0,0.0,0.0,0.0,0.0,0.0,0.0,0.0,0.0,0.0,0.0,0.0,0.0,0.0,0.0,0.0,0.0,0.0,0.0,0.0,0.0,0.0,0.0,0.0,0.0,0.0,0.0,0.0,0.0,0.0,0.0,0.0,0.0,0.0,0.0,0.0,0.0,0.0,0.0,0.0,0.0,0.0,0.0,0.0,0.0,0.0,0.0,0.0,0.0,0.0,0.0,0.0,0.0,0.0,0.0,0.0,0.0,0.0,0.0,0.0,0.0,0.0,0.0,0.0,0.0,0.0,0.0,0.0,0.0,0.0,0.0,0.0,0.0,0.0,0.0,0.0,0.0,0.0,0.0,0.0,0.0,0.0,0.0,0.0,0.0,0.0,0.0,0.0,0.0,0.0,0.0,0.0,0.0,0.0,0.0,0.0,5.6484,5.6367,5.6289,5.6289,5.6282,5.6285,5.6285,5.6298,5.6307,0.0,0.0,0.0,0.0,0.0,0.0,0.0,0.0,0.0,0.0,0.0,0.0,0.0,0.0,0.0,0.0,0.0,0.0,0.0,0.0,0.0,0.0,0.0,0.0,0.0,0.0,0.0,0.0,0.0,0.0,0.0,0.0,0.0,0.0,0.0,0.0,0.0,0.0,0.0,0.0,0.0,0.0,0.0,0.0,0.0,0.0,0.0,0.0,0.0,0.0,0.0,0.0,0.0,0.0,0.0,0.0,0.0,0.0,0.0,0.0,0.0,0.0,0.0,0.0,0.0,0.0,0.0,0.0,0.0,0.0,0.0,0.0,0.0,0.0,0.0,0.0,0.0,0.0,0.0,0.0,0.0,0.0,0.0,0.0,0.0,0.0,0.0,0.0,0.0,0.0,0.0,0.0,0.0,0.0,0.0,0.0,0.0,0.0,0.0,0.0,0.0,0.0,0.0,5.649,5.6366,5.6288,5.6288,5.6289,5.6285,5.6285,5.6302,5.6358,5.6437,0.0,0.0,0.0,0.0,0.0,0.0,0.0,0.0,0.0,0.0,0.0,0.0,0.0,0.0,0.0,0.0,0.0,0.0,0.0,0.0,0.0,0.0,0.0,0.0,0.0,0.0,0.0,0.0,0.0,0.0,0.0,0.0,0.0,0.0,0.0,0.0,0.0,0.0,0.0,0.0,0.0,0.0,0.0,0.0,0.0,0.0,0.0,0.0,0.0,0.0,0.0,0.0,0.0,0.0,0.0,0.0,0.0,0.0,0.0,0.0,0.0,0.0,0.0,0.0,0.0,0.0,0.0,0.0,0.0,0.0,0.0,0.0,0.0,0.0,0.0,0.0,0.0,0.0,0.0,0.0,0.0,0.0,0.0,0.0,0.0,0.0,0.0,0.0,0.0,0.0,0.0,0.0,0.0,0.0,0.0,0.0,0.0,0.0,0.0,0.0,0.0,0.0,5.6336,5.6521,5.6678,5.6678,5.6954,5.713,5.7155,5.6824,5.6674,5.677,0.0,0.0,0.0,0.0,0.0,0.0,0.0,0.0,0.0,0.0,0.0,0.0,0.0,0.0,0.0,0.0,0.0,0.0,0.0,0.0,0.0,0.0,0.0,0.0,0.0,0.0,0.0,0.0,0.0,0.0,0.0,0.0,0.0,0.0,0.0,0.0,0.0,0.0,0.0,0.0,0.0,0.0,0.0,0.0,0.0,0.0,0.0,0.0,0.0,0.0,0.0,0.0,0.0,0.0,0.0,0.0,0.0,0.0,0.0,0.0,0.0,0.0,0.0,0.0,0.0,0.0,0.0,0.0,0.0,0.0,0.0,0.0,0.0,0.0,0.0,0.0,0.0,0.0,0.0,0.0,0.0,0.0,0.0,0.0,0.0,0.0,0.0,0.0,0.0,0.0,0.0,0.0,0.0,0.0,0.0,0.0,0.0,0.0,0.0,0.0,0.0,0.0,5.6228,5.6851,5.7322,5.7314,5.7984,5.8408,5.8396,5.775,5.7304,5.7216,0.0,0.0,0.0,0.0,0.0,0.0,0.0,0.0,0.0,0.0,0.0,0.0,0.0,0.0,0.0,0.0,0.0,0.0,0.0,0.0,0.0,0.0,0.0,0.0,0.0,0.0,0.0,0.0,0.0,0.0,0.0,0.0,0.0,0.0,0.0,0.0,0.0,0.0,0.0,0.0,0.0,0.0,0.0,0.0,0.0,0.0,0.0,0.0,0.0,0.0,0.0,0.0,0.0,0.0,0.0,0.0,0.0,0.0,0.0,0.0,5.6123,0.0,0.0,0.0,0.0,0.0,0.0,0.0,0.0,0.0,0.0,0.0,0.0,0.0,0.0,0.0,0.0,0.0,0.0,0.0,0.0,0.0,0.0,0.0,0.0,0.0,0.0,0.0,0.0,0.0,0.0,0.0,0.0,0.0,0.0,0.0,0.0,0.0,0.0,0.0,0.0,0.0,5.7128,5.7757,5.8202,5.8201,5.8429,5.8535,5.8462,5.8313,5.796,5.7311,5.7061,0.0,0.0,0.0,0.0,0.0,0.0,0.0,0.0,0.0,0.0,0.0,0.0,0.0,0.0,0.0,0.0,0.0,0.0,0.0,0.0,0.0,0.0,0.0,0.0,0.0,0.0,0.0,0.0,0.0,0.0,0.0,0.0,0.0,0.0,0.0,0.0,0.0,0.0,0.0,0.0,0.0,0.0,0.0,0.0,0.0,0.0,0.0,0.0,0.0,0.0,0.0,0.0,0.0,0.0,0.0,0.0,0.0,0.0,0.0,0.0,5.6017,0.0,0.0,0.0,0.0,0.0,0.0,0.0,0.0,0.0,0.0,0.0,0.0,0.0,0.0,0.0,0.0,0.0,0.0,0.0,0.0,0.0,0.0,0.0,0.0,0.0,0.0,0.0,0.0,0.0,0.0,0.0,0.0,0.0,0.0,0.0,0.0,0.0,0.0,0.0,0.0,5.7768,5.8487,5.8986,5.8969,5.9371,5.9648,5.9608,5.9236,5.8787,5.8365,5.7952,0.0,0.0,0.0,0.0,0.0,0.0,0.0,0.0,0.0,0.0,0.0,0.0,0.0,0.0,0.0,0.0,0.0,0.0,0.0,0.0,0.0,0.0,0.0,0.0,0.0,0.0,0.0,0.0,0.0,0.0,0.0,0.0,0.0,0.0,0.0,0.0,0.0,0.0,0.0,0.0,0.0,0.0,0.0,0.0,0.0,0.0,0.0,0.0,0.0,0.0,0.0,0.0,0.0,0.0,5.6317,5.6308,5.6308,5.6327,5.6332,5.6321,5.614,5.5918,0.0,0.0,0.0,0.0,0.0,0.0,0.0,0.0,0.0,0.0,0.0,0.0,0.0,0.0,0.0,0.0,0.0,0.0,0.0,0.0,0.0,0.0,0.0,0.0,0.0,5.5825,5.5837,0.0,0.0,0.0,0.0,0.0,0.0,0.0,0.0,0.0,0.0,0.0,0.0,5.8638,5.9474,6.0028,6.0176,6.0827,6.1183,6.1024,6.0384,5.9832,5.9515,5.8895,5.8499,0.0,0.0,0.0,0.0,0.0,0.0,0.0,0.0,0.0,0.0,0.0,0.0,0.0,0.0,0.0,0.0,0.0,0.0,0.0,0.0,0.0,0.0,0.0,0.0,0.0,0.0,0.0,0.0,0.0,0.0,0.0,0.0,5.6008,5.6008,0.0,0.0,0.0,0.0,0.0,0.0,0.0,0.0,0.0,0.0,0.0,0.0,0.0,0.0,5.7054,5.7744,5.8064,5.8058,5.8058,5.8032,5.7987,5.7987,5.7996,5.7985,5.7988,0.0,5.5888,5.5903,0.0,0.0,0.0,0.0,0.0,0.0,0.0,0.0,0.0,0.0,0.0,0.0,0.0,0.0,0.0,0.0,0.0,0.0,0.0,0.0,0.0,0.0,5.5746,5.5746,5.5707,5.5914,0.0,5.6345,5.5909,5.5909,0.0,0.0,0.0,0.0,0.0,0.0,0.0,0.0,6.0433,6.126,6.2065,6.281,6.3051,6.2813,6.1982,6.1834,6.1102,5.9594,5.9404,5.9053,5.8352,5.8219,0.0,0.0,0.0,0.0,0.0,0.0,0.0,0.0,0.0,0.0,0.0,0.0,0.0,0.0,0.0,0.0,0.0,0.0,0.0,0.0,0.0,0.0,0.0,0.0,0.0,0.0,0.0,0.0,0.0,5.6008,5.6008,5.6008,5.6008,5.6008,0.0,0.0,0.0,0.0,0.0,0.0,0.0,0.0,0.0,5.7354,5.7679,5.7846,5.7816,5.8641,5.9309,5.974,6.0243,6.0689,6.1121,6.1121,6.1106,6.1121,6.1121,6.0435,5.9252,5.7857,5.7269,5.7313,0.0,0.0,0.0,0.0,0.0,5.7323,5.7271,0.0,0.0,0.0,0.0,0.0,0.0,0.0,0.0,0.0,0.0,0.0,0.0,0.0,0.0,5.7174,5.7174,5.7254,5.7649,5.7484,5.7261,0.0,5.725,5.7389,5.7745,0.0,0.0,0.0,0.0,0.0,6.2092,6.2557,6.2915,6.3312,6.3352,6.3232,6.2797,6.2773,6.2252,6.1022,6.0944,6.0568,5.9739,5.9271,5.8886,0.0,0.0,0.0,0.0,0.0,0.0,0.0,0.0,0.0,0.0,0.0,0.0,0.0,0.0,0.0,0.0,0.0,0.0,0.0,0.0,0.0,0.0,0.0,0.0,0.0,0.0,0.0,0.0,5.6008,5.6008,5.6008,5.6201,5.6317,0.0,0.0,0.0,0.0,0.0,0.0,5.75,5.8347,5.8869,5.9023,5.9469,5.975,5.9939,6.0774,6.1519,6.2092,6.2749,6.34,6.3971,6.3971,6.3971,6.3971,6.3971,6.3628,6.2869,6.0096,5.8811,5.8635,5.8445,5.8392,0.0,5.8389,5.8384,5.8379,5.8311,5.8283,5.8301,5.8301,0.0,5.8196,5.7646,0.0,0.0,0.0,0.0,5.7485,5.7419,0.0,5.8363,5.8561,5.8601,5.8719,5.9195,5.9255,5.9063,0.0,5.8285,5.8443,5.8919,0.0,0.0,0.0,0.0,6.1973,6.3441,6.3649,6.3718,6.3956,6.3956,6.3876,6.3639,6.3632,6.3282,6.2449,6.2228,6.1803,6.1172,6.0325,5.9814,5.9597,0.0,0.0,0.0,0.0,0.0,0.0,0.0,0.0,0.0,0.0,0.0,0.0,0.0,0.0,0.0,0.0,0.0,0.0,0.0,0.0,0.0,0.0,0.0,0.0,0.0,0.0,0.0,0.0,0.0,5.6008,5.6741,0.0,0.0,0.0,0.0,5.8375,5.8409,5.8426,5.8334,5.9181,5.9989,6.0758,6.2319,6.3557,6.4366,6.5162,6.5596,6.5633,6.5708,6.5747,6.5785,6.5785,6.5785,6.5785,6.5785,6.5748,6.5439,6.2056,6.0204,5.9443,5.8635,5.8358,5.8398,5.8347,5.8327,5.8319,5.8303,5.8282,5.8282,5.8282,5.8312,5.8308,5.8268,5.827,0.0,0.0,5.8213,5.8222,5.8239,5.8253,5.8491,5.9246,5.9444,5.988,6.1546,6.1898,6.1183,0.0,5.8293,5.8809,6.0396,0.0,6.122,6.2925,6.3195,6.3489,6.4403,6.4516,6.4869,6.5663,6.5782,6.5425,6.4592,6.4518,6.4164,6.329,6.252,6.2086,6.2059,6.1213,6.0389,5.9595,5.9561,0.0,0.0,0.0,0.0,0.0,0.0,0.0,0.0,0.0,0.0,0.0,0.0,0.0,0.0,0.0,0.0,0.0,0.0,0.0,0.0,0.0,0.0,0.0,0.0,0.0,0.0,0.0,0.0,5.7676,5.7947,0.0,5.8088,5.8358,5.8724,5.9248,6.0285,6.1108,6.1587,6.2934,6.3805,6.4117,6.4709,6.5161,6.5468,6.6258,6.6939,6.751,6.8088,6.8629,6.913,6.913,6.913,6.9092,6.8552,6.8013,6.7317,6.5014,6.3564,6.2733,6.1846,6.1548,6.1603,6.2163,6.2348,6.2422,6.3018,6.3205,6.3091,6.2549,6.1966,6.1426,6.0907,6.0388,5.9944,5.9926,6.0306,6.0752,6.0754,6.114,6.1577,6.1893,6.196,6.211,6.2743,6.2863,6.2586,6.1673,6.153,6.1697,6.2292,6.2394,6.2785,6.3974,6.414,6.4433,6.5306,6.5425,6.5545,6.5862,6.59,6.5782,6.5465,6.5425,6.5067,6.4195,6.3861,6.3455,6.2895,6.2093,6.149,6.1202,6.0662,6.0014,0.0,0.0,0.0,0.0,0.0,0.0,0.0,0.0,0.0,0.0,0.0,0.0,0.0,0.0,0.0,0.0,0.0,0.0,0.0,0.0,0.0,0.0,0.0,0.0,0.0,0.0,5.8696,5.8965,5.9222,5.9621,6.0158,6.0464,6.0942,6.1734,6.2811,6.3669,6.4224,6.5532,6.6439,6.6745,6.7015,6.7322,6.7593,6.8132,6.8669,6.9239,6.9818,7.0398,7.0898,7.0898,7.0898,7.086,7.0358,6.9779,6.9125,6.7744,6.6822,6.6127,6.4085,6.3314,6.3352,6.3931,6.4163,6.4239,6.482,6.5011,6.4936,6.4357,6.3777,6.3198,6.2667,6.2117,6.1643,6.1636,6.2062,6.2481,6.2486,6.2912,6.3389,6.3666,6.3731,6.3836,6.4115,6.4195,6.4195,6.4195,6.3697,6.3389,6.3706,6.3726,6.4036,6.4909,6.5029,6.5266,6.5822,6.59,6.59,6.59,6.59,6.59,6.59,6.59,6.5662,6.5067,6.475,6.4332,6.3775,6.2958,6.2551,6.2551,6.1701,6.0736,5.9652,0.0,0.0,0.0,0.0,0.0,0.0,0.0,0.0,0.0,0.0,0.0,0.0,0.0,0.0,0.0,0.0,0.0,0.0,0.0,0.0,0.0,0.0,0.0,5.8907,5.8634,5.8944,5.9831,6.0636,6.1762,6.342,6.4344,6.5127,6.5872,6.5943,6.5997,6.6019,6.6787,6.7592,6.8468,6.9318,7.0127,7.0938,7.0937,7.0937,7.0975,7.0975,7.0975,7.0975,7.0975,7.0975,7.0975,7.0937,7.0937,7.0898,7.005,6.9704,6.9281,6.5083,6.3429,6.3429,6.3466,6.3466,6.3466,6.3466,6.3466,6.3466,6.3429,6.3429,6.3429,6.3391,6.3367,6.338,6.3397,6.3392,6.3372,6.3387,6.3361,6.3599,6.4433,6.4632,6.4869,6.5703,6.5902,6.5941,6.5941,6.4592,6.3718,6.4512,6.4632,6.4949,6.582,6.5941,0.0,6.5979,6.5981,6.5981,6.5981,6.5981,6.5979,6.5941,6.5941,6.5941,6.59,6.5107,6.4641,6.4626,6.388,6.3413,6.3375,6.2606,6.1334,5.9634,0.0,0.0,0.0,0.0,0.0,0.0,0.0,0.0,0.0,0.0,0.0,0.0,0.0,0.0,0.0,0.0,0.0,0.0,0.0,0.0,0.0,0.0,6.1497,6.0467,6.0815,6.1745,6.3251,6.3624,6.4136,6.5129,6.5472,6.5912,6.67,6.7345,6.7988,6.8629,6.9438,6.9977,7.0204,7.0435,7.0977,7.1827,7.1825,7.2168,7.278,7.278,7.278,7.278,7.278,7.278,7.2741,7.2131,7.1825,7.1748,7.0281,6.9704,6.9512,6.77,6.6625,6.613,6.6777,6.7006,6.7006,6.7006,6.7006,6.6891,6.6244,6.6053,6.5937,6.536,6.5173,6.5176,6.5208,6.5179,6.5184,6.5194,6.5188,6.5266,6.5503,6.5543,6.5623,6.586,6.6376,6.6772,6.6772,6.6893,6.6694,6.5703,6.5543,6.5822,6.6654,0.0,0.0,6.7644,6.7725,6.7725,6.7725,6.7725,6.7447,6.6812,6.6772,6.6535,6.5941,6.5663,6.5546,6.5553,6.4722,6.3693,6.2468,6.2239,6.1603,0.0,0.0,0.0,0.0,0.0,0.0,0.0,0.0,0.0,0.0,0.0,0.0,0.0,0.0,0.0,0.0,0.0,0.0,0.0,0.0,0.0,0.0,6.3118,6.3628,6.3114,6.3169,6.3882,6.5618,6.5792,6.6223,6.7375,6.7487,6.7819,6.8634,6.9166,6.9664,7.0166,7.0977,7.144,7.144,7.1781,7.2243,7.2747,7.2745,7.3012,7.3507,7.3507,7.3507,7.3507,7.3507,7.3507,0.0,7.2944,7.272,7.2682,7.1708,7.1293,0.0,0.0,0.0,0.0,0.0,6.8419,6.8404,6.8404,6.8399,6.8316,6.7821,6.7401,6.7018,6.6555,6.6171,6.5979,6.6298,6.6416,6.6495,6.6852,6.6933,6.6933,6.6933,6.6933,6.6933,6.6933,6.7327,6.7633,6.7628,0.0,0.0,6.7104,6.6942,6.7091,6.7566,6.7646,6.7818,0.0,6.8411,6.8411,6.8411,6.8411,6.8175,6.7697,6.7659,0.0,0.0,0.0,6.6272,6.5943,6.5444,0.0,0.0,0.0,6.2786,6.1908,0.0,0.0,0.0,5.9431,5.9173,0.0,0.0,0.0,0.0,0.0,0.0,0.0,0.0,0.0,0.0,0.0,0.0,0.0,0.0,0.0,0.0,6.46,6.6181,6.6323,6.5704,6.5819,6.7326,6.7433,6.8055,6.9667,6.9858,7.0129,7.086,7.0977,7.1054,7.1054,0.0,0.0,0.0,0.0,7.3546,7.3623,7.3624,7.3661,7.3776,7.3776,7.3776,7.3776,7.3776,7.3776,7.3778,7.3799,7.3768,7.3766,7.3666,7.3577,7.3204,7.0055,6.881,6.8815,6.8613,6.8567,0.0,0.0,0.0,0.0,6.8391,6.7896,6.7249,6.7255,6.6758,6.6336,6.7051,6.7241,6.743,6.8183,6.8382,6.8382,6.8382,6.8382,6.8382,6.8382,6.854,6.8671,6.8575,6.8715,6.8796,6.8715,6.8597,6.854,6.854,6.8619,0.0,6.8677,6.8755,6.8834,6.8834,0.0,0.0,6.8715,6.8684,6.8597,6.8425,6.7568,6.6797,6.6146,6.603,6.5568,6.4717,6.4679,6.4224,6.3314,6.2592,6.225,6.2215,6.0579,5.9789,0.0,0.0,0.0,0.0,0.0,0.0,0.0,0.0,0.0,0.0,0.0,0.0,0.0,0.0,0.0,6.5236,6.6149,6.7383,6.8761,6.8836,6.8836,6.9184,6.9212,6.959,7.0552,7.0667,7.0744,7.0898,7.1556,7.1942,7.1942,7.2782,0.0,7.3241,7.3393,7.3817,7.4471,7.4471,7.4817,7.5515,0.0,0.0,7.5515,7.5515,7.5515,7.5515,7.5518,7.552,7.5478,7.4762,7.4102,7.3358,7.1985,7.1474,7.1282,6.9938,6.9434,6.9349,6.8635,6.8395,6.8391,6.8391,6.8277,6.8133,6.814,6.8037,0.0,6.8082,6.814,6.8191,6.835,6.839,6.839,6.839,6.839,6.839,6.839,6.9462,7.0209,6.9553,7.0542,7.1255,7.0542,6.9885,6.946,6.946,6.9998,7.0423,7.0423,7.1017,7.1454,7.1454,7.2088,7.1929,7.0542,7.0403,6.9853,6.8492,6.7574,6.7029,6.6883,6.6267,6.5496,6.4646,6.4609,6.4175,6.3314,6.3123,6.3086,6.3048,6.1343,6.058,0.0,0.0,0.0,0.0,0.0,0.0,0.0,0.0,0.0,0.0,0.0,6.4146,6.4113,0.0,6.606,6.6449,6.7573,6.8707,6.9589,7.005,7.0283,7.0283,7.0283,7.0473,7.086,7.1285,7.1556,7.1556,7.236,7.286,7.286,7.3665,7.4086,7.4086,7.4509,7.4934,7.5359,7.5359,7.5553,7.6015,7.644,7.6632,7.6672,7.7057,7.7015,7.6665,7.6643,7.6412,7.5976,7.5538,7.5095,7.4706,7.427,7.3596,7.2766,7.1916,7.1601,7.1528,7.1093,7.0934,7.0934,7.0934,7.0656,7.0305,7.0294,6.9982,6.9744,7.0181,7.0306,7.0383,7.0858,7.0938,7.0858,7.0421,7.0303,7.0184,6.9747,7.0304,7.0921,7.0948,7.1615,7.2207,7.2207,7.2207,7.1753,7.0509,7.0626,7.0898,7.0898,7.1651,7.2187,7.2211,7.2962,7.3159,7.2287,7.1781,7.1017,6.9747,6.8846,6.8207,6.7782,6.6939,6.6285,6.586,6.5476,6.5051,6.4588,6.4163,6.3931,6.3932,6.2624,6.2049,0.0,0.0,0.0,0.0,0.0,0.0,0.0,6.4254,6.4623,6.3865,6.439,6.5031,6.5131,6.5966,6.6838,6.7486,6.8898,6.9935,6.9935,7.0475,7.0898,7.0898,7.0898,7.0975,7.1129,7.1787,7.2287,7.2439,7.3243,7.3738,7.3738,7.4509,7.4934,7.4934,7.5784,7.6245,7.6245,7.6401,7.6478,7.6478,7.7211,7.7519,7.7553,7.8213,7.8163,7.7531,7.7541,7.7125,7.6491,7.6491,7.6491,7.6452,7.6293,7.5421,7.4191,7.3872,7.3729,7.3724,7.3565,7.3486,7.3486,7.3486,7.301,7.2454,7.2454,7.1956,7.1547,7.226,7.244,7.2614,7.3327,7.3486,7.3327,7.2614,7.2468,7.2248,7.1573,7.1533,7.1787,7.2333,7.2568,7.2851,7.3407,7.4041,7.378,7.1692,7.1558,7.1573,7.1414,7.2167,7.2684,7.2692,7.3475,7.3913,7.3754,7.2965,7.2147,7.1433,7.0473,6.9627,6.8893,6.7898,6.7362,6.7362,6.6556,6.6131,6.6131,6.5283,6.4857,6.4857,6.4125,6.3622,6.6055,6.5566,6.4816,6.3882,6.418,6.4435,0.0,6.4093,6.4692,6.4509,6.5188,6.5998,6.6683,6.8178,6.9289,6.9398,7.0166,7.0783,7.0783,7.0821,7.0898,7.0898,7.0898,7.1206,7.1979,7.2135,7.2517,7.3318,7.4124,7.4586,7.4586,7.5397,7.5859,7.5859,7.6709,7.7134,7.7134,7.7867,7.8213,7.8213,7.833,7.8358,7.8377,7.8475,7.8454,7.8371,7.8353,7.8314,7.8236,7.8236,7.8236,7.8157,7.7442,7.7046,7.6689,7.5143,7.4555,7.4447,7.3731,7.3494,7.3494,7.3494,7.3415,7.3334,7.3334,7.3303,7.3234,7.3314,7.3343,7.3375,7.3455,7.3494,7.3494,7.3375,7.3367,7.3318,7.3237,7.3753,7.4105,7.346,7.3946,7.4209,7.3612,7.3572,7.3522,7.3248,7.3825,7.403,7.3316,7.3911,7.4427,7.4438,7.5183,7.5419,7.4627,7.3834,7.3304,7.3224,7.1661,7.0706,7.0627,6.9087,6.8237,6.8237,6.7399,6.6979,6.6979,6.6133,6.5745,6.5745,6.5631,6.478,6.4775,6.4369,6.3989,6.3549,6.3729,6.4029,6.4148,6.4796,6.5511,6.5952,6.6744,6.7627,6.8475,6.9204,6.9858,0.0,7.0667,7.0898,7.0898,7.0898,7.0898,7.0898,7.1362,7.1787,7.2173,7.2668,7.3282,7.4124,7.4972,7.5474,7.5474,7.6286,7.6747,7.6747,7.7557,7.7982,7.7982,7.833,7.8484,7.8523,7.9025,7.925,7.9281,7.9787,7.9727,7.9229,7.8719,7.8502,7.8502,7.8502,7.8502,7.8462,7.8144,7.7984,7.7799,7.6093,7.546,7.5419,7.5064,7.4945,7.4945,7.4945,7.4945,7.4945,7.4945,7.4945,7.4945,7.4945,7.4945,7.4945,7.4945,7.4945,7.4824,7.431,7.4185,7.406,7.3584,7.3743,7.4058,7.4179,7.446,7.4746,7.4943,7.4945,7.496,7.4964,7.4417,7.3862,7.3544,7.4217,7.4875,7.5386,7.5777,7.5857,7.55,7.4698,7.4199,7.4194,7.3084,7.2205,7.1671,7.0514,6.9625,6.9164,6.8318,6.7859,6.7858,6.7016,6.6593,6.6595,6.6131,6.5514,6.3748,6.3836,6.412,6.3829,6.4083,6.4583,6.523,6.5998,6.6833,6.764,6.8321,6.9008,6.9858,7.0012,7.0204,7.0823,7.0898,7.0898,7.0898,7.1092,7.1246,7.1246,7.2016,7.2631,7.2864,7.3472,7.4163,7.5011,7.5628,7.6092,7.6363,7.6942,7.7405,7.7636,7.8444,7.8865,7.8865,7.9096,7.9213,7.9213,7.9869,8.0179,8.0177,8.0827,8.0775,8.0102,7.9506,7.9227,7.9227,7.9227,7.9227,7.9188,7.895,7.8879,7.8668,7.724,7.6703,7.6689,7.6689,7.6531,7.6372,7.6372,7.6213,7.6015,7.6015,7.6015,7.6015,7.6015,7.6015,7.6015,7.6015,7.6015,7.5855,7.5222,7.5062,7.4905,7.431,7.4191,7.4348,7.4945,7.5062,7.5262,7.5896,7.6015,7.6015,7.6015,7.4984,7.4191,7.4191,7.4705,7.53,7.5936,7.6015,7.6015,7.6015,7.5405,7.5058,7.5051,7.4278,7.3549,7.2902,7.2052,7.1243,7.04,6.9549,6.897,6.8778,6.7898,6.7478,6.7438,6.6861,6.659,6.3748,6.4696,6.5719,6.4802,6.5787,6.6981,6.7021,6.7707,6.8587,6.9433,6.9627,6.9898,7.0706,7.086,7.086,7.0898,7.0898,7.0898,7.0898,7.1633,7.2173,7.2173,7.2935,7.3778,0.0,7.4663,7.5011,7.5899,7.5976,7.6363,7.7211,7.729,7.7674,7.8446,7.9323,7.9742,7.9742,8.0591,8.1018,8.1018,8.1054,8.1054,8.1054,8.1093,8.1093,8.1052,8.1014,8.1014,8.1014,8.1014,8.1014,8.0935,8.01,7.9746,7.9669,7.8756,7.8425,7.8434,7.8434,7.7919,7.7246,7.7246,7.6689,7.6015,7.6015,7.6015,7.6015,7.6015,7.6015,7.6015,7.6015,7.6015,7.5976,7.5976,7.5974,7.5936,7.5936,7.5936,7.5936,7.5974,7.5974,7.5976,7.6015,7.6015,7.6015,7.6015,7.5974,7.5936,7.5936,7.5936,7.5976,7.6015,7.6015,7.6015,7.6015,7.5978,7.5976,7.5976,7.5126,7.4663,7.4624,7.3853,7.3011,7.2135,7.1285,7.0437,6.9666,6.8778,6.8353,6.8353,6.8353,6.8316,6.439,6.5504,6.6711,6.634,6.713,6.8127,6.8706,6.9052,6.951,7.032,7.0514,7.0591,7.086,7.0898,7.0898,7.0898,7.0898,7.1092,7.1671,7.2019,7.2402,7.2974,7.3778,0.0,0.0,0.0,0.0,7.5938,7.6555,7.698,7.7288,7.8361,7.909,7.936,8.0206,8.0398,7.9819,8.0089,7.9939,7.9365,7.9367,7.9386,7.9386,7.9386,7.9386,7.9386,7.9386,7.9386,7.9386,7.9386,7.9386,7.9346,7.9069,7.895,7.8909,7.8592,7.8496,7.8489,7.8489,7.8329,7.8104,7.8094,7.7919,7.7642,7.7642,7.7642,7.7642,7.7642,7.7642,7.7642,7.7642,7.7642,7.7642,7.7642,7.7244,7.6848,7.6848,7.6412,7.6015,7.6015,7.6015,7.6015,7.6015,7.6015,7.6015,7.6015,7.6491,7.6863,7.6869,7.7335,7.767,7.7669,7.7165,7.6854,7.6854,7.6319,7.6015,7.6015,7.5705,7.5282,7.4703,7.4432,7.3894,7.3089,7.2208,7.1633,7.1363,6.9935,6.9241,6.9241,6.8662,6.8391,6.5553,6.6818,6.8063,6.8026,6.8667,6.9431,7.0012,7.0129,7.0281,7.0783,7.0898,7.0898,7.0898,7.0898,7.0898,7.0898,7.0898,7.1206,7.2096,7.2479,7.2976,7.3817,7.4665,7.5165,0.0,0.0,0.0,7.6401,7.698,7.7557,7.8171,7.8902,7.9475,7.9779,8.0054,7.9902,7.9323,7.9323,7.9056,7.8484,7.8502,7.8492,7.849,7.849,7.849,7.849,7.849,7.849,7.849,7.849,7.849,7.849,7.849,7.849,7.849,7.849,7.849,7.8487,7.8487,7.8313,7.8087,7.8077,7.7863,7.7625,7.7625,7.7625,7.7625,7.7625,7.7625,7.7625,7.7625,7.7625,7.7625,7.7625,7.7227,7.6842,7.6839,7.6412,7.6015,7.6015,7.6015,7.6015,7.6015,7.6015,7.6015,7.6015,7.6729,7.7182,7.6872,7.7545,7.8062,7.8086,7.7852,7.7731,7.774,7.6938,7.6478,7.6478,7.6169,7.5745,7.5203,7.5165,7.478,7.3932,7.3399,7.2937,7.2668,7.1285,7.0592,7.0552,6.9702,6.9279,6.7117,6.8519,6.9743,6.9743,7.0358,7.0898,7.0898,7.0898,7.0898,7.0898,7.0898,7.0898,7.0898,7.0898,7.0898,7.0898,7.0937,7.1285,7.2133,7.3011,7.3853,7.4665,7.5513,7.6015,0.0,0.0,0.0,7.7367,0.0,7.8055,7.9665,7.8942,7.8865,7.9704,7.8942,7.8482,7.8446,7.8446,7.8446,7.8484,7.8508,7.8496,7.8512,7.8512,7.8512,7.8512,7.8512,7.8512,7.8512,7.8512,7.8512,7.8512,7.8512,7.8474,7.8434,7.8434,7.8395,7.838,7.8358,7.7927,7.737,7.737,7.6815,7.6139,7.6139,7.6139,7.6139,7.6139,7.6139,7.6139,7.6139,7.6139,7.6139,7.6139,7.6098,7.6087,7.6073,7.6016,7.6015,7.6015,7.6015,7.6015,7.6015,7.6015,7.6015,7.6015,7.6691,7.6967,7.6174,7.6838,7.7357,7.7344,7.8033,7.8498,7.8482,7.779,7.7326,7.729,7.6517,7.6053,7.6015,7.6015,7.5628,7.478,7.4703,7.4317,7.3546,7.2708,7.2287,7.225,7.14,7.1014,6.9016,6.9794,7.0591,7.0591,7.0746,7.0898,7.0898,7.0898,7.0898,7.0898,7.0898,7.0898,7.0898,7.0898,7.0898,7.0898,7.144,7.2171,7.3049,7.3895,7.4701,7.5553,7.5861,7.6247,7.6903,7.7174,0.0,0.0,7.8175,7.8367,7.8827,7.8636,7.86,7.8829,7.8636,7.8215,7.7597,7.7597,7.7909,7.8497,7.8507,7.8487,7.8512,7.8512,7.8512,7.8512,7.8512,7.8512,7.8512,7.8512,7.8512,7.8512,7.8512,7.8116,7.7601,7.7601,7.7204,7.6647,7.6658,7.7323,7.8195,7.8195,7.8037,7.7878,7.7878,7.7878,7.7878,7.7878,7.7878,7.7878,7.7878,7.7878,7.7878,7.7878,7.7403,7.6973,7.6962,7.6452,7.6015,7.6015,7.6015,7.6015,7.6015,7.6015,7.6015,7.6015,7.6174,7.6491,7.6927,7.7697,7.819,7.8173,7.8361,7.8515,7.8484,7.829,7.7944,7.7326,7.7096,7.6672,7.6016,7.6015,7.5899,7.5667,7.5011,7.4588,7.4394,7.3586,7.3164,7.3164,7.2932,7.2474,7.0147,7.0552,7.0898,7.0898,7.0898,7.0898,7.0898,7.0629,7.036,7.036,7.0089,6.9935,7.0283,7.036,7.0475,7.0821,7.1633,7.2516,7.3393,7.4199,7.5167,7.6401,7.6555,7.6903,7.7751,7.7828,7.8021,0.0,7.8484,7.8484,7.8484,7.8176,7.8136,7.8484,7.8176,7.7946,7.7828,7.7819,7.8048,7.8517,7.8482,7.8486,7.8486,7.8486,7.8486,7.8486,0.0,7.8486,7.8486,7.8486,7.8486,7.8486,7.8486,7.8207,7.7817,7.7821,7.7523,7.7086,7.7086,7.7482,7.7919,7.7523,7.7403,7.7403,7.7403,7.7403,7.7403,7.7403,7.7403,7.7403,7.7403,7.7403,7.7403,7.7403,7.7046,7.6729,7.6729,7.6333,7.6015,7.6015,7.6015,7.6015,7.6015,7.6015,7.6015,7.6015,7.6015,7.6174,7.6689,7.7468,7.7966,7.7984,7.8292,7.8636,7.9058,7.8713,7.848,7.84,7.7711,7.7096,7.6594,7.6209,7.6015,7.6015,7.5513,7.528,7.528,7.4434,7.4046,7.4007,7.3661,7.324,7.0723,7.0898,7.0898,7.0898,7.0898,7.086,7.0783,7.0206,6.9666,6.9549,6.8931,6.8622,6.9395,6.9627,6.9935,7.0629,7.1671,7.2631,7.3392,7.4278,7.5474,7.7096,7.729,7.7636,7.8405,7.8484,7.8446,7.8369,7.8446,7.8446,7.8369,7.7674,7.7674,7.8482,7.7828,7.7865,7.8675,7.8654,7.8723,7.8839,7.8844,7.8831,7.8831,7.8831,7.8831,7.8831,0.0,0.0,7.8831,7.8831,7.8831,7.8831,7.8831,7.8752,7.8683,7.8659,7.8611,7.8492,7.8492,7.8056,7.7304,7.6447,7.6095,7.6015,7.6015,7.6015,7.6015,7.6015,7.6015,7.6015,7.6015,7.6015,7.6015,7.6015,7.6015,7.6015,7.6015,7.6015,7.6015,7.6015,7.6015,7.6015,7.6015,7.6015,7.6015,7.6015,7.6015,7.6015,7.6015,7.6663,7.7123,7.7134,7.7869,7.8636,7.9396,7.8979,7.8942,7.959,7.8363,7.7519,7.7328,7.6555,7.613,7.6015,7.6015,7.6015,7.6015,7.5243,7.4855,7.4857,7.4163,7.3778,7.0865,7.0898,7.0898,7.0898,7.0898,7.0744,7.005,6.9819,6.951,6.8776,6.8507,6.8468,6.8584,6.9201,6.9743,6.9896,7.1818,7.3317,7.3469,7.4819,7.6132,7.7174,7.729,7.7636,7.8405,7.8484,0.0,0.0,0.0,7.8215,7.7559,7.7367,7.7674,7.8482,7.8367,7.8711,7.9588,7.9585,7.9931,8.0664,8.066,8.0656,8.0656,8.0656,8.0656,8.0656,0.0,0.0,8.0656,8.0656,8.0656,8.0656,8.0656,8.0219,7.9586,7.9567,7.9137,7.8502,7.8502,7.8423,7.816,7.7336,7.6572,7.6015,7.6015,7.6015,7.6015,7.6015,7.6015,7.6015,7.6015,7.6015,7.6015,7.6015,7.6015,7.6015,7.6015,7.6015,7.6015,7.6015,7.6015,7.6015,7.6015,7.6015,7.6015,7.6015,7.6015,7.6015,7.6015,7.6128,7.6244,7.6245,7.698,7.7559,7.7711,7.8861,7.9323,7.875,7.9131,7.8744,7.7367,7.7134,7.6749,7.6015,7.6015,7.6015,7.6015,7.5859,7.5782,7.5784,7.563,7.5167,7.0898,7.0898,7.0898,7.0898,7.0898,7.0706,6.9896,6.9356,6.8779,6.7896,6.7396,6.7242,6.7667,6.8435,6.9164,6.9627,7.1857,7.3507,7.3507,7.532,7.698,7.7828,7.7907,7.8252,7.9094,7.8404,7.7905,7.7907,0.0,7.7713,7.7328,7.8132,7.8784,7.9171,7.9635,8.0054,8.0475,8.0475,8.0706,8.1093,8.1093,8.1093,8.1093,8.1093,8.1093,8.1093,8.1093,0.0,8.1093,8.1093,8.1093,8.1093,8.1093,8.0854,8.0496,8.0496,8.0219,7.9861,7.9861,7.9546,7.9117,7.8733,7.7715,7.6689,7.6689,7.6372,7.6015,7.6015,7.6015,7.6015,7.6015,7.6015,7.6015,7.6015,7.6015,7.6015,7.6015,7.6015,7.6015,7.6015,7.6015,7.6015,7.6015,7.6015,7.6015,7.6015,7.6015,7.6015,7.6015,7.6015,7.6015,7.6015,7.6363,7.6826,7.7251,7.8055,7.8707,7.9133,7.9131,7.875,7.7944,7.7521,7.6903,7.6015,7.6015,7.6015,7.6015,7.6015,7.6015,7.6015,7.6015,7.5782,7.0898,7.0898,7.0898,7.0898,7.0783,7.0437,6.9625,6.8741,6.7896,6.7016,6.6325,6.6094,6.6748,6.7704,6.8624,6.9318,7.1739,7.3507,7.3507,7.5707,7.7597,7.8407,7.8484,7.8752,7.9475,7.8325,0.0,7.8215,0.0,0.0,7.7825,7.909,7.9896,8.0089,8.0744,8.1093,8.1093,8.1093,8.1093,8.1093,8.1093,8.1093,8.1093,8.1093,8.1093,8.1093,8.1093,0.0,0.0,8.1093,8.1093,8.1093,8.1093,8.1093,8.1093,8.1093,8.1093,8.1093,8.1093,8.0656,8.0061,8.0061,7.8927,7.7572,7.7556,7.6967,7.6293,7.6293,7.6134,7.6015,7.6015,7.6015,7.6015,7.6015,7.6015,7.6015,7.6015,7.6015,7.6015,7.6015,7.6015,7.6015,7.6015,7.6015,7.6015,7.6015,7.6015,7.6015,7.6015,7.6015,7.6015,7.6015,7.6015,7.6286,7.6942,7.7174,7.7865,7.9165,7.8979,7.8675,7.8523,7.7905,7.7134,7.6284,7.6093,7.6015,7.6015,7.6015,7.6015,7.6015,7.6015,7.6015,7.0898,7.0898,7.0898,7.0898,7.0358,6.9589,6.8739,6.7858,6.6978,6.617,6.5939,6.5902,6.6016,6.7319,6.843,6.8507,7.1316,7.3507,7.3507,7.5707,7.7597,7.8407,7.8484,7.8521,7.8598,7.8482,7.8136,7.7444,0.0,0.0,7.9588,7.9704,8.0165,8.0977,8.1054,8.1093,8.1093,8.1093,8.1093,8.1093,8.1093,8.1093,8.1093,8.1093,8.1093,8.1093,0.0,0.0,0.0,8.1093,8.1093,8.1093,8.1093,8.1093,8.1093,8.1093,8.1093,8.1093,8.1093,8.1052,8.0973,8.0973,7.979,7.8387,7.8404,7.7838,7.7165,7.7165,7.661,7.6015,7.6015,7.6015,7.6015,7.6015,7.6015,7.6015,7.6015,7.6015,7.6015,7.6015,7.6015,7.6015,7.6015,7.6015,7.6015,7.6015,7.6015,7.6015,7.6015,7.6015,7.6015,7.6015,7.6015,7.6016,7.6092,7.6826,7.7367,7.7521,7.8861,7.9323,7.8521,7.8446,7.8021,7.7213,7.6401,7.6015,7.6015,7.6015,7.6015,7.6015,7.6015,7.6015,7.0166,7.0514,7.0783,7.0283,6.9935,6.9319,6.7936,6.7362,6.6864,6.6054,6.59,6.59,6.59,6.6822,6.7781,6.8314,7.082,7.2897,7.3432,7.6092,7.8136,7.8446,7.8484,7.8484,7.8484,7.8059,7.8057,0.0,0.0,0.0,8.0591,8.0591,8.0746,8.1093,8.1093,8.1093,8.1093,8.1093,8.1093,8.1093,8.1093,8.1093,8.1093,8.1093,8.1093,8.1093,0.0,0.0,0.0,8.1093,8.1093,8.1093,8.1093,8.1093,8.1093,8.1093,8.1093,8.1093,8.1093,8.1093,8.1093,8.1093,8.0617,7.9988,7.9438,7.8696,7.8035,7.8019,7.7403,7.6769,7.6769,7.6372,7.6015,7.6015,7.6015,7.6015,7.6015,7.6015,7.6015,7.6015,7.6015,7.6015,7.6015,7.6015,7.6015,7.6015,7.6015,7.6015,7.6015,7.6015,7.6015,7.6015,7.6015,7.6015,7.6015,7.6324,7.6749,7.7251,7.794,7.8365,7.8484,7.8484,7.8136,7.7328,7.6942,7.6517,7.6015,7.6015,7.6015,7.6015,7.6015,7.6015,6.9323,6.9741,7.0012,6.9473,6.9127,6.8592,6.7364,6.6902,6.6595,6.6016,6.59,6.59,6.59,6.6556,6.7399,6.8276,7.0552,7.2516,7.3393,7.6401,7.8405,7.8175,7.8367,7.8484,7.8484,7.8211,7.8632,0.0,0.0,0.0,0.0,8.1093,8.1093,8.1093,8.1093,8.1093,8.1093,8.1093,8.1093,8.1093,8.1093,8.1093,8.1093,8.1093,8.1093,8.1093,0.0,0.0,0.0,8.1093,8.1093,8.1093,8.1093,8.1093,8.1093,8.1093,8.1093,8.1093,8.1093,8.1093,8.1093,8.1093,8.1093,8.0973,8.0379,7.9584,7.8887,7.8882,7.8291,7.7601,7.7363,7.6848,7.6332,7.6055,7.6015,7.6015,7.6015,7.6015,7.6015,7.6015,7.6015,7.6015,7.6015,7.6015,7.6015,7.6015,7.6015,7.6015,7.6015,7.6015,7.6015,7.6015,7.6015,7.6015,7.6015,7.6015,7.6247,7.6865,7.7172,7.7559,7.8136,7.8369,7.8136,7.7328,7.729,7.6865,7.6015,7.6015,7.6015,7.6015,7.6015,7.6015,6.8411,6.843,6.843,6.843,6.7782,6.7135,6.7095,6.6478,6.59,6.59,6.59,6.59,6.59,6.6556,6.7399,6.8276,7.0552,7.2516,7.3393,7.6401,7.8215,7.7405,7.8021,7.8484,7.8484,7.9285,8.0127,0.0,0.0,0.0,0.0,8.1093,8.1093,8.1093,8.1093,8.1093,8.1093,8.1093,8.1093,8.1093,8.1093,8.1093,8.1093,8.1093,8.1093,0.0,0.0,0.0,0.0,8.1093,8.1093,8.1093,8.1093,8.1093,8.1093,8.1093,8.1093,8.1093,8.1093,8.1093,8.1093,8.1093,8.1093,8.1093,8.1093,8.0496,7.9782,7.9784,7.9148,7.8314,7.7523,7.7284,7.7085,7.6214,7.6015,7.6015,7.6015,7.6015,7.6015,7.6015,7.6015,7.6015,7.6015,7.6015,7.6015,7.6015,7.6015,7.6015,7.6015,7.6015,7.6015,7.6015,7.6015,7.6015,7.6015,7.6015,7.6015,7.6015,7.6824,7.729,7.7328,7.8098,7.8136,7.7328,7.729,7.6865,7.6015,7.6015,7.6015,7.6015,7.6015,7.6015,6.7521,6.7933,6.8276,6.7667,6.7285,6.6979,6.6402,6.6093,6.59,6.59,6.59,6.59,6.59,6.6094,6.6938,6.8973,7.0437,7.2014,7.4049,7.6747,7.8215,7.7405,7.8021,7.8484,7.8484,0.0,0.0,0.0,0.0,0.0,0.0,8.1093,8.1093,8.1093,8.1093,8.1093,8.1093,8.1093,8.1093,8.1093,8.1093,8.1093,8.1093,8.1093,0.0,0.0,0.0,0.0,0.0,8.1093,8.1093,8.1093,8.1093,8.1093,8.1093,8.1093,8.1093,8.1093,8.1093,8.1093,8.1093,8.1093,8.1093,8.1093,8.1093,8.0894,8.0577,7.9981,7.961,7.9198,7.8325,7.8103,7.8038,7.7761,7.7721,7.7721,7.7721,7.7721,7.7721,7.7721,7.7246,7.6889,7.6889,7.6372,7.6015,7.6015,7.6015,7.6015,7.6015,7.6015,7.6015,7.6015,7.6015,7.6015,7.6015,7.6015,7.6015,7.6015,7.6247,7.6672,7.7288,7.7559,7.7828,7.8098,7.7597,7.7172,7.6903,7.6286,7.6015,7.6015,7.6015,7.6015,6.6633,6.7051,6.7319,6.6785,6.6633,6.6518,6.6016,6.59,6.59,6.59,6.59,6.59,6.59,6.6133,6.7093,6.936,7.0669,7.217,7.4395,7.6632,7.7869,7.7367,7.8021,7.8484,0.0,0.0,0.0,0.0,0.0,0.0,0.0,0.0,8.1093,8.1093,8.1093,8.1093,8.1093,8.1093,8.1093,8.1093,8.1093,8.1093,8.1093,8.1093,0.0,0.0,0.0,0.0,0.0,8.1093,8.1093,8.1093,8.1093,8.1093,8.1093,8.1093,8.1093,8.1093,8.1093,8.1093,8.1093,8.1093,8.1093,8.1093,8.1093,8.1093,8.0973,8.0458,8.0298,8.01,7.9227,7.9,7.8892,7.8572,7.8494,7.8494,7.8494,7.8494,7.8494,7.8494,7.8098,7.7673,7.7356,7.6848,7.6372,7.6055,7.6015,7.6015,7.6015,7.6015,7.6015,7.6015,7.6015,7.6015,7.6015,7.6015,7.6015,7.6015,7.6015,7.6245,7.6788,7.7136,7.7365,7.7557,7.7403,7.7134,7.6826,7.6247,7.6015,7.6015,7.6015,7.6015,0.0,6.59,6.59,6.59,6.59,6.59,6.59,6.59,0.0,6.59,6.59,6.59,6.59,6.6556,6.7672,6.9473,7.1131,7.2825,7.4626,7.6286,7.729,7.729,7.8021,0.0,7.8484,0.0,0.0,0.0,0.0,0.0,0.0,8.1093,8.1093,8.1093,8.1093,8.1093,8.1093,8.1093,8.1093,8.1093,8.1093,8.1093,8.1093,8.1093,0.0,0.0,0.0,0.0,0.0,8.1093,8.1093,8.1093,8.1093,8.1093,8.1093,8.1093,8.1093,8.1093,8.1093,8.1093,8.1093,8.1093,8.1093,8.1093,8.1093,8.1093,8.1093,8.1093,8.1093,8.0894,8.01,7.9902,7.9704,7.8871,7.8671,7.8671,7.8671,7.8671,7.8671,7.8671,7.8633,7.8348,7.7612,7.7398,7.7046,7.6214,7.6055,7.6015,7.6015,7.6015,7.6015,7.6015,7.6015,7.6015,7.6015,7.6015,7.6015,7.6015,7.6015,7.6015,7.6015,7.6788,7.6865,7.6092,7.6903,7.6865,7.6015,7.6015,7.6015,7.6015,7.6015,7.6015,6.59,0.0,6.59,6.59,6.59,6.59,0.0,6.59,6.59,6.59,6.59,6.59,6.59,6.6556,6.7864,7.0244,7.1517,7.325,7.6288,7.7057,7.729,7.729,7.8021,7.8484,7.8484,0.0,0.0,0.0,0.0,0.0,0.0,8.1093,8.1093,8.1093,8.1093,8.1093,8.1093,8.1093,8.1093,8.1093,8.1093,8.1093,8.1093,8.1093,0.0,0.0,0.0,0.0,8.1093,8.1093,8.1093,8.1093,8.1093,8.1093,8.1093,8.1093,8.1093,8.1093,8.1093,8.1093,8.1093,8.1093,8.1093,8.1093,8.1093,8.1093,8.1093,8.1093,8.1093,8.1052,8.0854,8.0775,8.0735,8.0537,8.0498,8.0498,8.0498,8.0498,8.0498,8.0498,7.9942,7.9434,7.9262,7.8142,7.7244,7.7046,7.6412,7.6015,7.6015,7.6015,7.6015,7.6015,7.6015,7.6015,7.6015,7.6015,7.6015,7.6015,7.6015,7.6015,7.6015,7.6209,7.6517,7.698,7.7213,7.6865,7.6015,7.6015,7.6015,7.6015,7.6015,7.6015,6.59,6.59,6.59,6.59,6.59,6.59,6.59,6.59,6.59,6.59,6.59,6.6016,6.6364,6.713,6.8513,7.1092,7.2246,7.3708,7.6326,7.6709,7.6865,7.7251,7.8365,7.9094,0.0,0.0,0.0,0.0,0.0,0.0,0.0,8.1093,8.1093,8.1093,8.1093,8.1093,8.1093,8.1093,8.1093,8.1093,8.1093,8.1093,8.1093,8.1093,0.0,0.0,0.0,0.0,8.1093,8.1093,8.1093,8.1093,8.1093,8.1093,8.1093,8.1093,8.1093,8.1093,8.1093,8.1093,8.1093,8.1093,8.1093,8.1093,8.1093,8.1093,8.1093,8.1093,8.1093,8.1093,8.1093,8.1093,8.1093,8.1093,8.1093,8.1093,8.1093,8.1093,8.1093,8.1093,8.0735,8.014,7.9346,7.8442,7.7584,7.6802,7.6293,7.6015,7.6015,7.6015,7.6015,7.6015,7.6015,7.6015,7.6015,7.6015,7.6015,7.6015,7.6015,7.6015,7.6015,7.6015,7.6209,7.667,7.6709,7.6478,7.6015,7.6015,7.6015,7.6015,7.6015,7.6015,6.59,6.59,6.59,6.59,6.59,6.59,6.59,6.59,6.59,6.59,6.6016,6.6285,6.6979,6.8011,6.9549,7.1827,7.3245,7.4588,7.6015,7.6209,7.6478,7.7211,7.8669,0.0,0.0,0.0,0.0,0.0,0.0,0.0,0.0,8.1093,8.1093,8.1093,8.1093,8.1093,8.1093,8.1093,8.1093,8.1093,8.1093,8.1093,8.1093,8.1093,8.1093,0.0,0.0,0.0,8.1093,8.1093,8.1093,8.1093,8.1093,8.1093,8.1093,8.1093,8.1093,8.1093,8.1093,8.1093,8.1093,8.1093,8.1093,8.1093,8.1093,8.1093,8.1093,8.1093,8.1093,8.1093,8.1093,8.1093,8.1093,8.1093,8.1093,8.1093,8.1093,8.1093,8.1093,8.1093,8.1093,8.0577,7.8988,7.8606,7.7973,7.6438,7.6095,7.6015,7.6015,7.6015,7.6015,7.6015,7.6015,7.6015,7.6015,7.6015,7.6015,7.6015,7.6015,7.6015,7.6015,7.6015,7.6015,7.6015,7.6015,7.6015,7.6015,7.6015,7.6015,7.6015,7.6015,7.6015,6.59,6.59,6.59,6.59,6.59,6.59,6.59,6.59,6.59,6.59,6.6441,6.6941,6.7095,6.8977,7.0898,7.2019,7.4751,7.6826,0.0,0.0,7.7134,7.7288,0.0,0.0,0.0,0.0,0.0,0.0,0.0,0.0,0.0,0.0,8.1093,8.1093,8.1093,8.1093,8.1093,8.1093,8.1093,8.1093,8.1093,8.1093,8.1093,8.1093,8.1093,0.0,0.0,8.1093,8.1093,8.1093,8.1093,8.1093,8.1093,8.1093,8.1093,8.1093,8.1093,8.1093,8.1093,8.1093,8.1093,8.1093,8.1093,8.1093,8.1093,8.1093,8.1093,8.1093,8.1093,8.1093,8.1093,8.1093,8.1093,8.1093,8.1093,8.1093,8.1093,8.1093,8.1093,8.1093,8.1093,8.0775,7.9782,7.8984,7.8177,7.7242,7.6452,7.6015,7.6015,7.6015,7.6015,7.6015,7.6015,7.6015,7.6015,7.6015,7.6015,7.6015,7.6015,7.6015,7.6015,7.6015,7.6015,7.6015,7.6015,7.6015,7.6015,7.6015,7.6015,7.6015,7.6015,7.6015,6.59,6.59,6.59,6.59,6.59,6.59,6.59,6.6247,6.6556,6.6556,6.7207,6.8088,6.8978,7.0092,7.1475,7.3245,0.0,7.6595,7.6595,7.6595,7.694,0.0,0.0,0.0,0.0,0.0,0.0,0.0,0.0,0.0,0.0,0.0,8.034,8.034,8.034,8.034,8.034,8.034,8.0593,8.1093,8.1093,8.1093,8.1093,8.1093,8.1093,8.1093,0.0,8.1093,8.1093,8.1093,8.1093,8.1093,8.1093,8.1093,8.1093,8.1093,8.0935,8.0735,8.0735,8.0735,8.0735,8.0735,8.0735,8.0735,8.0735,8.0735,8.0656,8.0417,8.0696,8.1093,8.1093,8.1093,8.1093,8.1093,8.1093,8.1093,8.1093,8.1093,8.1093,8.1093,8.0735,8.0102,7.9267,7.8404,7.7561,7.6729,7.6253,7.6015,7.6015,7.6015,7.6015,7.6015,7.6015,7.6015,7.6015,7.6015,7.6015,7.6015,7.6015,7.6015,7.6015,7.6015,7.6015,7.6015,7.6015,7.6015,7.6015,7.6015,7.6015,7.6015,7.6015,7.6015,6.59,6.59,6.59,6.59,6.59,6.5939,6.6131,6.6672,6.721,6.7632,6.8398,6.9431,7.0938,7.1706,7.2783,7.4974,7.5861,7.6284,7.6284,7.613,0.0,0.0,0.0,0.0,0.0,0.0,0.0,0.0,0.0,0.0,0.0,0.0,7.9703,7.9703,7.9703,7.9703,7.9703,7.9703,8.0048,8.0771,8.0771,8.0771,8.0773,8.0895,8.0934,8.0939,8.1059,8.1093,8.1093,8.1093,8.1093,8.1093,8.1093,8.1027,8.093,8.095,8.0639,8.026,8.026,8.0247,8.0233,8.0233,8.0232,8.026,8.026,8.0232,8.0152,7.9792,8.023,8.0794,8.0894,8.1014,8.1093,8.1093,8.1093,8.1093,8.1093,8.0935,8.0814,8.0814,8.01,7.9234,7.8389,7.7705,7.7006,7.6134,7.6015,7.6015,7.6015,7.6015,7.6015,7.6015,7.6015,7.6015,7.6015,7.6015,7.6015,7.6015,7.6015,7.6015,7.6015,7.6015,7.6015,7.6015,7.6015,7.6015,7.6015,7.6015,7.6015,7.6015,7.6015,7.6015,6.59,6.59,6.59,6.59,6.59,6.6094,6.6825,6.7058,6.7555,6.9167,7.0167,7.1014,7.194,7.4055,7.5976,7.6942,7.7174,7.7211,7.7211,0.0,0.0,0.0,0.0,0.0,0.0,0.0,0.0,0.0,0.0,0.0,0.0,0.0,0.0,7.9703,7.9703,7.9703,7.9703,7.9703,7.9735,7.9799,7.9799,7.9799,7.9815,8.0261,8.0431,8.0454,8.0914,8.1093,8.1093,8.1093,8.1093,8.1093,8.1093,8.0831,8.0458,8.0468,8.0149,7.9744,7.9744,7.9761,7.9769,7.9769,7.9735,7.9744,7.9744,7.9732,7.9728,7.9728,7.9769,7.9917,8.0356,8.0775,8.1093,8.1093,8.1093,8.1093,8.1093,8.0458,7.9902,7.9902,7.9188,7.8346,7.7534,7.7358,7.7006,7.6134,7.6015,7.6015,7.6015,7.6015,7.6015,7.6015,7.6015,7.6015,7.6015,7.6015,7.6015,7.6015,7.6015,7.6015,7.6015,7.6015,7.6015,7.6015,7.6015,7.6015,7.6015,7.6015,7.6015,7.6015,7.6015,7.6015,6.59,6.59,6.6016,6.6518,6.6633,6.6748,6.7018,6.8324,6.963,7.0321,7.1551,7.278,7.3589,7.4976,7.6092,7.644,7.6478,7.6478,0.0,0.0,0.0,0.0,0.0,0.0,0.0,0.0,0.0,0.0,0.0,0.0,0.0,0.0,0.0,7.8812,7.8812,7.8812,7.8812,7.8812,7.8812,7.8856,7.9418,7.9703,7.9705,7.9884,7.9959,7.9969,8.0133,8.0242,8.0261,8.0549,8.0646,8.0704,8.0871,8.0542,8.0002,8.0217,7.9837,7.9245,7.9245,7.9254,7.9272,7.9272,7.9246,7.9245,7.9245,7.926,7.9191,7.8903,7.9028,7.9354,7.9851,8.01,8.0219,8.0219,8.0219,8.0219,8.0061,7.9465,7.889,7.8838,7.8017,7.7158,7.6603,7.6491,7.6293,7.5658,7.5817,7.6015,7.6015,7.6015,7.6015,7.6015,7.6015,7.6015,7.6015,7.6015,7.6015,7.6015,7.6015,7.6015,7.6015,7.6015,7.6015,7.6015,7.6015,7.6015,7.6015,7.6015,7.6015,7.6015,7.6015,7.6015,6.59,6.6094,6.6401,6.6979,6.771,6.8286,6.8286,6.963,7.1129,7.1935,7.328,7.4472,7.5011,7.5822,0.0,0.0,7.6245,0.0,0.0,0.0,0.0,0.0,0.0,0.0,0.0,0.0,0.0,0.0,0.0,0.0,0.0,0.0,0.0,0.0,7.8287,7.8287,7.8287,7.8287,7.8287,7.8297,7.8951,7.9247,7.9253,7.941,7.9478,7.9484,7.9637,7.9703,7.9724,7.9964,8.0075,8.0094,8.0346,8.0005,7.9404,7.9586,7.9224,7.8615,7.8615,7.8615,7.8615,7.8615,7.8611,7.8614,7.8614,7.8627,7.8534,7.8246,7.8368,7.8699,7.9006,7.9357,7.9595,7.9557,7.9555,7.9435,7.9035,7.8369,7.7761,7.7425,7.6564,7.5835,7.555,7.555,7.5522,7.5322,7.5579,7.5817,7.5976,7.5857,7.5738,7.5617,7.5579,7.5658,7.5777,7.5777,7.5855,7.5976,7.6015,7.6015,7.6015,7.6015,7.6015,7.6015,7.6015,7.6015,7.6015,7.5837,7.5877,7.6013,7.5835,7.5841,6.59,6.6479,6.7095,6.7096,6.9017,7.0898,7.0938,7.0937,7.1666,7.4201,7.5397,7.6015,7.6015,7.6709,0.0,0.0,0.0,0.0,0.0,0.0,0.0,0.0,0.0,0.0,0.0,0.0,0.0,0.0,0.0,0.0,0.0,0.0,0.0,0.0,7.8287,7.8287,7.8287,7.8287,7.8287,7.8287,7.8287,7.8287,7.8307,7.8786,7.8982,7.901,7.9478,7.9686,7.9678,7.9463,7.9383,7.9386,7.9386,7.9119,7.8669,7.8557,7.8211,7.7789,7.7792,7.7789,7.7785,7.7785,7.7816,7.7783,7.7787,7.7787,7.7789,7.7792,7.7792,7.7785,7.7785,7.8605,7.9343,7.9221,7.9181,7.8974,7.8154,7.7297,7.6438,7.5655,7.4938,7.4499,7.4502,7.4593,7.4836,7.5248,7.5293,7.546,7.5936,7.5568,7.5125,7.4727,7.4689,7.4846,7.5244,7.5293,7.5498,7.5967,7.6007,7.5973,7.6015,7.6015,7.6015,7.6015,7.6015,7.6013,7.5971,7.5524,7.5532,7.5998,7.5512,7.5539,6.59,6.6479,6.7249,6.7856,6.9473,7.1206,7.2434,7.3164,7.3972,7.532,7.6324,7.6749,7.6092,7.6709,0.0,0.0,0.0,0.0,0.0,0.0,0.0,0.0,0.0,0.0,0.0,0.0,0.0,0.0,0.0,0.0,0.0,0.0,0.0,0.0,7.8287,7.8287,7.8287,7.8287,7.8287,7.8287,7.8287,7.8287,7.8294,7.8428,7.8444,7.8312,7.8451,7.8486,7.8513,7.8795,7.9057,7.925,7.9201,7.8943,7.8539,7.8477,7.8153,7.7794,7.7815,7.7809,7.7787,7.7787,7.7814,7.7785,7.7809,7.7813,7.7802,7.7796,7.7807,7.7787,7.7665,7.7909,7.8156,7.82,7.82,7.7953,7.7079,7.6295,7.5503,7.4569,7.4092,7.3788,7.3504,7.406,7.4508,7.4269,7.4595,7.4903,7.4943,7.4814,7.4678,7.4436,7.4517,7.4597,7.4719,7.4745,7.4828,7.5074,7.5006,7.5254,7.5963,7.6015,7.6015,7.6015,7.6015,7.5828,7.551,7.5364,7.5235,7.5075,7.4954,7.5117,6.6287,6.6976,6.7898,6.9087,7.0664,7.2395,7.4088,7.4857,7.5474,7.6324,7.6672,7.6749,7.6557,7.6672,0.0,0.0,0.0,0.0,0.0,0.0,0.0,0.0,0.0,0.0,0.0,0.0,0.0,0.0,0.0,0.0,0.0,0.0,0.0,0.0,7.8287,7.8287,7.8287,7.8228,7.8193,7.8193,7.8193,7.8161,7.8108,7.8231,7.82,7.8011,7.7946,7.7889,7.7863,7.8217,7.8432,7.8565,7.8521,7.8366,7.8147,7.7993,7.7802,7.759,7.7606,7.7615,7.7613,7.7613,7.7613,7.7611,7.7605,7.7607,7.7616,7.7603,7.7595,7.7573,7.7492,7.7488,7.7492,7.7573,7.7362,7.6868,7.5991,7.5257,7.4443,7.3529,7.328,7.3152,7.2902,7.3454,7.3862,7.3723,7.4208,7.4448,7.4168,7.4128,7.4034,7.3825,7.3869,7.3963,7.4144,7.412,7.4278,7.4532,7.4506,7.4776,7.5385,7.5451,7.5462,7.5462,7.5462,7.5354,7.5046,7.4883,7.4758,7.4705,7.4491,7.4647,6.6864,6.7742,6.8816,7.0475,7.228,7.4046,7.563,7.6053,7.6324,7.7019,7.6595,7.6324,7.7057,7.6571,0.0,0.0,0.0,0.0,0.0,0.0,0.0,0.0,0.0,0.0,0.0,0.0,0.0,0.0,0.0,0.0,0.0,0.0,0.0,0.0,7.8252,7.8252,7.8269,7.8075,7.7993,0.0,7.7993,7.7918,7.7828,7.8133,7.8175,7.7964,7.782,7.7703,7.7565,7.7729,7.7699,7.7554,7.7554,7.7554,7.7535,7.7379,7.7285,7.7285,7.7285,7.7285,7.7285,7.7285,7.7285,7.7285,7.7285,7.7285,7.7285,7.7285,7.7285,7.7285,7.7285,7.7285,7.7281,7.72,7.6617,7.5877,7.5084,7.4287,7.3448,7.2657,7.2613,7.2697,7.2697,7.2825,7.3098,7.3477,7.3923,7.4007,7.3593,7.3505,7.3364,7.299,7.2987,7.3134,7.3473,7.3512,7.3704,7.4145,7.4289,7.4342,7.4369,7.4573,7.4685,7.471,7.471,7.469,7.4651,7.4193,7.4182,7.4582,7.4155,7.4174,6.6864,6.7742,6.8816,7.0475,7.2705,7.4703,7.5745,7.6517,7.6863,7.6363,7.6672,7.6865,7.6363,7.6387,0.0,0.0,0.0,0.0,0.0,0.0,0.0,0.0,0.0,0.0,0.0,0.0,0.0,0.0,0.0,0.0,0.0,0.0,0.0,7.806,7.7946,7.7943,7.8064,7.791,7.7831,0.0,7.7831,7.7813,7.7824,7.7979,7.7914,7.7681,7.7643,7.7531,7.7391,7.7561,7.7527,7.7375,7.7375,7.7375,7.7372,7.7337,7.7285,7.7285,7.7285,7.7285,7.7285,7.7285,7.7285,7.7285,7.7285,7.7285,7.7285,7.7285,7.7285,7.7285,7.7285,7.7285,7.7156,7.6492,7.6238,7.588,7.5062,7.4253,7.3448,7.2657,7.2532,7.2532,7.2532,7.2657,7.2868,7.3084,7.3193,7.319,7.2941,7.2904,7.2822,7.2617,7.2697,7.2795,7.289,7.2897,7.3009,7.3247,7.3159,7.3204,7.3482,7.4287,7.4706,7.4705,7.471,7.4502,7.4135,7.4067,7.3906,7.3694,7.3578,7.3732,6.7398,6.8048,6.9008,7.151,7.3741,7.5551,7.6438,7.6632,7.6672,7.6632,7.698,7.7089,7.6391,0.0,0.0,0.0,0.0,0.0,0.0,0.0,0.0,0.0,0.0,0.0,0.0,0.0,0.0,0.0,0.0,0.0,0.0,7.7817,7.7816,7.79,7.7824,7.782,7.79,7.7784,7.7699,7.7699,7.7699,7.7699,7.7706,7.7791,7.7736,7.7572,7.749,7.7406,7.7329,7.7417,7.7402,7.7285,7.7285,7.7285,7.7285,7.7285,7.7285,7.7285,7.7285,7.7285,7.7285,7.7285,7.7285,7.7285,7.7285,7.7285,7.7285,7.7285,7.7285,7.7285,7.7285,7.6994,7.6617,7.6201,7.5821,7.5322,7.4514,7.3694,7.299,7.2576,7.2492,7.2492,7.2492,7.2573,7.2653,7.2741,7.2741,7.2738,7.2617,7.2613,7.2576,7.2492,7.2573,7.2613,7.2613,7.2613,7.2657,7.2741,7.2738,7.2767,7.2955,7.3563,7.3909,7.3986,7.3936,7.3775,7.3535,7.3597,7.3518,7.3318,7.3356,7.3502,6.7931,6.8814,7.0007,7.297,7.4857,7.6245,7.7096,7.6749,7.644,7.7134,7.7174,7.6922,7.6462,0.0,0.0,0.0,0.0,0.0,0.0,0.0,0.0,0.0,0.0,0.0,0.0,0.0,0.0,0.0,0.0,0.0,7.7736,7.7695,7.7747,7.7776,7.7747,7.7747,7.7776,7.7614,7.7535,7.7535,7.7535,7.7535,7.7535,7.7535,7.7535,7.7527,7.7383,7.7285,7.7285,7.7285,7.7285,7.7285,7.7285,7.7285,7.7285,7.7285,7.7285,7.7285,7.7285,7.7285,7.7285,7.7285,7.7285,7.7285,7.7285,7.7285,7.7285,7.7285,7.7285,7.7281,7.7115,7.6614,7.601,7.5751,7.5189,7.4501,7.3824,7.3071,7.2492,7.2492,7.2492,7.2492,7.2492,7.2492,7.2492,7.2492,7.2492,7.2492,7.2492,7.2492,7.2492,7.2492,7.2492,7.2492,7.2492,7.2492,7.2492,7.2492,7.2613,7.2697,7.2697,7.2825,7.2979,7.3118,7.3037,7.2992,7.2992,7.3105,7.3162,7.3165,7.3292,7.3327,6.7931,7.0545,7.3084,7.424,7.528,7.6245,7.7096,7.7211,7.7172,7.7288,7.6709,7.6033,0.0,0.0,0.0,0.0,0.0,0.0,0.0,0.0,0.0,0.0,0.0,0.0,0.0,0.0,0.0,0.0,0.0,0.0,7.7398,7.7354,7.7455,7.7606,7.7467,7.7459,7.7647,7.744,7.7352,7.7352,7.7352,7.7352,7.7352,7.7352,7.7352,7.7352,7.7293,7.7285,7.7285,7.7285,7.7285,7.7285,7.7285,7.7285,7.7285,7.7285,7.7285,7.7285,7.7285,7.7285,7.7285,7.7285,7.7285,7.7285,7.7285,7.7285,7.7285,7.7285,7.7285,7.7156,7.6448,7.6197,7.5751,7.4349,7.3941,7.3831,7.3724,7.3071,7.2492,7.2492,7.2492,7.2492,7.2492,7.2492,7.2492,7.2492,7.2492,7.2492,7.2492,7.2492,7.2492,7.2492,7.2492,7.2492,7.2492,7.2492,7.2492,7.2492,7.2532,7.2576,7.2697,7.2612,7.2621,7.2765,7.293,7.2992,7.2992,7.3009,7.302,7.302,7.304,7.3115,6.7931,7.0891,7.3586,7.3932,7.5011,7.6363,7.7674,7.7249,7.6774,7.7473,7.6546,7.5478,0.0,0.0,0.0,0.0,0.0,0.0,0.0,0.0,0.0,0.0,0.0,0.0,0.0,0.0,0.0,0.0,0.0,7.7402,7.7285,7.7285,7.7352,7.7433,7.736,7.7356,7.7433,7.7356,7.7285,7.7285,7.7285,7.7285,7.7285,7.7285,7.7285,7.7285,7.7285,7.7285,7.7285,7.7285,7.7285,7.7285,7.7285,7.7285,7.7285,7.7285,7.7285,7.7285,7.7285,7.7285,7.7285,7.7285,7.7285,7.7285,7.7285,7.7285,7.7285,7.7285,7.699,7.6533,7.6197,7.5427,7.4577,7.3856,7.3364,7.3031,7.3031,7.2741,7.2492,7.2492,7.2492,7.2492,7.2492,7.2492,7.2492,7.2492,7.2492,7.2492,7.2492,7.2492,7.2492,7.2492,7.2492,7.2492,7.2492,7.2492,7.2492,7.2492,7.2492,7.2532,7.2576,7.2532,7.2521,7.2585,7.266,7.2735,7.2735,7.2816,7.2817,7.2817,7.2951,7.3023,6.8585,7.1239,7.3546,7.374,7.4895,7.6341,7.7725,7.6961,7.6285,0.0,7.6204,7.4999,0.0,0.0,0.0,0.0,0.0,0.0,0.0,0.0,0.0,0.0,0.0,0.0,0.0,0.0,0.0,0.0,0.0,7.7285,7.7285,7.7285,7.7285,7.7285,7.7285,7.7285,7.7285,7.7285,7.7285,7.7285,7.7285,7.7285,7.7285,7.7285,7.7285,7.7285,7.7285,7.7285,7.7285,7.7285,7.7285,7.7285,7.7285,7.7285,7.7285,7.7285,7.7285,7.7285,7.7285,7.7285,7.7285,7.7285,7.7285,7.7285,7.7285,7.7156,7.699,7.699,7.6407,7.5764,7.5547,7.4614,7.3654,7.3445,7.2946,7.2492,7.2492,7.2492,7.2492,7.2492,7.2492,7.2492,7.2492,7.2492,7.2492,7.2492,7.2492,7.2492,7.2492,7.2492,7.2492,7.2492,7.2492,7.2492,7.2492,7.2492,7.2492,7.2492,7.2492,7.2492,7.2492,7.2492,7.2492,7.2492,7.2492,7.2492,7.2492,7.2599,7.2653,7.2656,7.2783,7.2896,7.032,7.2128,7.3661,7.4432,7.5319,7.6129,7.6578,7.6334,7.603,7.6076,7.5362,7.4538,0.0,0.0,0.0,0.0,0.0,0.0,0.0,0.0,0.0,0.0,0.0,0.0,0.0,0.0,0.0,0.0,0.0,7.7285,7.7285,7.7285,7.7285,7.7285,7.7285,7.7285,7.7285,7.7285,7.7285,7.7285,7.7285,7.7285,7.7285,7.7285,7.7285,7.7285,7.7285,7.7285,7.7285,7.7285,7.7285,7.7285,7.7285,7.7285,7.7285,7.7285,7.7285,7.7285,7.7285,7.7285,7.7285,7.7285,7.7285,7.7285,7.7285,7.6779,7.6157,7.6157,7.5575,7.4795,7.4012,7.3761,7.3526,7.2741,7.2532,7.2492,7.2492,7.2492,7.2492,7.2492,7.2492,7.2492,7.2492,7.2492,7.2492,7.2492,7.2492,7.2492,7.2492,7.2492,7.2492,7.2492,7.2492,7.2492,7.2492,7.2492,7.2492,7.2492,7.2492,7.2492,7.2492,7.2492,7.2492,7.2492,7.2492,7.2492,7.2492,7.2499,7.2503,7.2503,7.2514,7.2589,6.9973,7.178,7.3584,7.3853,7.4741,7.5801,7.6827,7.6057,7.5304,7.5861,7.5003,7.3963,0.0,0.0,0.0,0.0,0.0,0.0,0.0,0.0,0.0,0.0,0.0,0.0,0.0,0.0,0.0,0.0,0.0,0.0,7.7285,7.7285,7.7285,7.7285,7.7285,7.7285,7.7285,7.7285,7.7285,7.7285,7.7285,7.7285,7.7285,7.7285,7.7285,7.7285,7.7285,7.7285,7.7285,7.7285,7.7285,7.7285,7.7285,7.7285,7.7285,7.7285,7.7285,7.7285,7.7285,7.7285,7.7285,7.7285,7.7285,7.7196,7.6698,7.6326,7.6008,7.5463,7.475,7.4074,7.3779,7.332,7.2866,7.2573,7.2492,7.2492,7.2492,7.2492,7.2492,7.2492,7.2492,7.2492,7.2492,7.2492,7.2492,7.2492,7.2492,7.2492,7.2492,7.2492,7.2492,7.2492,7.2492,7.2492,7.2492,7.2492,7.2492,7.2492,7.2492,7.2492,7.2492,7.2492,7.2492,7.2492,7.2492,7.2492,7.2492,7.2492,7.2492,7.2492,7.2492,7.2521,7.0014,7.1551,7.3126,7.3432,7.4309,7.5337,7.6226,7.5632,7.4957,7.5091,7.4411,7.3653,0.0,0.0,0.0,0.0,0.0,0.0,0.0,0.0,0.0,0.0,0.0,0.0,0.0,0.0,0.0,0.0,0.0,0.0,7.7285,7.7285,7.7285,7.7285,7.7285,7.7285,7.7285,7.7285,7.7285,7.7285,7.7285,7.7285,7.7285,7.7285,7.7285,7.7285,7.7285,7.7285,7.7285,7.7285,7.7285,7.7285,7.7285,7.7285,7.7285,7.7285,7.7285,7.7285,7.7285,7.7285,7.7285,7.7285,7.7115,7.6783,7.6241,7.57,7.518,7.4643,7.3916,7.3283,7.3283,7.2906,7.2492,7.2492,7.2492,7.2492,7.2492,7.2492,7.2492,7.2492,7.2492,7.2492,7.2492,7.2492,7.2492,7.2492,7.2492,7.2492,7.2492,7.2492,7.2492,7.2492,7.2492,7.2492,7.2492,7.2492,7.2492,7.2492,7.2492,7.2492,7.2492,7.2492,7.2492,7.2492,7.2492,7.2492,7.2492,7.2492,7.2492,7.2492,7.2492,7.2345,0.0,0.0,0.0,7.3278,7.4117,7.4678,7.4723,7.4983,7.4909,7.3653,7.3613,7.3625,7.3074,0.0,0.0,0.0,0.0,0.0,0.0,0.0,0.0,0.0,0.0,0.0,0.0,0.0,0.0,0.0,0.0,7.7285,7.7285,7.7285,7.7285,7.7285,7.7285,7.7285,7.7285,7.7285,7.7285,7.7285,7.7285,7.7285,7.7285,7.7285,7.7285,7.7285,7.7285,7.7285,7.7285,7.7285,7.7285,7.7285,7.7285,7.7285,7.7285,7.7285,7.7285,7.7285,7.7285,7.7285,7.7244,7.7244,7.6706,7.6047,7.6043,7.4957,7.3704,7.3671,7.3115,7.2492,7.2492,7.2492,7.2492,7.2492,7.2492,7.2492,7.2492,7.2492,7.2492,7.2492,7.2492,7.2492,7.2492,7.2492,7.2492,7.2492,7.2492,7.2492,7.2492,7.2492,7.2492,7.2492,7.2492,7.2492,7.2492,7.2492,7.2492,7.2492,7.2492,7.2492,7.2492,7.2492,7.2492,7.2492,7.2492,7.2492,7.2492,7.2492,7.2492,7.2492,7.2492,7.2011,7.0821,0.0,0.0,0.0,0.0,0.0,7.501,7.4642,7.412,7.3743,7.3313,7.2976,7.2811,7.2653,0.0,0.0,0.0,0.0,0.0,0.0,0.0,0.0,0.0,0.0,0.0,0.0,0.0,0.0,7.6959,7.7285,7.7285,7.7285,7.7285,7.7285,7.7285,7.7285,7.7285,7.7285,7.7285,7.7285,7.7285,7.7285,7.7285,7.7285,7.7285,7.7285,7.7285,7.7285,7.7285,7.7285,7.7285,7.7285,7.7285,7.7285,7.7285,7.7285,7.7285,7.7285,7.7285,7.6922,7.6416,7.6416,7.5879,7.5108,7.4527,7.4064,7.3595,7.301,7.2684,7.2492,7.2492,7.2492,7.2492,7.2492,7.2492,7.2492,7.2492,7.2492,7.2492,7.2492,7.2492,7.2492,7.2492,7.2492,7.2492,7.2492,7.2492,7.2492,7.2492,7.2492,7.2492,7.2492,7.2492,7.2492,7.2492,7.2492,7.2492,7.2492,7.2492,7.2492,7.2492,7.2492,7.2492,7.2492,7.2492,7.2492,7.2492,7.2492,7.2492,7.2492,7.1898,7.0907,7.0898,7.1285,7.1939,7.3201,0.0,0.0,7.4782,7.4528,7.3955,0.0,7.3078,7.2706,7.2706,7.2589,7.2492,0.0,0.0,0.0,0.0,0.0,0.0,0.0,0.0,0.0,0.0,0.0,0.0,7.5612,7.6338,7.6959,7.7285,7.7285,7.7285,7.7285,7.7285,7.7285,7.7285,7.7285,7.7285,7.7285,7.7285,7.7285,7.7285,7.7285,7.7285,7.7285,7.7285,7.7285,7.7285,7.7285,7.7285,7.7285,7.7285,7.7285,7.7285,7.7285,7.7105,7.6816,7.6816,7.6265,7.5612,7.5612,7.5064,7.4323,7.3827,7.3476,7.3113,7.2621,7.2492,7.2492,7.2492,7.2492,7.2492,7.2492,7.2492,7.2492,7.2492,7.2492,7.2492,7.2492,7.2492,7.2492,7.2492,7.2492,7.2492,7.2492,7.2492,7.2492,7.2492,7.2492,7.2492,7.2492,7.2492,7.2492,7.2492,7.2492,7.2492,7.2492,7.2492,7.2492,7.2492,7.2492,7.2492,7.2492,7.2492,7.2492,7.2492,7.2492,7.2345,7.1971,7.1167,7.0103,7.0898,7.0898,7.1321,0.0,7.3507,0.0,7.4351,7.4494,7.4185,0.0,7.2847,7.2681,7.2681,7.2578,7.2492,7.2492,0.0,0.0,0.0,0.0,0.0,0.0,0.0,0.0,0.0,7.4291,7.4764,7.4764,7.5575,7.6416,7.7138,7.7248,7.7285,7.7285,7.7285,7.7285,7.7285,7.7285,7.7285,7.7285,7.7285,7.7285,7.7285,7.7285,7.7285,7.7285,7.7285,7.7285,7.7285,7.7285,7.7285,7.7285,7.7285,7.7248,7.7179,7.7179,7.6669,7.5979,7.5979,7.5425,7.476,7.4757,7.422,7.3571,7.3571,7.308,7.2492,7.2492,7.2492,7.2492,7.2492,7.2492,7.2492,7.2492,7.2492,7.2492,7.2492,7.2492,7.2492,7.2492,7.2492,7.2492,7.2492,7.2492,7.2492,7.2492,7.2492,7.2492,7.2492,7.2492,7.2492,7.2492,7.2492,7.2492,7.2492,7.2492,7.2492,7.2492,7.2492,7.2492,7.2492,7.2492,7.2492,7.2492,7.2492,7.2455,7.2378,7.2378,7.1938,7.116,7.0326,6.9522,0.0,0.0,0.0,0.0,0.0,0.0,7.449,7.4499,7.4089,0.0,7.2734,7.2535,7.2535,7.251,7.2492,7.2492,7.2492,0.0,0.0,0.0,0.0,0.0,0.0,0.0,0.0,7.3454,7.3931,7.3931,7.5285,7.6163,7.6346,7.6959,7.7285,7.7285,7.7285,7.7285,7.7285,7.7285,7.7285,7.7285,7.7285,7.7285,7.7285,7.7285,7.7285,7.7285,7.7285,7.7285,7.7285,7.7285,7.7285,7.7285,7.7285,7.6885,7.6342,7.6342,7.5828,7.5127,7.5127,7.4621,7.3924,7.3927,7.3373,7.2716,7.2716,7.2624,7.2492,7.2492,7.2492,7.2492,7.2492,7.2492,7.2492,7.2492,7.2492,7.2492,7.2492,7.2492,7.2492,7.2492,7.2492,7.2492,7.2492,7.2492,7.2492,7.2492,7.2492,7.2492,7.2492,7.2492,7.2492,7.2492,7.2492,7.2492,7.2492,7.2492,7.2492,7.2492,7.2492,7.2492,7.2492,7.2492,7.2492,7.2492,7.2492,7.2195,7.1527,7.1527,7.113,7.0293,6.9519,6.8715,0.0,0.0,0.0,7.354,0.0,0.0,0.0,7.4583,7.4077,7.3351,7.2829,7.2492,7.2492,7.2492,7.2492,7.2492,7.2492,7.2492,0.0,0.0,0.0,0.0,0.0,0.0,0.0,7.2863,7.327,7.3678,7.4448,7.5069,7.5461,7.6265,7.6705,7.6705,7.7105,7.7285,7.7285,7.7285,7.7285,7.7285,7.7285,7.7285,7.7285,7.7285,7.7285,7.7285,7.7285,7.7065,7.6705,7.6705,7.6485,7.6151,7.6555,7.6192,7.5498,7.5498,7.4988,7.4291,7.4291,7.378,7.3083,7.3094,7.2845,7.2492,7.2492,7.2492,7.2492,7.2492,7.2492,7.2492,7.2492,7.2492,7.2492,7.2492,7.2492,7.2492,7.2492,7.2492,7.2492,7.2492,7.2492,7.2492,7.2492,7.2492,7.2492,7.2492,7.2492,7.2492,7.2492,7.2492,7.2492,7.2492,7.2492,7.2492,7.2492,7.2492,7.2492,7.2492,7.2492,7.2492,7.2492,7.2492,7.2492,7.2492,7.2492,7.2092,7.1302,7.0884,7.0286,6.9482,6.9079,6.8458,0.0,0.0,0.0,0.0,0.0,7.4435,0.0,0.0,0.0,7.3376,7.2868,7.2492,7.2492,0.0,0.0,0.0,0.0,0.0,0.0,0.0,0.0,0.0,0.0,0.0,0.0,7.2492,7.2789,7.3417,7.3604,7.3968,7.4617,7.5428,7.5873,7.5873,7.6665,7.7069,7.7069,7.7212,7.7285,7.7285,7.7285,7.7285,7.7285,7.7285,7.7285,7.7281,7.7142,7.6705,7.6093,7.5946,7.5388,7.4764,7.5539,7.5392,7.4654,7.4654,7.4144,7.3457,7.3457,7.3046,7.2492,7.2492,7.2492,7.2492,7.2492,7.2492,7.2492,7.2492,7.2492,7.2492,7.2492,7.2492,7.2492,7.2492,7.2492,7.2492,7.2492,7.2492,7.2492,7.2492,7.2492,7.2492,7.2492,7.2492,7.2492,7.2492,7.2492,7.2492,7.2492,7.2492,7.2492,7.2492,7.2492,7.2492,7.2492,7.2492,7.2492,7.2492,7.2492,7.2492,7.2492,7.2492,7.2492,7.2492,7.2492,7.2026,7.1085,7.0414,6.9706,6.8892,6.8748,6.8314,0.0,0.0,0.0,0.0,7.346,0.0,0.0,0.0,7.3353,7.2868,0.0,0.0,0.0,0.0,0.0,0.0,0.0,0.0,7.055,7.1615,7.2492,0.0,0.0,0.0,0.0,0.0,7.2529,7.2642,7.3307,7.3751,7.3824,7.4581,7.5054,7.5054,7.5832,7.6236,7.6236,7.6922,7.7285,7.7285,7.7285,7.7285,7.7285,7.7285,7.7285,7.7248,7.6562,7.6163,7.6056,7.5315,7.4548,7.3931,7.4727,7.4544,7.3821,7.3821,7.3344,7.2639,7.2639,7.2565,7.2492,7.2492,7.2492,7.2492,7.2492,7.2492,7.2492,7.2492,7.2492,7.2492,7.2492,7.2492,7.2492,7.2492,7.2492,7.2492,7.2492,7.2492,7.2492,7.2492,7.2492,7.2492,7.2492,7.2492,7.2492,7.2492,7.2492,7.2492,7.2492,7.2492,7.2492,7.2492,7.2492,7.2492,7.2492,7.2492,7.2492,7.2492,7.2492,7.2492,7.2492,7.2492,7.2492,7.2492,7.2492,7.1733,7.0253,7.0122,6.9706,6.8892,6.8168,6.7807,0.0,0.0,0.0,0.0,0.0,0.0,7.3986,0.0,7.3334,0.0,0.0,0.0,0.0,0.0,0.0,0.0,7.2055,0.0,0.0,0.0,7.2492,0.0,0.0,0.0,0.0,0.0,0.0,0.0,0.0,7.301,7.301,7.378,7.4184,7.4184,7.4984,7.5388,7.5388,7.5747,7.5894,7.5894,7.5894,7.5894,7.5894,7.5894,7.5894,7.5894,7.5531,7.5135,7.4665,7.4331,7.3744,7.3046,7.3373,7.33,7.301,7.301,7.2786,7.2492,7.2492,7.2492,7.2492,7.2492,7.2492,7.2492,7.2492,7.2492,7.2492,7.2492,7.2492,7.2492,7.2492,7.2492,7.2492,7.2492,7.2492,7.2492,7.2492,7.2492,7.2492,7.2492,7.2492,7.2492,7.2492,7.2492,7.2492,7.2492,7.2492,7.2492,7.2492,7.2492,7.2492,7.2492,7.2492,7.2492,7.2492,7.2492,7.2492,7.2492,7.2492,7.2492,7.2492,7.2492,7.2297,7.1806,7.1808,7.1026,6.939,6.9393,6.8972,6.8204,6.7844,6.77,7.3358,0.0,0.0,0.0,0.0,0.0,0.0,0.0,0.0,0.0,0.0,0.0,0.0,0.0,0.0,0.0,0.0,7.2345,0.0,0.0,0.0,0.0,0.0,0.0,0.0,0.0,0.0,7.2492,7.2492,7.2492,7.2492,7.305,7.338,7.338,7.4144,7.4581,7.4581,7.4801,7.4907,7.4907,7.4907,7.4907,7.4907,7.4907,7.4907,7.4907,7.4654,7.4258,7.3678,7.3457,7.3046,7.2492,7.2492,7.2492,7.2492,7.2492,7.2492,7.2492,7.2492,7.2492,7.2492,7.2492,7.2492,7.2492,7.2492,7.2492,7.2492,7.2492,7.2492,7.2492,7.2492,7.2492,7.2492,7.2492,7.2492,7.2492,7.2492,7.2492,7.2492,7.2492,7.2492,7.2492,7.2492,7.2492,7.2492,7.2492,7.2492,7.2492,7.2492,7.2492,7.2492,7.2492,7.2492,7.2492,7.2492,7.2492,7.2492,7.2492,7.2492,7.2492,7.2492,7.2297,7.1906,7.1314,7.1082,7.0277,6.8904,6.8906,6.8495,6.77,6.77,6.77,0.0,0.0,0.0,7.3322,0.0,0.0,0.0,0.0,7.2532,0.0,0.0,0.0,0.0,0.0,0.0,0.0,0.0,0.0,0.0,0.0,0.0,0.0,0.0,0.0,0.0,0.0,0.0,7.2492,7.2492,7.2492,7.2492,7.2529,7.2529,7.2529,7.3307,7.3751,7.3751,7.4507,7.4907,7.4907,7.4907,7.4907,7.4907,7.4907,7.4907,7.487,7.4074,7.3714,7.3641,7.2863,7.2529,7.2492,7.2492,7.2492,7.2492,7.2492,7.2492,7.2492,7.2492,7.2492,7.2492,7.2492,7.2492,7.2492,7.2492,7.2492,7.2492,7.2492,7.2492,7.2492,7.2492,7.2492,7.2492,7.2492,7.2492,7.2492,7.2492,7.2492,7.2492,7.2492,7.2492,7.2492,7.2492,7.2492,7.2492,7.2492,7.2492,7.2492,7.2492,7.2492,7.2492,7.2492,7.2492,7.2492,7.2492,7.2492,7.2492,7.2492,7.2492,7.2492,7.2492,7.174,7.1314,7.1318,7.0555,6.9713,6.8904,6.8906,6.8495,6.77,6.77,6.77,0.0,0.0,7.2818,7.2761,0.0,0.0,0.0,0.0,0.0,0.0,0.0,0.0,0.0,0.0,0.0,0.0,0.0,0.0,0.0,0.0,0.0,0.0,0.0,0.0,0.0,0.0,0.0,7.2492,7.2492,7.2492,0.0,7.2492,7.2492,7.2492,7.2749,7.2899,7.2899,7.3189,7.3296,7.3296,7.3296,7.3296,7.3296,7.3296,7.3296,7.3296,7.301,7.2899,7.2899,7.2602,7.2492,7.2492,7.2492,7.2492,7.2492,7.2492,7.2492,7.2492,7.2492,7.2492,7.2492,7.2492,7.2492,7.2492,7.2492,7.2492,7.2492,7.2492,7.2492,7.2492,7.2492,7.2492,7.2492,7.2492,7.2492,7.2492,7.2492,7.2492,7.2492,7.2492,7.2492,7.2492,7.2492,7.2492,7.2492,7.2492,7.2492,7.2492,7.2492,7.2492,7.2492,7.2492,7.2492,7.2492,7.2492,7.2492,7.2492,7.2492,7.2492,7.2246,7.172,7.1454,7.0804,6.9714,6.9447,6.8899,6.8115,6.8118,6.7954,6.77,6.77,6.77,7.2492,7.2492,0.0,0.0,7.2492,0.0,7.2492,0.0,0.0,0.0,0.0,0.0,0.0,0.0,0.0,0.0,0.0,0.0,0.0,7.2492,0.0,0.0,0.0,0.0,0.0,0.0,7.2492,7.2492,7.2492,7.2492,0.0,0.0,7.2492,7.2492,7.2492,7.2492,7.2492,7.2492,7.2492,7.2492,7.2492,7.2492,7.2492,7.2492,7.2492,7.2492,7.2492,7.2492,7.2492,7.2492,7.2492,7.2492,7.2492,7.2492,7.2492,7.2492,7.2492,7.2492,7.2492,7.2492,7.2492,7.2492,7.2492,7.2492,7.2492,7.2492,7.2492,7.2492,7.2492,7.2492,7.2492,7.2492,7.2492,7.2492,7.2492,7.2492,7.2492,7.2492,7.2492,7.2492,7.2492,7.2492,7.2492,7.2492,7.2492,7.2492,7.2492,7.2492,7.2492,7.2492,7.2492,7.2492,7.2492,7.2492,7.2492,7.2492,7.2492,7.2492,7.2246,7.1823,7.133,7.0732,6.9944,6.8928,6.8605,6.8204,6.77,6.77,6.77,6.77,6.77,6.77]},{"header":{"parameterUnit":"m.s-1","parameterCategory":1,"la1":30.6,"la2":29.2853,"lo1":-89.7004,"lo2":-87.6739,"dy":0.0162,"dx":0.0183,"nx":112,"ny":82,"refTime":"2023-11-22T18:00:00:Z","depth":0,"parameterNumber":3,"parameterNumberName":"V-component_of_WINDS"},"data":[0.0,0.0,0.0,0.0,0.0,0.0,0.0,0.0,0.0,0.0,0.0,0.0,0.0,0.0,0.0,0.0,0.0,0.0,0.0,0.0,0.0,0.0,0.0,0.0,0.0,0.0,0.0,0.0,0.0,0.0,0.0,0.0,0.0,0.0,0.0,0.0,0.0,0.0,0.0,0.0,0.0,0.0,0.0,0.0,0.0,0.0,0.0,0.0,0.0,0.0,0.0,0.0,0.0,0.0,0.0,0.0,0.0,0.0,0.0,0.0,0.0,0.0,0.0,0.0,0.0,0.0,0.0,0.0,0.0,0.0,0.0,0.0,0.0,0.0,0.0,0.0,0.0,0.0,0.0,0.0,0.0,0.0,0.0,0.0,0.0,0.0,0.0,0.0,0.0,0.0,0.0,0.0,0.0,0.0,0.0,0.0,0.0,0.0,0.0,0.0,0.0,0.0,0.0,0.0,0.0,0.0,0.0,0.0,0.0,0.0,0.0,0.0,0.0,0.0,0.0,0.0,0.0,0.0,0.0,0.0,0.0,0.0,0.0,0.0,0.0,0.0,0.0,0.0,0.0,0.0,0.0,0.0,0.0,0.0,0.0,0.0,0.0,0.0,0.0,0.0,0.0,0.0,0.0,0.0,0.0,0.0,0.0,0.0,0.0,0.0,0.0,0.0,0.0,0.0,0.0,0.0,0.0,0.0,0.0,0.0,0.0,0.0,0.0,0.0,0.0,0.0,0.0,0.0,0.0,0.0,0.0,0.0,0.0,0.0,0.0,0.0,0.0,0.0,0.0,0.0,0.0,0.0,0.0,0.0,0.0,0.0,0.0,0.0,0.0,0.0,0.0,0.0,0.0,0.0,0.0,0.0,0.0,0.0,0.0,0.0,0.0,0.0,0.0,0.0,0.0,0.0,0.0,0.0,0.0,0.0,0.0,0.0,0.0,0.0,0.0,0.0,0.0,0.0,0.0,0.0,0.0,0.0,0.0,0.0,0.0,0.0,0.0,0.0,0.0,0.0,0.0,0.0,0.0,0.0,0.0,0.0,0.0,0.0,0.0,0.0,0.0,0.0,0.0,0.0,0.0,0.0,0.0,0.0,0.0,0.0,0.0,0.0,0.0,0.0,0.0,0.0,0.0,0.0,0.0,0.0,0.0,0.0,0.0,0.0,0.0,0.0,0.0,0.0,0.0,0.0,0.0,0.0,0.0,0.0,0.0,0.0,0.0,0.0,0.0,0.0,0.0,0.0,0.0,0.0,0.0,0.0,0.0,0.0,0.0,0.0,0.0,0.0,0.0,0.0,0.0,0.0,0.0,0.0,0.0,0.0,0.0,0.0,0.0,0.0,0.0,0.0,0.0,0.0,0.0,0.0,0.0,0.0,0.0,0.0,0.0,0.0,0.0,0.0,0.0,0.0,0.0,0.0,0.0,0.0,0.0,0.0,0.0,0.0,0.0,0.0,0.0,0.0,0.0,0.0,0.0,0.0,0.0,0.0,0.0,0.0,0.0,0.0,0.0,0.0,0.0,0.0,0.0,0.0,0.0,0.0,0.0,0.0,0.0,0.0,0.0,0.0,0.0,0.0,0.0,0.0,0.0,0.0,0.0,0.0,0.0,0.0,0.0,0.0,0.0,0.0,0.0,0.0,0.0,0.0,0.0,0.0,0.0,0.0,0.0,0.0,0.0,0.0,0.0,0.0,0.0,0.0,0.0,0.0,0.0,0.0,0.0,0.0,0.0,0.0,0.0,0.0,0.0,0.0,0.0,0.0,0.0,0.0,0.0,0.0,0.0,0.0,0.0,0.0,0.0,0.0,0.0,0.0,0.0,0.0,0.0,0.0,0.0,0.0,0.0,0.0,0.0,0.0,0.0,0.0,0.0,0.0,0.0,0.0,0.0,0.0,0.0,0.0,0.0,0.0,0.0,0.0,0.0,0.0,0.0,0.0,0.0,0.0,0.0,0.0,0.0,0.0,0.0,0.0,0.0,0.0,0.0,0.0,0.0,0.0,0.0,0.0,0.0,0.0,0.0,0.0,0.0,0.0,0.0,0.0,0.0,0.0,0.0,0.0,0.0,0.0,0.0,0.0,0.0,0.0,0.0,0.0,0.0,0.0,0.0,0.0,0.0,0.0,0.0,0.0,0.0,0.0,0.0,0.0,0.0,0.0,0.0,0.0,0.0,0.0,0.0,0.0,0.0,0.0,0.0,0.0,0.0,0.0,0.0,0.0,0.0,0.0,0.0,0.0,0.0,0.0,0.0,0.0,0.0,0.0,0.0,0.0,0.0,0.0,0.0,0.0,0.0,0.0,0.0,0.0,0.0,0.0,0.0,0.0,0.0,0.0,0.0,0.0,0.0,0.0,0.0,0.0,0.0,0.0,0.0,0.0,0.0,0.0,0.0,0.0,0.0,0.0,0.0,0.0,0.0,0.0,0.0,0.0,0.0,0.0,0.0,0.0,0.0,0.0,0.0,0.0,0.0,0.0,0.0,0.0,0.0,0.0,0.0,0.0,0.0,0.0,0.0,0.0,0.0,0.0,0.0,0.0,0.0,0.0,0.0,0.0,0.0,0.0,0.0,0.0,0.0,0.0,0.0,0.0,0.0,0.0,0.0,0.0,0.0,0.0,0.0,0.0,0.0,0.0,0.0,0.0,0.0,0.0,0.0,0.0,0.0,0.0,0.0,0.0,0.0,0.0,0.0,0.0,0.0,0.0,0.0,0.0,0.0,0.0,0.0,0.0,0.0,0.0,0.0,0.0,0.0,0.0,0.0,0.0,0.0,0.0,0.0,0.0,0.0,0.0,0.0,0.0,0.0,0.0,0.0,0.0,0.0,0.0,0.0,0.0,0.0,0.0,0.0,0.0,0.0,0.0,0.0,0.0,0.0,0.0,0.0,0.0,0.0,0.0,0.0,0.0,0.0,0.0,0.0,0.0,0.0,0.0,0.0,0.0,0.0,0.0,0.0,0.0,0.0,0.0,0.0,0.0,0.0,0.0,0.0,0.0,0.0,0.0,0.0,0.0,0.0,0.0,0.0,0.0,0.0,0.0,0.0,0.0,0.0,0.0,0.0,0.0,0.0,0.0,0.0,0.0,0.0,0.0,0.0,0.0,0.0,0.0,0.0,0.0,0.0,0.0,0.0,0.0,0.0,0.0,0.0,0.0,0.0,0.0,0.0,0.0,0.0,0.0,0.0,0.0,0.0,0.0,0.0,0.0,0.0,0.0,0.0,0.0,0.0,0.0,0.0,0.0,0.0,0.0,0.0,0.0,0.0,0.0,0.0,0.0,0.0,0.0,0.0,0.0,0.0,0.0,0.0,0.0,0.0,0.0,0.0,0.0,0.0,0.0,0.0,0.0,0.0,0.0,0.0,0.0,0.1503,0.2506,0.2506,0.1726,0.1241,0.1241,0.0,0.0,0.0,0.0,0.0,0.0,0.0,0.0,0.0,0.0,0.0,0.0,0.0,0.0,0.0,0.0,0.0,0.0,0.0,0.0,0.0,0.0,0.0,0.0,0.0,0.0,0.0,0.0,0.0,0.0,0.0,0.0,0.0,0.0,0.0,0.0,0.0,0.0,0.0,0.0,0.0,0.0,0.0,0.0,0.0,0.0,0.0,0.0,0.0,0.0,0.0,0.0,0.0,0.0,0.0,0.0,0.0,0.0,0.0,0.0,0.0,0.0,0.0,0.0,0.0,0.0,0.0,0.0,0.0,0.0,0.0,0.0,0.0,0.0,0.0,0.0,0.0,0.0,0.0,0.0,0.0,0.0,0.0,0.0,0.0,0.0,0.0,0.0,0.0,0.0,0.0,0.0,0.0,0.0,0.0,0.0,0.0,0.0,0.0,0.0,0.0,0.0,0.0085,0.0092,0.0092,0.0092,0.4777,0.7895,0.7895,0.5467,0.3945,0.0,0.0,0.0,0.0,0.0,0.0,0.0,0.0,0.0,0.0,0.0,0.0,0.0,0.0,0.0,0.0,0.0,0.0,0.0,0.0,0.0,0.0,0.0,0.0,0.0,0.0,0.0,0.0,0.0,0.0,0.0,0.0,0.0,0.0,0.0,0.0,0.0,0.0,0.0,0.0,0.0,0.0,0.0,0.0,0.0,0.0,0.0,0.0,0.0,0.0,0.0,0.0,0.0,0.0,0.0,0.0,0.0,0.0,0.0,0.0,0.0,0.0,0.0,0.0,0.0,0.0,0.0,0.0,0.0,0.0,0.0,0.0,0.0,0.0,0.0,0.0,0.0,0.0,0.0,0.0,0.0,0.0,0.0,0.0,0.0,0.0,0.0,0.0,0.0,0.0,0.0,0.0,0.0,0.0,0.0,0.0,0.0,0.0,0.0,0.0,0.0,0.0,0.0,0.509,0.5567,0.5567,0.5567,0.6966,0.7895,0.7895,0.7178,0.6725,0.6719,0.0,0.0,0.0,0.0,0.0,0.0,0.0,0.0,0.0,0.0,0.0,0.0,0.0,0.0,0.0,0.0,0.0,0.0,0.0,0.0,0.0,0.0,0.0,0.0,0.0,0.0,0.0,0.0,0.0,0.0,0.0,0.0,0.0,0.0,0.0,0.0,0.0,0.0,0.0,0.0,0.0,0.0,0.0,0.0,0.0,0.0,0.0,0.0,0.0,0.0,0.0,0.0,0.0,0.0,0.0,0.0,0.0,0.0,0.0,0.0,0.0,0.0,0.0,0.0,0.0,0.0,0.0,0.0,0.0,0.0,0.0,0.0,0.0,0.0,0.0,0.0,0.0,0.0,0.0,0.0,0.0,0.0,0.0,0.0,0.0,0.0,0.0,0.0,0.0,0.0,0.0,0.0,0.0,0.0,0.0,0.0,0.0,0.0,0.0,0.0,0.0,0.0,0.7221,0.7896,0.7903,0.7903,0.7901,0.8053,0.843,0.8263,0.8209,0.8366,0.0,0.0,0.0,0.0,0.0,0.0,0.0,0.0,0.0,0.0,0.0,0.0,0.0,0.0,0.0,0.0,0.0,0.0,0.0,0.0,0.0,0.0,0.0,0.0,0.0,0.0,0.0,0.0,0.0,0.0,0.0,0.0,0.0,0.0,0.0,0.0,0.0,0.0,0.0,0.0,0.0,0.0,0.0,0.0,0.0,0.0,0.0,0.0,0.0,0.0,0.0,0.0,0.0,0.0,0.0,0.0,0.0,0.0,0.0,0.0,0.0,0.0,0.0,0.0,0.0,0.0,0.0,0.0,0.0,0.0,0.0,0.0,0.0,0.0,0.0,0.0,0.0,0.0,0.0,0.0,0.0,0.0,0.0,0.0,0.0,0.0,0.0,0.0,0.0,0.0,0.0,0.0,0.0,0.0,0.0,0.0,0.0,0.0,0.0,0.0,0.0,0.0,0.7442,0.8077,0.8096,0.8151,0.8157,0.8501,0.9355,0.8937,0.8756,0.9062,0.0,0.0,0.0,0.0,0.0,0.0,0.0,0.0,0.0,0.0,0.0,0.0,0.0,0.0,0.0,0.0,0.0,0.0,0.0,0.0,0.0,0.0,0.0,0.0,0.0,0.0,0.0,0.0,0.0,0.0,0.0,0.0,0.0,0.0,0.0,0.0,0.0,0.0,0.0,0.0,0.0,0.0,0.0,0.0,0.0,0.0,0.0,0.0,0.0,0.0,0.0,0.0,0.0,0.0,0.0,0.0,0.0,0.0,0.0,0.0,0.7638,0.0,0.0,0.0,0.0,0.0,0.0,0.0,0.0,0.0,0.0,0.0,0.0,0.0,0.0,0.0,0.0,0.0,0.0,0.0,0.0,0.0,0.0,0.0,0.0,0.0,0.0,0.0,0.0,0.0,0.0,0.0,0.0,0.0,0.0,0.0,0.0,0.0,0.0,0.0,0.0,0.0,0.912,0.939,0.9577,1.005,1.0106,1.0181,1.0374,0.9856,0.9358,0.8965,0.8528,0.0,0.0,0.0,0.0,0.0,0.0,0.0,0.0,0.0,0.0,0.0,0.0,0.0,0.0,0.0,0.0,0.0,0.0,0.0,0.0,0.0,0.0,0.0,0.0,0.0,0.0,0.0,0.0,0.0,0.0,0.0,0.0,0.0,0.0,0.0,0.0,0.0,0.0,0.0,0.0,0.0,0.0,0.0,0.0,0.0,0.0,0.0,0.0,0.0,0.0,0.0,0.0,0.0,0.0,0.0,0.0,0.0,0.0,0.0,0.0,0.838,0.0,0.0,0.0,0.0,0.0,0.0,0.0,0.0,0.0,0.0,0.0,0.0,0.0,0.0,0.0,0.0,0.0,0.0,0.0,0.0,0.0,0.0,0.0,0.0,0.0,0.0,0.0,0.0,0.0,0.0,0.0,0.0,0.0,0.0,0.0,0.0,0.0,0.0,0.0,0.0,1.0032,1.0231,1.0094,0.9727,0.9686,0.9689,0.9691,1.0021,1.0101,0.9783,0.9649,0.0,0.0,0.0,0.0,0.0,0.0,0.0,0.0,0.0,0.0,0.0,0.0,0.0,0.0,0.0,0.0,0.0,0.0,0.0,0.0,0.0,0.0,0.0,0.0,0.0,0.0,0.0,0.0,0.0,0.0,0.0,0.0,0.0,0.0,0.0,0.0,0.0,0.0,0.0,0.0,0.0,0.0,0.0,0.0,0.0,0.0,0.0,0.0,0.0,0.0,0.0,0.0,0.0,0.0,0.8998,0.9052,0.9052,0.9181,0.9387,0.922,0.9112,0.9021,0.0,0.0,0.0,0.0,0.0,0.0,0.0,0.0,0.0,0.0,0.0,0.0,0.0,0.0,0.0,0.0,0.0,0.0,0.0,0.0,0.0,0.0,0.0,0.0,0.0,0.9804,0.9508,0.0,0.0,0.0,0.0,0.0,0.0,0.0,0.0,0.0,0.0,0.0,0.0,1.0496,1.0704,1.0256,0.9094,0.8964,0.8965,0.8967,1.0029,1.0701,1.0695,1.0393,1.0159,0.0,0.0,0.0,0.0,0.0,0.0,0.0,0.0,0.0,0.0,0.0,0.0,0.0,0.0,0.0,0.0,0.0,0.0,0.0,0.0,0.0,0.0,0.0,0.0,0.0,0.0,0.0,0.0,0.0,0.0,0.0,0.0,0.7903,0.7903,0.0,0.0,0.0,0.0,0.0,0.0,0.0,0.0,0.0,0.0,0.0,0.0,0.0,0.0,0.8575,0.8976,0.9205,0.9244,0.9244,0.9402,0.9679,0.9679,0.986,1.0151,1.0135,0.0,0.9674,0.9582,0.0,0.0,0.0,0.0,0.0,0.0,0.0,0.0,0.0,0.0,0.0,0.0,0.0,0.0,0.0,0.0,0.0,0.0,0.0,0.0,0.0,0.0,0.9806,0.9806,0.9799,0.9749,0.0,0.9547,0.9552,0.9552,0.0,0.0,0.0,0.0,0.0,0.0,0.0,0.0,1.0665,1.0698,1.063,1.044,1.0419,1.0423,1.0416,1.059,1.0697,1.0701,1.065,1.0396,0.9863,0.971,0.0,0.0,0.0,0.0,0.0,0.0,0.0,0.0,0.0,0.0,0.0,0.0,0.0,0.0,0.0,0.0,0.0,0.0,0.0,0.0,0.0,0.0,0.0,0.0,0.0,0.0,0.0,0.0,0.0,0.7903,0.7903,0.7903,0.7903,0.7903,0.0,0.0,0.0,0.0,0.0,0.0,0.0,0.0,0.0,0.8684,0.8886,0.9081,0.927,0.955,0.9825,1.0089,1.0157,1.0335,1.0588,1.0588,1.0672,1.0812,1.0812,1.0656,1.0389,0.9974,0.9471,0.8949,0.0,0.0,0.0,0.0,0.0,0.9135,0.9215,0.0,0.0,0.0,0.0,0.0,0.0,0.0,0.0,0.0,0.0,0.0,0.0,0.0,0.0,0.98,0.98,0.9798,0.9801,1.0071,1.0209,0.0,0.9348,0.8969,0.8968,0.0,0.0,0.0,0.0,0.0,1.0704,1.0995,1.1209,1.1208,1.1206,1.1212,1.1205,1.0892,1.0697,1.07,1.0695,1.0578,1.0324,1.0052,0.9747,0.0,0.0,0.0,0.0,0.0,0.0,0.0,0.0,0.0,0.0,0.0,0.0,0.0,0.0,0.0,0.0,0.0,0.0,0.0,0.0,0.0,0.0,0.0,0.0,0.0,0.0,0.0,0.0,0.7903,0.7903,0.7903,0.793,0.7946,0.0,0.0,0.0,0.0,0.0,0.0,0.8762,0.8907,0.911,0.939,0.9569,0.9789,1.0081,1.0298,1.0579,1.0931,1.1029,1.1161,1.1298,1.1298,1.1298,1.1298,1.1298,1.1219,1.1024,1.0326,0.9957,0.9829,0.9543,0.9379,0.0,0.9395,0.9427,0.9459,0.9635,0.9802,0.9928,0.9928,0.0,1.0082,0.9582,0.0,0.0,0.0,0.0,0.9837,0.9987,0.0,1.0029,1.003,1.0028,1.0032,1.003,1.0373,1.0564,0.0,1.0023,1.0026,1.0025,0.0,0.0,0.0,0.0,1.0928,1.0928,1.1322,1.1603,1.1601,1.1601,1.1605,1.1597,1.1193,1.0927,1.0932,1.0833,1.0767,1.0752,1.0374,1.0118,0.9998,0.0,0.0,0.0,0.0,0.0,0.0,0.0,0.0,0.0,0.0,0.0,0.0,0.0,0.0,0.0,0.0,0.0,0.0,0.0,0.0,0.0,0.0,0.0,0.0,0.0,0.0,0.0,0.0,0.0,0.7903,0.8014,0.0,0.0,0.0,0.0,0.8724,0.8762,0.8911,0.9247,0.939,0.9535,0.9674,1.0298,1.0707,1.0843,1.1288,1.1529,1.1545,1.1568,1.1574,1.1581,1.1581,1.1581,1.1581,1.1581,1.1565,1.152,1.0907,1.0387,0.9972,0.9829,0.9586,0.9339,0.9658,0.9777,0.9825,1.0149,1.0268,1.0268,1.0268,1.0323,1.0347,1.0119,1.0111,0.0,0.0,0.975,0.9931,1.0507,1.0649,1.0651,1.0647,1.0649,1.0651,1.0653,1.0679,1.0685,0.0,1.0648,1.0651,1.0649,0.0,1.07,1.0698,1.1196,1.1552,1.1546,1.1576,1.1602,1.1597,1.1599,1.1601,1.1598,1.1567,1.1549,1.1552,1.12,1.0965,1.089,1.0742,1.0462,1.0006,0.9975,0.0,0.0,0.0,0.0,0.0,0.0,0.0,0.0,0.0,0.0,0.0,0.0,0.0,0.0,0.0,0.0,0.0,0.0,0.0,0.0,0.0,0.0,0.0,0.0,0.0,0.0,0.0,0.0,0.8098,0.8136,0.0,0.8528,0.8575,0.8768,0.9218,0.9413,0.9713,1.0177,1.0408,1.065,1.0909,1.1155,1.1297,1.1351,1.1599,1.1784,1.1923,1.2015,1.2101,1.218,1.218,1.218,1.2173,1.2088,1.1993,1.1889,1.1455,1.1128,1.0894,1.0749,1.0636,1.0551,1.0751,1.0827,1.0858,1.1076,1.1145,1.1116,1.1038,1.097,1.0883,1.068,1.047,1.0284,1.0163,1.0253,1.0431,1.0644,1.0703,1.0702,1.0705,1.1004,1.1275,1.1284,1.1279,1.1273,1.1274,1.097,1.0697,1.0695,1.1019,1.1274,1.128,1.1463,1.1597,1.1598,1.1601,1.1594,1.1595,1.1602,1.1599,1.1598,1.1601,1.1601,1.1599,1.1467,1.1296,1.1099,1.0923,1.0747,1.0577,1.0492,1.011,0.0,0.0,0.0,0.0,0.0,0.0,0.0,0.0,0.0,0.0,0.0,0.0,0.0,0.0,0.0,0.0,0.0,0.0,0.0,0.0,0.0,0.0,0.0,0.0,0.0,0.0,0.8421,0.8467,0.8603,0.8844,0.9209,0.9281,0.9508,1.0002,1.0194,1.0512,1.0982,1.1214,1.1472,1.176,1.1807,1.1861,1.19,1.1994,1.2098,1.2238,1.233,1.2413,1.2501,1.2501,1.2501,1.2494,1.2416,1.2324,1.2208,1.1945,1.1773,1.1669,1.1327,1.12,1.1206,1.13,1.1332,1.1354,1.143,1.1472,1.145,1.1357,1.1272,1.1179,1.1041,1.0787,1.0549,1.0591,1.0647,1.0745,1.0948,1.1005,1.0999,1.1002,1.1309,1.1606,1.1603,1.1599,1.1599,1.1599,1.1276,1.0999,1.1,1.1335,1.1598,1.16,1.1594,1.16,1.1597,1.1602,1.1602,1.1602,1.1602,1.1602,1.1602,1.1602,1.1606,1.1601,1.1599,1.1497,1.1281,1.0968,1.0801,1.0801,1.0671,1.0291,0.9665,0.0,0.0,0.0,0.0,0.0,0.0,0.0,0.0,0.0,0.0,0.0,0.0,0.0,0.0,0.0,0.0,0.0,0.0,0.0,0.0,0.0,0.0,0.0,0.832,0.8575,0.8883,0.9025,0.9443,0.9825,1.0098,1.0254,1.0552,1.1079,1.1127,1.1275,1.1604,1.1748,1.1909,1.2111,1.2242,1.2375,1.2498,1.2508,1.2508,1.2515,1.2515,1.2515,1.2515,1.2515,1.2515,1.2515,1.2508,1.2508,1.2501,1.2362,1.2301,1.2226,1.1513,1.122,1.122,1.1235,1.1235,1.1235,1.1235,1.1235,1.1235,1.122,1.122,1.122,1.1213,1.112,1.1051,1.1179,1.0982,1.0863,1.1453,1.16,1.1599,1.1597,1.1596,1.1602,1.1595,1.1593,1.1599,1.1599,1.1598,1.1603,1.1602,1.1596,1.1598,1.1606,1.1599,0.0,1.1606,1.1597,1.1597,1.1597,1.1597,1.1606,1.1599,1.1599,1.1599,1.1602,1.1599,1.1543,1.1404,1.0905,1.0621,1.0614,1.0477,1.0264,1.0013,0.0,0.0,0.0,0.0,0.0,0.0,0.0,0.0,0.0,0.0,0.0,0.0,0.0,0.0,0.0,0.0,0.0,0.0,0.0,0.0,0.0,0.0,0.95,0.8995,0.9309,0.9685,0.9912,1.0059,1.032,1.078,1.0864,1.1076,1.1564,1.1733,1.1912,1.2101,1.2234,1.2329,1.2389,1.2429,1.2505,1.2635,1.2644,1.2725,1.2854,1.2854,1.2854,1.2854,1.2854,1.2854,1.2847,1.2709,1.2644,1.2631,1.2402,1.2301,1.2267,1.1966,1.1767,1.1651,1.1803,1.1853,1.1853,1.1853,1.1853,1.1832,1.1681,1.1638,1.1617,1.1516,1.1455,1.1437,1.148,1.142,1.1393,1.156,1.1595,1.16,1.1605,1.1603,1.1599,1.1604,1.1601,1.1605,1.1605,1.1598,1.1601,1.1595,1.1603,1.1597,1.1603,0.0,0.0,1.1604,1.1599,1.1599,1.1599,1.1599,1.1599,1.1602,1.1605,1.1601,1.1599,1.1597,1.1585,1.1549,1.1312,1.107,1.0822,1.0537,1.0317,0.0,0.0,0.0,0.0,0.0,0.0,0.0,0.0,0.0,0.0,0.0,0.0,0.0,0.0,0.0,0.0,0.0,0.0,0.0,0.0,0.0,0.0,1.0006,1.0282,1.0032,1.0182,1.0422,1.0696,1.0844,1.111,1.1558,1.1596,1.1739,1.2073,1.2205,1.2303,1.2382,1.2505,1.2577,1.2577,1.2667,1.2749,1.2817,1.2827,1.2884,1.3003,1.3003,1.3003,1.3003,1.3003,1.3003,0.0,1.2821,1.2741,1.2734,1.2634,1.2511,0.0,0.0,0.0,0.0,0.0,1.1939,1.2023,1.2023,1.2051,1.2075,1.1959,1.1866,1.1789,1.1717,1.164,1.1606,1.1597,1.1599,1.1603,1.16,1.1595,1.1595,1.1595,1.1595,1.1595,1.1595,1.1607,1.1669,1.1925,0.0,0.0,1.1974,1.1766,1.1594,1.16,1.1823,1.1977,0.0,1.1986,1.1986,1.1986,1.1986,1.1973,1.1984,1.1749,0.0,0.0,0.0,1.1518,1.1359,1.1264,0.0,0.0,0.0,1.0586,1.062,0.0,0.0,0.0,0.9804,0.9687,0.0,0.0,0.0,0.0,0.0,0.0,0.0,0.0,0.0,0.0,0.0,0.0,0.0,0.0,0.0,0.0,1.0629,1.1121,1.122,1.1133,1.1153,1.138,1.1682,1.1981,1.2284,1.2328,1.2366,1.2494,1.2505,1.2519,1.2519,0.0,0.0,0.0,0.0,1.3009,1.3023,1.3013,1.303,1.305,1.305,1.305,1.305,1.305,1.305,1.304,1.2919,1.2872,1.2883,1.3,1.2829,1.2466,1.2107,1.1969,1.1941,1.1732,1.1772,0.0,0.0,0.0,0.0,1.2098,1.1981,1.1829,1.1793,1.1687,1.1604,1.1597,1.1648,1.17,1.1697,1.1693,1.1693,1.1693,1.1693,1.1693,1.1693,1.17,1.1858,1.24,1.2503,1.2498,1.2503,1.2057,1.17,1.17,1.2157,0.0,1.2496,1.2501,1.2505,1.2505,0.0,0.0,1.2503,1.2014,1.1826,1.2132,1.1819,1.1459,1.1097,1.1077,1.1,1.0875,1.0869,1.0982,1.12,1.1019,1.0933,1.0909,1.0044,0.9796,0.0,0.0,0.0,0.0,0.0,0.0,0.0,0.0,0.0,0.0,0.0,0.0,0.0,0.0,0.0,1.0853,1.1311,1.1739,1.2028,1.2051,1.2051,1.2102,1.2165,1.2271,1.244,1.2461,1.2474,1.2501,1.2597,1.2655,1.2655,1.2844,0.0,1.2935,1.2972,1.3047,1.3163,1.3163,1.3224,1.3315,0.0,0.0,1.3315,1.3315,1.3315,1.3315,1.3295,1.3284,1.3298,1.3309,1.3004,1.2492,1.241,1.2382,1.2349,1.2096,1.2029,1.2062,1.2064,1.2079,1.2098,1.2098,1.2068,1.1985,1.1718,1.1624,0.0,1.1594,1.1948,1.2331,1.2331,1.2328,1.2328,1.2328,1.2328,1.2328,1.2328,1.2326,1.236,1.2479,1.2498,1.2504,1.2498,1.2401,1.2336,1.2336,1.2431,1.2497,1.2497,1.2502,1.2499,1.2499,1.2498,1.2501,1.2498,1.2384,1.2356,1.2424,1.201,1.1725,1.1652,1.1545,1.142,1.129,1.1274,1.1262,1.12,1.1157,1.1142,1.1135,1.0678,1.0503,0.0,0.0,0.0,0.0,0.0,0.0,0.0,0.0,0.0,0.0,0.0,1.0258,1.0459,0.0,1.1138,1.1409,1.1791,1.2105,1.228,1.2362,1.2393,1.2393,1.2393,1.2436,1.2494,1.2559,1.2597,1.2597,1.2759,1.2847,1.2847,1.301,1.3095,1.3095,1.3169,1.3234,1.3298,1.3298,1.3322,1.3403,1.3468,1.3502,1.3498,1.3566,1.358,1.354,1.3439,1.3398,1.3397,1.3404,1.322,1.2952,1.295,1.2946,1.2933,1.2802,1.2565,1.2301,1.2296,1.2298,1.2298,1.2298,1.23,1.2268,1.2099,1.1839,1.1603,1.1597,1.2031,1.2499,1.2504,1.2498,1.2504,1.2506,1.2505,1.2504,1.2504,1.2495,1.2595,1.2889,1.2708,1.2499,1.2499,1.2499,1.2602,1.2899,1.2692,1.2501,1.2501,1.2503,1.2617,1.2926,1.2947,1.2951,1.2949,1.2667,1.2502,1.2504,1.2217,1.2017,1.1952,1.1784,1.1669,1.1604,1.1536,1.147,1.1398,1.1332,1.13,1.1291,1.106,1.095,0.0,0.0,0.0,0.0,0.0,0.0,0.0,0.9818,0.9991,1.0285,1.046,1.0655,1.1009,1.1224,1.1457,1.1833,1.2149,1.2341,1.2341,1.2427,1.2501,1.2501,1.2501,1.2515,1.2542,1.2638,1.2726,1.2763,1.2925,1.3043,1.3043,1.3169,1.3234,1.3234,1.3363,1.3444,1.3444,1.3461,1.3474,1.3474,1.3593,1.3647,1.3675,1.3758,1.3815,1.3802,1.352,1.3404,1.3401,1.3401,1.3401,1.3395,1.3399,1.3394,1.3395,1.34,1.3094,1.2668,1.2672,1.2668,1.2668,1.2668,1.2669,1.2674,1.2674,1.2344,1.1953,1.195,1.2295,1.2671,1.2672,1.2668,1.2672,1.2671,1.2595,1.2496,1.25,1.2503,1.2638,1.3131,1.2928,1.2672,1.2665,1.2671,1.2802,1.3166,1.2809,1.25,1.2502,1.2502,1.2724,1.3339,1.34,1.3397,1.3399,1.2927,1.262,1.2616,1.2436,1.2287,1.2177,1.1972,1.1859,1.1859,1.1708,1.1642,1.1642,1.1502,1.1445,1.1445,1.1325,1.1254,0.9385,0.9497,0.9759,0.9922,1.004,1.0179,0.0,1.0582,1.0789,1.1166,1.1366,1.1498,1.1664,1.1955,1.2179,1.2237,1.2382,1.2481,1.2481,1.2488,1.2501,1.2501,1.2501,1.2556,1.2672,1.2689,1.2766,1.2949,1.3101,1.3183,1.3183,1.3305,1.3387,1.3387,1.3515,1.3579,1.3579,1.3697,1.3758,1.3758,1.3768,1.3839,1.3952,1.3848,1.3966,1.4205,1.364,1.3402,1.3399,1.3399,1.3399,1.3397,1.3405,1.3401,1.3404,1.3398,1.3356,1.3295,1.3302,1.33,1.33,1.33,1.3296,1.3302,1.3302,1.3255,1.3202,1.3195,1.3252,1.3299,1.3293,1.33,1.33,1.3299,1.2895,1.2495,1.2502,1.2497,1.2526,1.2592,1.2987,1.3294,1.3301,1.3304,1.314,1.2669,1.254,1.2502,1.2505,1.2503,1.2726,1.3345,1.3394,1.3405,1.34,1.3175,1.3029,1.3035,1.2676,1.2467,1.2463,1.2201,1.207,1.207,1.1875,1.1782,1.1782,1.1633,1.1583,1.1583,1.1554,1.1432,0.9771,0.9844,1.0001,1.0278,1.0388,1.0491,1.0726,1.0879,1.1101,1.1536,1.1769,1.1934,1.2074,1.2212,1.2328,0.0,1.2461,1.2501,1.2501,1.2501,1.2501,1.2501,1.2573,1.2638,1.2696,1.2813,1.2932,1.3101,1.3241,1.3319,1.3319,1.3441,1.3522,1.3522,1.3654,1.3717,1.3717,1.3768,1.3795,1.3802,1.3879,1.3952,1.4002,1.4057,1.417,1.4293,1.4035,1.3919,1.3919,1.3919,1.3919,1.3923,1.3922,1.3707,1.3401,1.3407,1.3401,1.3405,1.3394,1.3394,1.3394,1.3394,1.3394,1.3394,1.3394,1.3394,1.3394,1.3394,1.3394,1.3394,1.3394,1.3394,1.3404,1.3396,1.3206,1.3017,1.3016,1.3013,1.3027,1.3017,1.3223,1.34,1.3404,1.3394,1.3312,1.306,1.3017,1.3014,1.3019,1.3024,1.3118,1.3367,1.3404,1.3397,1.3398,1.3224,1.3125,1.3155,1.2928,1.2742,1.2617,1.2433,1.2296,1.2215,1.2065,1.1965,1.1975,1.1798,1.1723,1.1714,1.1642,1.1543,1.0025,1.0218,1.0416,1.0744,1.0877,1.097,1.1126,1.1266,1.1484,1.186,1.2047,1.2197,1.2328,1.2355,1.2389,1.2478,1.2501,1.2501,1.2501,1.2526,1.2553,1.2553,1.2688,1.2797,1.2827,1.2976,1.3108,1.3248,1.3346,1.3417,1.3454,1.3545,1.3616,1.3657,1.3799,1.3884,1.3884,1.3925,1.3934,1.3934,1.4038,1.4081,1.4092,1.4229,1.43,1.4293,1.4299,1.4304,1.4304,1.4304,1.4304,1.4297,1.4299,1.403,1.365,1.3652,1.3546,1.3404,1.3404,1.3398,1.3402,1.3402,1.3406,1.3403,1.3403,1.3403,1.3403,1.3403,1.3403,1.3403,1.3403,1.3403,1.3407,1.3401,1.3404,1.3397,1.3396,1.3395,1.3402,1.3394,1.3404,1.3398,1.3404,1.3403,1.3403,1.3403,1.3401,1.3395,1.3395,1.3404,1.3405,1.34,1.3403,1.3403,1.3403,1.3264,1.3203,1.3244,1.3129,1.2989,1.2834,1.2705,1.2572,1.2404,1.2283,1.219,1.2156,1.1972,1.1879,1.1882,1.178,1.1742,1.0025,1.0527,1.1044,1.1308,1.1572,1.1773,1.177,1.1929,1.2113,1.2262,1.2287,1.2325,1.2467,1.2494,1.2494,1.2501,1.2501,1.2501,1.2501,1.2611,1.2696,1.2696,1.2871,1.304,0.0,1.3197,1.3248,1.3383,1.3397,1.3454,1.3593,1.3596,1.3663,1.3788,1.3987,1.4083,1.4083,1.4222,1.4274,1.4274,1.4292,1.4292,1.4292,1.4299,1.4299,1.4303,1.4296,1.4296,1.4296,1.4296,1.4296,1.4294,1.4304,1.4286,1.4272,1.4275,1.3906,1.34,1.34,1.34,1.3393,1.3393,1.3404,1.3403,1.3403,1.3403,1.3403,1.3403,1.3403,1.3403,1.3403,1.3403,1.3397,1.3397,1.3407,1.34,1.34,1.34,1.34,1.3407,1.3407,1.3397,1.3403,1.3403,1.3403,1.3403,1.3407,1.34,1.34,1.34,1.3397,1.3403,1.3403,1.3403,1.3403,1.3386,1.3397,1.3397,1.3268,1.3197,1.319,1.3064,1.2894,1.2689,1.2559,1.242,1.2294,1.2156,1.2091,1.2091,1.2091,1.2075,1.046,1.0907,1.1267,1.1586,1.1827,1.2022,1.2115,1.2176,1.2276,1.2409,1.2433,1.2447,1.2494,1.2501,1.2501,1.2501,1.2501,1.2526,1.2617,1.2669,1.2746,1.2878,1.304,0.0,0.0,0.0,0.0,1.339,1.3488,1.3552,1.3606,1.3817,1.3957,1.4004,1.4154,1.4188,1.4097,1.4144,1.4095,1.3972,1.4184,1.4299,1.4299,1.4299,1.4299,1.4299,1.4299,1.4299,1.4299,1.4299,1.4299,1.4303,1.4298,1.4299,1.4302,1.43,1.4172,1.3994,1.3994,1.3999,1.3926,1.3529,1.34,1.3396,1.3396,1.3396,1.3396,1.3396,1.3396,1.3396,1.3396,1.3396,1.3396,1.3396,1.3403,1.3399,1.3399,1.3398,1.3403,1.3403,1.3403,1.3403,1.3403,1.3403,1.3403,1.3403,1.3401,1.3542,1.3954,1.4006,1.3914,1.3695,1.3628,1.3595,1.3595,1.3479,1.3403,1.3403,1.3359,1.3285,1.3193,1.3156,1.3061,1.2898,1.2722,1.2611,1.2563,1.2341,1.2228,1.2228,1.2136,1.2098,1.085,1.1341,1.1705,1.1918,1.2108,1.2272,1.2355,1.2366,1.2402,1.2481,1.2501,1.2501,1.2501,1.2501,1.2501,1.2501,1.2501,1.2556,1.2682,1.276,1.2868,1.3047,1.3186,1.3275,0.0,0.0,0.0,1.3461,1.3552,1.3654,1.3773,1.3901,1.4025,1.4101,1.4116,1.4078,1.3987,1.3987,1.3929,1.3795,1.414,1.4194,1.3983,1.3983,1.3983,1.3983,1.3983,1.3983,1.3983,1.3983,1.3983,1.3983,1.3983,1.3983,1.3983,1.3983,1.3983,1.4005,1.4226,1.4305,1.4241,1.3855,1.3718,1.372,1.372,1.372,1.372,1.372,1.372,1.372,1.372,1.372,1.372,1.372,1.3726,1.3657,1.3452,1.3398,1.3403,1.3403,1.3403,1.3403,1.3403,1.3403,1.3403,1.3403,1.34,1.3533,1.3933,1.4164,1.416,1.3802,1.3782,1.3793,1.374,1.3566,1.3474,1.3474,1.3431,1.3356,1.3282,1.3275,1.3207,1.3067,1.2942,1.2861,1.2813,1.2559,1.2437,1.244,1.231,1.2235,1.1213,1.1822,1.2307,1.2307,1.2416,1.2501,1.2501,1.2501,1.2501,1.2501,1.2501,1.2501,1.2501,1.2501,1.2501,1.2501,1.2508,1.2559,1.2699,1.2894,1.3064,1.3186,1.3326,1.3403,0.0,0.0,0.0,1.3609,0.0,1.3752,1.407,1.3897,1.3884,1.4076,1.3897,1.3805,1.3788,1.3788,1.3788,1.3795,1.4108,1.3951,1.3403,1.3403,1.3403,1.3403,1.3403,1.3403,1.3403,1.3403,1.3403,1.3403,1.3403,1.3396,1.34,1.34,1.3394,1.3479,1.4059,1.4245,1.4252,1.4252,1.4248,1.4251,1.4251,1.4251,1.4251,1.4251,1.4251,1.4251,1.4251,1.4251,1.4251,1.4251,1.4254,1.4102,1.3521,1.3393,1.3403,1.3403,1.3403,1.3403,1.3403,1.3403,1.3403,1.3403,1.3393,1.3398,1.3399,1.3905,1.4108,1.3736,1.388,1.3941,1.3805,1.3684,1.3613,1.3596,1.3481,1.341,1.3403,1.3403,1.3346,1.3207,1.3193,1.3135,1.3009,1.281,1.2726,1.2709,1.258,1.2522,1.1927,1.2238,1.2447,1.2447,1.2465,1.2501,1.2501,1.2501,1.2501,1.2501,1.2501,1.2501,1.2501,1.2501,1.2501,1.2501,1.2577,1.2705,1.2901,1.3051,1.3203,1.3322,1.3376,1.3434,1.3538,1.3575,0.0,0.0,1.3751,1.3785,1.3877,1.3833,1.3815,1.3866,1.3833,1.3747,1.365,1.365,1.3683,1.372,1.3666,1.3553,1.3403,1.3403,1.3403,1.3403,1.3403,1.3403,1.3403,1.3403,1.3403,1.3403,1.3403,1.3401,1.34,1.34,1.3407,1.3418,1.3581,1.3634,1.3634,1.3634,1.3628,1.3633,1.3633,1.3633,1.3633,1.3633,1.3633,1.3633,1.3633,1.3633,1.3633,1.3633,1.3627,1.3594,1.343,1.3395,1.3403,1.3403,1.3403,1.3403,1.3403,1.3403,1.3403,1.3403,1.3399,1.3401,1.3402,1.3536,1.3666,1.3762,1.3817,1.3844,1.3795,1.3772,1.3711,1.3613,1.3572,1.3498,1.3393,1.3403,1.3383,1.3353,1.3248,1.3173,1.3149,1.3006,1.2921,1.2921,1.2891,1.2789,1.226,1.244,1.2501,1.2501,1.2501,1.2501,1.2501,1.2454,1.2406,1.2406,1.2368,1.2341,1.2393,1.2406,1.2427,1.2488,1.2611,1.2776,1.2972,1.3125,1.3264,1.3461,1.3488,1.3538,1.3677,1.369,1.3724,0.0,1.3795,1.3795,1.3795,1.3741,1.3745,1.3795,1.3741,1.37,1.369,1.3743,1.3795,1.3834,1.3805,1.3784,1.3784,1.3784,1.3784,1.3784,0.0,1.3784,1.3784,1.3784,1.3784,1.3784,1.3784,1.379,1.3754,1.3503,1.3397,1.3397,1.3397,1.3401,1.34,1.3397,1.3398,1.3398,1.3398,1.3398,1.3398,1.3398,1.3398,1.3398,1.3398,1.3398,1.3398,1.3398,1.3401,1.34,1.34,1.3395,1.3403,1.3403,1.3403,1.3403,1.3403,1.3403,1.3403,1.3403,1.3403,1.3399,1.3404,1.3485,1.3583,1.3707,1.3761,1.3833,1.3918,1.3846,1.3816,1.3824,1.3681,1.3572,1.3495,1.3427,1.3403,1.3403,1.3326,1.3295,1.3295,1.3146,1.3098,1.3091,1.303,1.2945,1.2371,1.2501,1.2501,1.2501,1.2501,1.2494,1.2481,1.2379,1.2294,1.2283,1.2184,1.2139,1.2256,1.2287,1.2341,1.2454,1.2617,1.2797,1.2982,1.3129,1.3319,1.3572,1.3596,1.3657,1.3792,1.3795,1.3788,1.3774,1.3788,1.3788,1.3774,1.3663,1.3663,1.3805,1.369,1.3708,1.3839,1.3957,1.4014,1.4034,1.4224,1.4299,1.4299,1.4299,1.4299,1.4299,0.0,0.0,1.4299,1.4299,1.4299,1.4299,1.4299,1.4296,1.4239,1.3704,1.3519,1.3521,1.3521,1.3522,1.3511,1.3426,1.3396,1.3403,1.3403,1.3403,1.3403,1.3403,1.3403,1.3403,1.3403,1.3403,1.3403,1.3403,1.3403,1.3403,1.3403,1.3403,1.3403,1.3403,1.3403,1.3403,1.3403,1.3403,1.3403,1.3403,1.3403,1.3403,1.3403,1.355,1.3642,1.3579,1.3687,1.3833,1.4022,1.3915,1.3897,1.4045,1.3807,1.3647,1.3602,1.3488,1.3424,1.3403,1.3403,1.3403,1.3403,1.3278,1.3231,1.322,1.3108,1.304,1.2466,1.2501,1.2501,1.2501,1.2501,1.2474,1.2362,1.2321,1.2276,1.2166,1.2118,1.2111,1.2132,1.2231,1.2307,1.2334,1.2684,1.2959,1.2996,1.3214,1.3413,1.3575,1.3596,1.3657,1.3792,1.3795,0.0,0.0,0.0,1.3747,1.3643,1.3609,1.3663,1.3805,1.3785,1.3857,1.4056,1.4078,1.4139,1.4257,1.4279,1.4301,1.4301,1.4301,1.4301,1.4301,0.0,0.0,1.4301,1.4301,1.4301,1.4301,1.4301,1.4303,1.4291,1.4175,1.4143,1.414,1.414,1.4137,1.4057,1.356,1.3394,1.3403,1.3403,1.3403,1.3403,1.3403,1.3403,1.3403,1.3403,1.3403,1.3403,1.3403,1.3403,1.3403,1.3403,1.3403,1.3403,1.3403,1.3403,1.3403,1.3403,1.3403,1.3403,1.3403,1.3403,1.3403,1.3403,1.3434,1.3455,1.3444,1.3552,1.3643,1.3681,1.3905,1.3987,1.3864,1.3953,1.3896,1.3609,1.3579,1.3511,1.3403,1.3403,1.3403,1.3403,1.3387,1.3373,1.3363,1.3336,1.3264,1.2501,1.2501,1.2501,1.2501,1.2501,1.2467,1.2334,1.2249,1.2147,1.1981,1.1893,1.1866,1.1932,1.2076,1.2215,1.2287,1.269,1.3003,1.3003,1.3292,1.3552,1.369,1.3693,1.3765,1.3935,1.3803,1.3704,1.3693,0.0,1.367,1.3602,1.3766,1.3892,1.3949,1.4019,1.4116,1.4201,1.4201,1.4242,1.4299,1.4299,1.4299,1.4299,1.4299,1.4299,1.4299,1.4299,0.0,1.4299,1.4299,1.4299,1.4299,1.4299,1.4302,1.4307,1.4307,1.4303,1.4306,1.4306,1.4295,1.4251,1.396,1.366,1.3404,1.3404,1.3402,1.3403,1.3403,1.3403,1.3403,1.3403,1.3403,1.3403,1.3403,1.3403,1.3403,1.3403,1.3403,1.3403,1.3403,1.3403,1.3403,1.3403,1.3403,1.3403,1.3403,1.3403,1.3403,1.3403,1.3403,1.3403,1.3403,1.3454,1.3525,1.3589,1.3752,1.3878,1.3942,1.3953,1.3864,1.3711,1.3636,1.3538,1.3403,1.3403,1.3403,1.3403,1.3403,1.3403,1.3403,1.3403,1.3373,1.2501,1.2501,1.2501,1.2501,1.2481,1.242,1.2296,1.214,1.1981,1.1798,1.1667,1.1626,1.1741,1.1948,1.2129,1.2242,1.268,1.3003,1.3003,1.3349,1.365,1.3781,1.3795,1.3853,1.4025,1.38,0.0,1.3747,0.0,0.0,1.3712,1.3957,1.411,1.4144,1.4249,1.4299,1.4299,1.4299,1.4299,1.4299,1.4299,1.4299,1.4299,1.4299,1.4299,1.4299,1.4299,0.0,0.0,1.4299,1.4299,1.4299,1.4299,1.4299,1.4299,1.4299,1.4299,1.4299,1.4299,1.4301,1.4297,1.4297,1.3984,1.3569,1.3435,1.3398,1.3399,1.3399,1.3403,1.3403,1.3403,1.3403,1.3403,1.3403,1.3403,1.3403,1.3403,1.3403,1.3403,1.3403,1.3403,1.3403,1.3403,1.3403,1.3403,1.3403,1.3403,1.3403,1.3403,1.3403,1.3403,1.3403,1.3403,1.3441,1.3545,1.3575,1.3708,1.3981,1.3915,1.3839,1.3802,1.3704,1.3579,1.3451,1.3407,1.3403,1.3403,1.3403,1.3403,1.3403,1.3403,1.3403,1.2501,1.2501,1.2501,1.2501,1.2416,1.228,1.215,1.1975,1.1791,1.1649,1.1608,1.1593,1.1622,1.188,1.2104,1.2118,1.2605,1.3003,1.3003,1.3349,1.365,1.3781,1.3795,1.3812,1.3826,1.3805,1.3745,1.3623,0.0,0.0,1.4056,1.4076,1.4158,1.4278,1.4292,1.4299,1.4299,1.4299,1.4299,1.4299,1.4299,1.4299,1.4299,1.4299,1.4299,1.4299,0.0,0.0,0.0,1.4299,1.4299,1.4299,1.4299,1.4299,1.4299,1.4299,1.4299,1.4299,1.4299,1.4303,1.4301,1.4301,1.426,1.4119,1.3571,1.3408,1.34,1.34,1.3401,1.3403,1.3403,1.3403,1.3403,1.3403,1.3403,1.3403,1.3403,1.3403,1.3403,1.3403,1.3403,1.3403,1.3403,1.3403,1.3403,1.3403,1.3403,1.3403,1.3403,1.3403,1.3403,1.3403,1.3403,1.3393,1.3417,1.3525,1.3609,1.3636,1.3905,1.3987,1.3812,1.3788,1.3724,1.3582,1.3461,1.3403,1.3403,1.3403,1.3403,1.3403,1.3403,1.3403,1.2382,1.2433,1.2481,1.2393,1.2341,1.2233,1.1979,1.1859,1.1762,1.1629,1.1602,1.1602,1.1602,1.1773,1.1961,1.2084,1.2497,1.2864,1.2979,1.3417,1.3745,1.3788,1.3795,1.3795,1.3795,1.3731,1.3742,0.0,0.0,0.0,1.4222,1.4222,1.4238,1.4299,1.4299,1.4299,1.4299,1.4299,1.4299,1.4299,1.4299,1.4299,1.4299,1.4299,1.4299,1.4299,0.0,0.0,0.0,1.4299,1.4299,1.4299,1.4299,1.4299,1.4299,1.4299,1.4299,1.4299,1.4299,1.4299,1.4299,1.4299,1.4294,1.4262,1.4007,1.3943,1.3869,1.3505,1.3398,1.3396,1.3396,1.3402,1.3403,1.3403,1.3403,1.3403,1.3403,1.3403,1.3403,1.3403,1.3403,1.3403,1.3403,1.3403,1.3403,1.3403,1.3403,1.3403,1.3403,1.3403,1.3403,1.3403,1.3403,1.3403,1.3403,1.3447,1.3511,1.3589,1.3732,1.3796,1.3795,1.3795,1.3745,1.3602,1.3545,1.3481,1.3403,1.3403,1.3403,1.3403,1.3403,1.3403,1.2214,1.2317,1.2355,1.226,1.2199,1.2085,1.185,1.1768,1.1714,1.1622,1.1602,1.1602,1.1602,1.1708,1.1875,1.2077,1.244,1.2776,1.2972,1.3461,1.3792,1.3751,1.3785,1.3795,1.3795,1.3769,1.3854,0.0,0.0,0.0,0.0,1.4299,1.4299,1.4299,1.4299,1.4299,1.4299,1.4299,1.4299,1.4299,1.4299,1.4299,1.4299,1.4299,1.4299,1.4299,0.0,0.0,0.0,1.4299,1.4299,1.4299,1.4299,1.4299,1.4299,1.4299,1.4299,1.4299,1.4299,1.4299,1.4299,1.4299,1.4299,1.4301,1.4297,1.4302,1.4209,1.3787,1.3541,1.34,1.3402,1.3399,1.3406,1.34,1.3403,1.3403,1.3403,1.3403,1.3403,1.3403,1.3403,1.3403,1.3403,1.3403,1.3403,1.3403,1.3403,1.3403,1.3403,1.3403,1.3403,1.3403,1.3403,1.3403,1.3403,1.3403,1.3434,1.3532,1.3586,1.3643,1.3745,1.3774,1.3745,1.3602,1.3596,1.3532,1.3403,1.3403,1.3403,1.3403,1.3403,1.3403,1.1986,1.2104,1.2104,1.2104,1.1952,1.18,1.1802,1.1703,1.1602,1.1602,1.1602,1.1602,1.1602,1.1708,1.1875,1.2077,1.244,1.2776,1.2972,1.3461,1.3747,1.3616,1.3724,1.3795,1.3795,1.398,1.4151,0.0,0.0,0.0,0.0,1.4299,1.4299,1.4299,1.4299,1.4299,1.4299,1.4299,1.4299,1.4299,1.4299,1.4299,1.4299,1.4299,1.4299,0.0,0.0,0.0,0.0,1.4299,1.4299,1.4299,1.4299,1.4299,1.4299,1.4299,1.4299,1.4299,1.4299,1.4299,1.4299,1.4299,1.4299,1.4299,1.4299,1.4307,1.4303,1.4293,1.3856,1.3402,1.3397,1.3399,1.3408,1.3396,1.3403,1.3403,1.3403,1.3403,1.3403,1.3403,1.3403,1.3403,1.3403,1.3403,1.3403,1.3403,1.3403,1.3403,1.3403,1.3403,1.3403,1.3403,1.3403,1.3403,1.3403,1.3403,1.3403,1.3403,1.3535,1.3596,1.3602,1.3738,1.3745,1.3602,1.3596,1.3532,1.3403,1.3403,1.3403,1.3403,1.3403,1.3403,1.1858,1.1998,1.2077,1.1932,1.1845,1.1782,1.168,1.1635,1.1602,1.1602,1.1602,1.1602,1.1602,1.1626,1.1793,1.2172,1.242,1.2698,1.3078,1.3522,1.3747,1.3616,1.3724,1.3795,1.3795,0.0,0.0,0.0,0.0,0.0,0.0,1.4299,1.4299,1.4299,1.4299,1.4299,1.4299,1.4299,1.4299,1.4299,1.4299,1.4299,1.4299,1.4299,0.0,0.0,0.0,0.0,0.0,1.4299,1.4299,1.4299,1.4299,1.4299,1.4299,1.4299,1.4299,1.4299,1.4299,1.4299,1.4299,1.4299,1.4299,1.4299,1.4299,1.4298,1.4299,1.4305,1.416,1.402,1.402,1.3706,1.3398,1.3395,1.3398,1.3398,1.3398,1.3398,1.3398,1.3398,1.3393,1.3395,1.3395,1.3402,1.3403,1.3403,1.3403,1.3403,1.3403,1.3403,1.3403,1.3403,1.3403,1.3403,1.3403,1.3403,1.3403,1.3403,1.3434,1.3498,1.3606,1.3643,1.369,1.3738,1.365,1.3586,1.3538,1.3441,1.3403,1.3403,1.3403,1.3403,1.1721,1.1823,1.188,1.1757,1.1721,1.1701,1.1622,1.1602,1.1602,1.1602,1.1602,1.1602,1.1602,1.1633,1.1811,1.223,1.2451,1.2715,1.3139,1.3502,1.3687,1.3609,1.3724,1.3795,0.0,0.0,0.0,0.0,0.0,0.0,0.0,0.0,1.4299,1.4299,1.4299,1.4299,1.4299,1.4299,1.4299,1.4299,1.4299,1.4299,1.4299,1.4299,0.0,0.0,0.0,0.0,0.0,1.4299,1.4299,1.4299,1.4299,1.4299,1.4299,1.4299,1.4299,1.4299,1.4299,1.4299,1.4299,1.4299,1.4299,1.4299,1.4299,1.4299,1.4301,1.43,1.4306,1.4304,1.4304,1.4019,1.3733,1.3744,1.3741,1.3741,1.3741,1.3741,1.3741,1.3741,1.3738,1.3674,1.3444,1.3399,1.3402,1.34,1.3403,1.3403,1.3403,1.3403,1.3403,1.3403,1.3403,1.3403,1.3403,1.3403,1.3403,1.3403,1.3403,1.3444,1.3518,1.3569,1.362,1.3654,1.3627,1.3579,1.3525,1.3434,1.3403,1.3403,1.3403,1.3403,0.0,1.1602,1.1602,1.1602,1.1602,1.1602,1.1602,1.1602,0.0,1.1602,1.1602,1.1602,1.1602,1.1708,1.1904,1.226,1.2532,1.2821,1.318,1.3441,1.3596,1.3596,1.3724,0.0,1.3795,0.0,0.0,0.0,0.0,0.0,0.0,1.4299,1.4299,1.4299,1.4299,1.4299,1.4299,1.4299,1.4299,1.4299,1.4299,1.4299,1.4299,1.4299,0.0,0.0,0.0,0.0,0.0,1.4299,1.4299,1.4299,1.4299,1.4299,1.4299,1.4299,1.4299,1.4299,1.4299,1.4299,1.4299,1.4299,1.4299,1.4299,1.4299,1.4299,1.4299,1.4299,1.4299,1.4298,1.4304,1.4302,1.4301,1.4296,1.4304,1.4304,1.4304,1.4304,1.4304,1.4304,1.4297,1.4113,1.3565,1.343,1.3401,1.3396,1.34,1.3403,1.3403,1.3403,1.3403,1.3403,1.3403,1.3403,1.3403,1.3403,1.3403,1.3403,1.3403,1.3403,1.3403,1.3518,1.3532,1.3417,1.3538,1.3532,1.3403,1.3403,1.3403,1.3403,1.3403,1.3403,1.1602,0.0,1.1602,1.1602,1.1602,1.1602,0.0,1.1602,1.1602,1.1602,1.1602,1.1602,1.1602,1.1708,1.1938,1.2386,1.259,1.2885,1.343,1.3566,1.3596,1.3596,1.3724,1.3795,1.3795,0.0,0.0,0.0,0.0,0.0,0.0,1.4299,1.4299,1.4299,1.4299,1.4299,1.4299,1.4299,1.4299,1.4299,1.4299,1.4299,1.4299,1.4299,0.0,0.0,0.0,0.0,1.4299,1.4299,1.4299,1.4299,1.4299,1.4299,1.4299,1.4299,1.4299,1.4299,1.4299,1.4299,1.4299,1.4299,1.4299,1.4299,1.4299,1.4299,1.4299,1.4299,1.4299,1.4303,1.4302,1.43,1.4304,1.4303,1.4296,1.4296,1.4296,1.4296,1.4296,1.4296,1.4298,1.4252,1.411,1.3713,1.3403,1.3401,1.3398,1.3403,1.3403,1.3403,1.3403,1.3403,1.3403,1.3403,1.3403,1.3403,1.3403,1.3403,1.3403,1.3403,1.3403,1.3427,1.3481,1.3552,1.3582,1.3532,1.3403,1.3403,1.3403,1.3403,1.3403,1.3403,1.1602,1.1602,1.1602,1.1602,1.1602,1.1602,1.1602,1.1602,1.1602,1.1602,1.1602,1.1622,1.1674,1.1827,1.2081,1.2526,1.2729,1.2986,1.3437,1.3515,1.3532,1.3589,1.3796,1.3935,0.0,0.0,0.0,0.0,0.0,0.0,0.0,1.4299,1.4299,1.4299,1.4299,1.4299,1.4299,1.4299,1.4299,1.4299,1.4299,1.4299,1.4299,1.4299,0.0,0.0,0.0,0.0,1.4299,1.4299,1.4299,1.4299,1.4299,1.4299,1.4299,1.4299,1.4299,1.4299,1.4299,1.4299,1.4299,1.4299,1.4299,1.4299,1.4299,1.4299,1.4299,1.4299,1.4299,1.4299,1.4299,1.4299,1.4299,1.4299,1.4299,1.4299,1.4299,1.4299,1.4299,1.4299,1.4304,1.43,1.4303,1.403,1.3724,1.3434,1.3399,1.3403,1.3403,1.3403,1.3403,1.3403,1.3403,1.3403,1.3403,1.3403,1.3403,1.3403,1.3403,1.3403,1.3403,1.3403,1.3427,1.3508,1.3515,1.3474,1.3403,1.3403,1.3403,1.3403,1.3403,1.3403,1.1602,1.1602,1.1602,1.1602,1.1602,1.1602,1.1602,1.1602,1.1602,1.1602,1.1622,1.1669,1.1782,1.2002,1.2283,1.2635,1.2915,1.3173,1.3403,1.3427,1.3474,1.3593,1.3871,0.0,0.0,0.0,0.0,0.0,0.0,0.0,0.0,1.4299,1.4299,1.4299,1.4299,1.4299,1.4299,1.4299,1.4299,1.4299,1.4299,1.4299,1.4299,1.4299,1.4299,0.0,0.0,0.0,1.4299,1.4299,1.4299,1.4299,1.4299,1.4299,1.4299,1.4299,1.4299,1.4299,1.4299,1.4299,1.4299,1.4299,1.4299,1.4299,1.4299,1.4299,1.4299,1.4299,1.4299,1.4299,1.4299,1.4299,1.4299,1.4299,1.4299,1.4299,1.4299,1.4299,1.4299,1.4299,1.4299,1.4299,1.4306,1.4225,1.399,1.3478,1.3396,1.3403,1.3403,1.3403,1.3403,1.3403,1.3403,1.3403,1.3403,1.3403,1.3403,1.3403,1.3403,1.3403,1.3403,1.3403,1.3403,1.3403,1.3403,1.3403,1.3403,1.3403,1.3403,1.3403,1.3403,1.3403,1.1602,1.1602,1.1602,1.1602,1.1602,1.1602,1.1602,1.1602,1.1602,1.1602,1.1687,1.1775,1.1802,1.2153,1.2501,1.2669,1.3149,1.3525,0.0,0.0,1.3579,1.3606,0.0,0.0,0.0,0.0,0.0,0.0,0.0,0.0,0.0,0.0,1.4299,1.4299,1.4299,1.4299,1.4299,1.4299,1.4299,1.4299,1.4299,1.4299,1.4299,1.4299,1.4299,0.0,0.0,1.4299,1.4299,1.4299,1.4299,1.4299,1.4299,1.4299,1.4299,1.4299,1.4299,1.4299,1.4299,1.4299,1.4299,1.4299,1.4299,1.4299,1.4299,1.4299,1.4299,1.4299,1.4299,1.4299,1.4299,1.4299,1.4299,1.4299,1.4299,1.4299,1.4299,1.4299,1.4299,1.4299,1.4299,1.43,1.4303,1.3883,1.351,1.3414,1.3395,1.3403,1.3403,1.3403,1.3403,1.3403,1.3403,1.3403,1.3403,1.3403,1.3403,1.3403,1.3403,1.3403,1.3403,1.3403,1.3403,1.3403,1.3403,1.3403,1.3403,1.3403,1.3403,1.3403,1.3403,1.3403,1.1602,1.1602,1.1602,1.1602,1.1602,1.1602,1.1602,1.1662,1.1708,1.1708,1.1841,1.2015,1.2143,1.2349,1.2603,1.2915,0.0,1.3484,1.3484,1.3484,1.3556,0.0,0.0,0.0,0.0,0.0,0.0,0.0,0.0,0.0,0.0,0.0,1.7329,1.7329,1.7329,1.7329,1.7329,1.7329,1.6305,1.4299,1.4299,1.4299,1.4299,1.4299,1.4299,1.4299,0.0,1.4299,1.4299,1.4299,1.4299,1.4299,1.4299,1.4299,1.4299,1.4299,1.4294,1.4304,1.4304,1.4304,1.4304,1.4304,1.4304,1.4304,1.4304,1.4304,1.4301,1.4304,1.4297,1.4299,1.4299,1.4299,1.4299,1.4299,1.4299,1.4299,1.4299,1.4299,1.4299,1.4299,1.4304,1.4293,1.43,1.3803,1.3404,1.34,1.3403,1.3403,1.3403,1.3403,1.3403,1.3403,1.3403,1.3403,1.3403,1.3403,1.3403,1.3403,1.3403,1.3403,1.3403,1.3403,1.3403,1.3403,1.3403,1.3403,1.3403,1.3403,1.3403,1.3403,1.3403,1.3403,1.1602,1.1602,1.1602,1.1602,1.1602,1.1608,1.1642,1.1728,1.1823,1.1906,1.206,1.2272,1.2498,1.2644,1.2834,1.3231,1.3376,1.3451,1.3451,1.3424,0.0,0.0,0.0,0.0,0.0,0.0,0.0,0.0,0.0,0.0,0.0,0.0,1.9895,1.9895,1.9895,1.9895,1.9895,1.9895,1.8458,1.5609,1.5609,1.5609,1.5598,1.5164,1.4955,1.4933,1.4487,1.4299,1.4299,1.4299,1.4299,1.4299,1.4299,1.4664,1.5194,1.5506,1.5048,1.4299,1.4299,1.5439,1.6894,1.6894,1.572,1.4299,1.4299,1.5516,1.69,1.6903,1.6905,1.6495,1.4742,1.4296,1.4299,1.4299,1.4299,1.4299,1.4299,1.4294,1.4306,1.4306,1.4304,1.4261,1.4109,1.3712,1.3405,1.3403,1.3403,1.3403,1.3403,1.3403,1.3403,1.3403,1.3403,1.3403,1.3403,1.3403,1.3403,1.3403,1.3403,1.3403,1.3403,1.3403,1.3403,1.3403,1.3403,1.3403,1.3403,1.3403,1.3403,1.3403,1.3403,1.3403,1.1602,1.1602,1.1602,1.1602,1.1602,1.1626,1.1755,1.1786,1.1893,1.2196,1.2372,1.2522,1.2665,1.3047,1.3397,1.3545,1.3575,1.3593,1.3593,0.0,0.0,0.0,0.0,0.0,0.0,0.0,0.0,0.0,0.0,0.0,0.0,0.0,0.0,1.9895,1.9895,1.9895,1.9895,1.9895,1.9765,1.9504,1.9504,1.9504,1.9438,1.769,1.6901,1.6792,1.5065,1.4299,1.4299,1.4299,1.4299,1.4299,1.4299,1.5712,1.7883,1.9063,1.7288,1.4297,1.4297,1.8827,2.4602,2.4602,1.9926,1.4297,1.4297,1.9119,2.4601,2.4601,2.4602,2.301,1.6098,1.43,1.4299,1.4299,1.4299,1.4299,1.4299,1.43,1.4302,1.4302,1.4297,1.4123,1.3562,1.3434,1.3405,1.3403,1.3403,1.3403,1.3403,1.3403,1.3403,1.3403,1.3403,1.3403,1.3403,1.3403,1.3403,1.3403,1.3403,1.3403,1.3403,1.3403,1.3403,1.3403,1.3403,1.3403,1.3403,1.3403,1.3403,1.3403,1.3403,1.3403,1.1602,1.1602,1.1622,1.1701,1.1721,1.1741,1.1789,1.2028,1.2268,1.24,1.2626,1.2854,1.2986,1.322,1.3417,1.3468,1.3474,1.3474,0.0,0.0,0.0,0.0,0.0,0.0,0.0,0.0,0.0,0.0,0.0,0.0,0.0,0.0,0.0,2.331,2.331,2.331,2.331,2.331,2.331,2.33,2.1002,1.9895,1.9884,1.9155,1.8839,1.8796,1.8086,1.7778,1.769,1.6525,1.6042,1.595,1.508,1.6558,1.9334,2.0571,2.1101,2.1199,2.1199,2.3054,2.5399,2.5399,2.3497,2.1199,2.1199,2.3173,2.5397,2.5399,2.5392,2.3682,1.6234,1.4304,1.4303,1.4303,1.4303,1.4303,1.4297,1.4303,1.4188,1.3813,1.3746,1.367,1.3443,1.3401,1.3399,1.3404,1.3401,1.3403,1.3403,1.3403,1.3403,1.3403,1.3403,1.3403,1.3403,1.3403,1.3403,1.3403,1.3403,1.3403,1.3403,1.3403,1.3403,1.3403,1.3403,1.3403,1.3403,1.3403,1.3403,1.3403,1.3403,1.3403,1.1602,1.1626,1.169,1.1782,1.1911,1.2021,1.2021,1.2268,1.2542,1.2694,1.2942,1.3152,1.3248,1.337,0.0,0.0,1.3444,0.0,0.0,0.0,0.0,0.0,0.0,0.0,0.0,0.0,0.0,0.0,0.0,0.0,0.0,0.0,0.0,0.0,2.5401,2.5401,2.5401,2.5401,2.5401,2.5369,2.2837,2.164,2.1618,2.1034,2.0774,2.0753,2.0156,1.9895,1.9808,1.8645,1.8165,1.8078,1.7112,1.8471,2.1056,2.1733,2.3432,2.5401,2.5401,2.5401,2.5401,2.5401,2.5791,2.628,2.628,2.5868,2.5399,2.54,2.5404,2.4225,1.9127,1.7797,1.7805,1.7797,1.7808,1.7804,1.7804,1.8262,1.8288,1.6943,1.6678,1.5979,1.3779,1.5231,1.5945,1.3726,1.3401,1.3401,1.3397,1.3397,1.3397,1.3408,1.3401,1.3404,1.3404,1.3404,1.3407,1.3397,1.3403,1.3403,1.3403,1.3403,1.3403,1.3403,1.3403,1.3403,1.3403,1.3949,1.3945,1.3414,1.3959,1.3928,1.1602,1.1694,1.1802,1.1793,1.215,1.2501,1.2498,1.2508,1.2647,1.3115,1.3305,1.3403,1.3403,1.3515,0.0,0.0,0.0,0.0,0.0,0.0,0.0,0.0,0.0,0.0,0.0,0.0,0.0,0.0,0.0,0.0,0.0,0.0,0.0,0.0,2.5401,2.5401,2.5401,2.5401,2.5401,2.5401,2.5401,2.5401,2.5337,2.3536,2.2729,2.2632,2.0774,1.996,1.9993,2.0366,2.0518,2.0508,2.0508,2.1663,2.3244,2.2793,2.3818,2.5416,2.5405,2.5416,2.5427,2.5427,2.6688,2.8191,2.818,2.6891,2.5416,2.5405,2.5405,2.5427,2.5427,2.5434,2.5434,2.543,2.5429,2.5434,2.5429,2.6875,2.7315,2.4399,2.3819,2.1637,1.4693,1.9226,2.1459,1.4542,1.3446,1.3401,1.34,1.3463,1.35,1.3502,1.3495,1.3503,1.35,1.3446,1.3408,1.3448,1.3445,1.3417,1.3403,1.3403,1.3403,1.3403,1.3403,1.3414,1.3428,1.5162,1.5121,1.3497,1.5224,1.509,1.1602,1.1694,1.1829,1.1984,1.226,1.2556,1.2792,1.2921,1.3064,1.3292,1.3447,1.3511,1.3417,1.3515,0.0,0.0,0.0,0.0,0.0,0.0,0.0,0.0,0.0,0.0,0.0,0.0,0.0,0.0,0.0,0.0,0.0,0.0,0.0,0.0,2.5401,2.5401,2.5401,2.5401,2.5401,2.5401,2.5401,2.5401,2.538,2.4834,2.478,2.5068,2.45,2.4253,2.4168,2.2955,2.189,2.1027,2.1361,2.2439,2.3813,2.4016,2.5181,2.6632,2.645,2.6828,2.7367,2.7367,2.7759,2.8071,2.7422,2.7293,2.7087,2.5771,2.6353,2.7367,2.736,2.7374,2.7377,2.7369,2.7369,2.7366,2.7378,2.7135,2.6679,2.5801,2.5625,2.4577,2.1283,2.2433,2.3102,2.1023,1.6537,1.3408,1.3404,1.7681,2.0721,2.0719,2.072,2.0721,2.0721,1.6218,1.445,1.6901,1.6307,1.5118,1.3469,1.3403,1.3403,1.3403,1.3403,1.4,1.5234,1.5751,1.6357,1.7074,1.7596,1.689,1.166,1.18,1.1972,1.2201,1.248,1.2786,1.3084,1.322,1.3319,1.3447,1.3498,1.3511,1.3478,1.3498,0.0,0.0,0.0,0.0,0.0,0.0,0.0,0.0,0.0,0.0,0.0,0.0,0.0,0.0,0.0,0.0,0.0,0.0,0.0,0.0,2.5401,2.5401,2.5401,2.5583,2.569,2.569,2.569,2.5785,2.5945,2.5572,2.5668,2.6114,2.6305,2.6475,2.655,2.5237,2.4295,2.3727,2.4006,2.4638,2.5451,2.5919,2.673,2.7571,2.741,2.7735,2.8201,2.8201,2.8201,2.8092,2.7529,2.7756,2.7963,2.6827,2.7323,2.8198,2.8193,2.8203,2.8193,2.8198,2.8205,2.8192,2.8199,2.7252,2.6396,2.64,2.64,2.6062,2.5002,2.4834,2.4602,2.3899,2.0221,1.753,1.7528,2.1793,2.4827,2.4836,2.4828,2.4546,2.3867,1.9947,1.8724,2.1526,1.9095,1.7156,1.6217,1.5715,1.5471,1.5471,1.5471,1.5985,1.7024,1.773,1.825,1.8626,1.9308,1.8698,1.1762,1.1954,1.2163,1.2427,1.2765,1.3098,1.3336,1.341,1.3447,1.3559,1.3484,1.3447,1.3566,1.362,0.0,0.0,0.0,0.0,0.0,0.0,0.0,0.0,0.0,0.0,0.0,0.0,0.0,0.0,0.0,0.0,0.0,0.0,0.0,0.0,2.5508,2.5508,2.5455,2.5922,2.6167,0.0,2.6167,2.639,2.6774,2.5871,2.5743,2.6252,2.6677,2.7135,2.7527,2.7061,2.7146,2.7558,2.7558,2.7558,2.7611,2.8044,2.8189,2.8189,2.8189,2.8189,2.8189,2.8189,2.8189,2.8189,2.8189,2.8189,2.8189,2.8189,2.8189,2.8189,2.8189,2.8189,2.82,2.8194,2.8194,2.8169,2.8061,2.7176,2.6393,2.64,2.6407,2.6404,2.6404,2.6394,2.5863,2.4274,2.4041,2.4035,2.4045,2.5411,2.6397,2.6397,2.6407,2.5763,2.4161,2.4041,2.4706,2.6302,2.1939,1.9724,2.0668,1.946,1.8708,1.8606,1.8606,1.8687,1.884,2.0423,2.0464,1.9115,2.0707,2.0494,1.1762,1.1954,1.2163,1.2427,1.283,1.3193,1.3356,1.3481,1.3542,1.3454,1.3498,1.3532,1.3454,1.4621,0.0,0.0,0.0,0.0,0.0,0.0,0.0,0.0,0.0,0.0,0.0,0.0,0.0,0.0,0.0,0.0,0.0,0.0,0.0,2.5965,2.6305,2.6316,2.5954,2.6411,2.6645,0.0,2.6645,2.6698,2.6785,2.621,2.6401,2.7199,2.7304,2.7622,2.8013,2.7537,2.7632,2.8055,2.8055,2.8055,2.8065,2.816,2.8189,2.8189,2.8189,2.8189,2.8189,2.8189,2.8189,2.8189,2.8189,2.8189,2.8189,2.8189,2.8189,2.8189,2.8189,2.8189,2.8202,2.8196,2.8208,2.7935,2.6985,2.658,2.6393,2.64,2.64,2.64,2.64,2.64,2.6275,2.5903,2.5829,2.5839,2.5841,2.6175,2.6404,2.6397,2.6404,2.6248,2.5868,2.5848,2.5999,2.6377,2.5336,2.4228,2.3114,2.1104,1.957,1.8626,1.8606,1.9267,2.0636,2.102,2.1717,2.2695,2.3067,2.2301,1.1884,1.2018,1.2197,1.2629,1.3023,1.3332,1.3478,1.3502,1.3498,1.3502,1.3552,1.3831,1.46,0.0,0.0,0.0,0.0,0.0,0.0,0.0,0.0,0.0,0.0,0.0,0.0,0.0,0.0,0.0,0.0,0.0,0.0,2.6806,2.6688,2.6443,2.6666,2.6677,2.6443,2.6902,2.7146,2.7146,2.7146,2.7146,2.7124,2.6881,2.704,2.7506,2.7738,2.797,2.8181,2.7939,2.7981,2.8189,2.8189,2.8189,2.8189,2.8189,2.8189,2.8189,2.8189,2.8189,2.8189,2.8189,2.8189,2.8189,2.8189,2.8189,2.8189,2.8189,2.8189,2.8189,2.8189,2.819,2.8194,2.8195,2.8207,2.7869,2.6662,2.6402,2.6397,2.6393,2.6396,2.6396,2.6396,2.6403,2.641,2.6397,2.6397,2.6407,2.6397,2.6407,2.6393,2.6396,2.6403,2.6407,2.6407,2.6407,2.64,2.6397,2.6407,2.598,2.5087,2.3503,2.2255,2.1445,2.1616,2.216,2.3075,2.2875,2.3257,2.4132,2.389,2.3307,1.2007,1.2173,1.2383,1.2897,1.322,1.3444,1.3572,1.3511,1.3468,1.3579,1.3575,1.4094,1.5839,0.0,0.0,0.0,0.0,0.0,0.0,0.0,0.0,0.0,0.0,0.0,0.0,0.0,0.0,0.0,0.0,0.0,2.704,2.7037,2.7008,2.6923,2.7008,2.7008,2.6923,2.7389,2.7611,2.7611,2.7611,2.7611,2.7611,2.7611,2.7611,2.7632,2.8034,2.8189,2.8189,2.8189,2.8189,2.8189,2.8189,2.8189,2.8189,2.8189,2.8189,2.8189,2.8189,2.8189,2.8189,2.8189,2.8189,2.8189,2.8189,2.8189,2.8189,2.8189,2.8189,2.82,2.8199,2.8205,2.8148,2.7946,2.789,2.7612,2.6619,2.6404,2.6396,2.6396,2.6396,2.6396,2.6396,2.6396,2.6396,2.6396,2.6396,2.6396,2.6396,2.6396,2.6396,2.6396,2.6396,2.6396,2.6396,2.6396,2.6396,2.6396,2.6407,2.6404,2.6404,2.5699,2.514,2.4731,2.497,2.51,2.51,2.4771,2.4602,2.4592,2.4212,2.398,1.2007,1.2479,1.2928,1.3122,1.3295,1.3444,1.3572,1.3593,1.3586,1.3606,1.3515,1.3963,0.0,0.0,0.0,0.0,0.0,0.0,0.0,0.0,0.0,0.0,0.0,0.0,0.0,0.0,0.0,0.0,0.0,0.0,2.7992,2.7999,2.7833,2.741,2.7802,2.7823,2.7413,2.7875,2.8118,2.8118,2.8118,2.8118,2.8118,2.8118,2.8118,2.8118,2.8168,2.8189,2.8189,2.8189,2.8189,2.8189,2.8189,2.8189,2.8189,2.8189,2.8189,2.8189,2.8189,2.8189,2.8189,2.8189,2.8189,2.8189,2.8189,2.8189,2.8189,2.8189,2.8189,2.8202,2.8203,2.8205,2.7946,2.6889,2.6639,2.6599,2.6436,2.6404,2.6396,2.6396,2.6396,2.6396,2.6396,2.6396,2.6396,2.6396,2.6396,2.6396,2.6396,2.6396,2.6396,2.6396,2.6396,2.6396,2.6396,2.6396,2.6396,2.6396,2.64,2.6393,2.6404,2.6294,2.604,2.5634,2.5279,2.51,2.51,2.505,2.502,2.502,2.496,2.4741,1.2007,1.254,1.3006,1.3067,1.3248,1.3454,1.3663,1.3599,1.3818,1.4971,1.5031,1.5388,0.0,0.0,0.0,0.0,0.0,0.0,0.0,0.0,0.0,0.0,0.0,0.0,0.0,0.0,0.0,0.0,0.0,2.7981,2.8189,2.8189,2.8118,2.7897,2.8097,2.8108,2.7897,2.8108,2.8189,2.8189,2.8189,2.8189,2.8189,2.8189,2.8189,2.8189,2.8189,2.8189,2.8189,2.8189,2.8189,2.8189,2.8189,2.8189,2.8189,2.8189,2.8189,2.8189,2.8189,2.8189,2.8189,2.8189,2.8189,2.8189,2.8189,2.8189,2.8189,2.8189,2.82,2.8199,2.8205,2.7698,2.7063,2.6529,2.6397,2.6401,2.6401,2.6397,2.6396,2.6396,2.6396,2.6396,2.6396,2.6396,2.6396,2.6396,2.6396,2.6396,2.6396,2.6396,2.6396,2.6396,2.6396,2.6396,2.6396,2.6396,2.6396,2.6396,2.6396,2.64,2.6393,2.64,2.6317,2.6139,2.5931,2.5835,2.5835,2.5607,2.5485,2.5485,2.5219,2.501,1.2122,1.2591,1.3009,1.3033,1.3227,1.3579,1.4263,1.3884,1.4106,0.0,1.6861,1.7229,0.0,0.0,0.0,0.0,0.0,0.0,0.0,0.0,0.0,0.0,0.0,0.0,0.0,0.0,0.0,0.0,0.0,2.8189,2.8189,2.8189,2.8189,2.8189,2.8189,2.8189,2.8189,2.8189,2.8189,2.8189,2.8189,2.8189,2.8189,2.8189,2.8189,2.8189,2.8189,2.8189,2.8189,2.8189,2.8189,2.8189,2.8189,2.8189,2.8189,2.8189,2.8189,2.8189,2.8189,2.8189,2.8189,2.8189,2.8189,2.8189,2.8189,2.8202,2.82,2.82,2.82,2.8139,2.7824,2.7077,2.6399,2.6403,2.6404,2.6396,2.6396,2.6396,2.6396,2.6396,2.6396,2.6396,2.6396,2.6396,2.6396,2.6396,2.6396,2.6396,2.6396,2.6396,2.6396,2.6396,2.6396,2.6396,2.6396,2.6396,2.6396,2.6396,2.6396,2.6396,2.6396,2.6396,2.6396,2.6396,2.6396,2.6396,2.6396,2.6099,2.5951,2.5941,2.5584,2.5378,1.2409,1.2728,1.303,1.3156,1.3302,1.3874,1.5667,1.4687,1.4403,1.7946,1.8572,1.9125,0.0,0.0,0.0,0.0,0.0,0.0,0.0,0.0,0.0,0.0,0.0,0.0,0.0,0.0,0.0,0.0,0.0,2.8189,2.8189,2.8189,2.8189,2.8189,2.8189,2.8189,2.8189,2.8189,2.8189,2.8189,2.8189,2.8189,2.8189,2.8189,2.8189,2.8189,2.8189,2.8189,2.8189,2.8189,2.8189,2.8189,2.8189,2.8189,2.8189,2.8189,2.8189,2.8189,2.8189,2.8189,2.8189,2.8189,2.8189,2.8189,2.8189,2.8207,2.8202,2.8202,2.8198,2.7941,2.679,2.6449,2.641,2.6397,2.64,2.6396,2.6396,2.6396,2.6396,2.6396,2.6396,2.6396,2.6396,2.6396,2.6396,2.6396,2.6396,2.6396,2.6396,2.6396,2.6396,2.6396,2.6396,2.6396,2.6396,2.6396,2.6396,2.6396,2.6396,2.6396,2.6396,2.6396,2.6396,2.6396,2.6396,2.6396,2.6396,2.6376,2.6366,2.6366,2.6337,2.6129,1.2348,1.2677,1.3016,1.3064,1.4074,1.497,1.4608,1.5679,1.7126,1.8508,1.9823,2.1383,0.0,0.0,0.0,0.0,0.0,0.0,0.0,0.0,0.0,0.0,0.0,0.0,0.0,0.0,0.0,0.0,0.0,0.0,2.8189,2.8189,2.8189,2.8189,2.8189,2.8189,2.8189,2.8189,2.8189,2.8189,2.8189,2.8189,2.8189,2.8189,2.8189,2.8189,2.8189,2.8189,2.8189,2.8189,2.8189,2.8189,2.8189,2.8189,2.8189,2.8189,2.8189,2.8189,2.8189,2.8189,2.8189,2.8189,2.8189,2.8204,2.8201,2.8194,2.8041,2.7257,2.7045,2.6961,2.6512,2.6404,2.6397,2.6403,2.6396,2.6396,2.6396,2.6396,2.6396,2.6396,2.6396,2.6396,2.6396,2.6396,2.6396,2.6396,2.6396,2.6396,2.6396,2.6396,2.6396,2.6396,2.6396,2.6396,2.6396,2.6396,2.6396,2.6396,2.6396,2.6396,2.6396,2.6396,2.6396,2.6396,2.6396,2.6396,2.6396,2.6396,2.6396,2.6396,2.6396,2.6317,1.2345,1.2626,1.2915,1.2979,1.4045,1.5103,1.5238,1.6551,1.8255,2.0099,2.1238,2.2562,0.0,0.0,0.0,0.0,0.0,0.0,0.0,0.0,0.0,0.0,0.0,0.0,0.0,0.0,0.0,0.0,0.0,0.0,2.8189,2.8189,2.8189,2.8189,2.8189,2.8189,2.8189,2.8189,2.8189,2.8189,2.8189,2.8189,2.8189,2.8189,2.8189,2.8189,2.8189,2.8189,2.8189,2.8189,2.8189,2.8189,2.8189,2.8189,2.8189,2.8189,2.8189,2.8189,2.8189,2.8189,2.8189,2.8189,2.8199,2.8196,2.8198,2.8197,2.8027,2.7225,2.6709,2.639,2.639,2.6401,2.6396,2.6396,2.6396,2.6396,2.6396,2.6396,2.6396,2.6396,2.6396,2.6396,2.6396,2.6396,2.6396,2.6396,2.6396,2.6396,2.6396,2.6396,2.6396,2.6396,2.6396,2.6396,2.6396,2.6396,2.6396,2.6396,2.6396,2.6396,2.6396,2.6396,2.6396,2.6396,2.6396,2.6396,2.6396,2.6396,2.6396,2.6396,2.6396,2.6343,0.0,0.0,0.0,1.2952,1.3142,1.4199,1.7724,1.73,1.7617,2.2694,2.2824,2.2652,2.4739,0.0,0.0,0.0,0.0,0.0,0.0,0.0,0.0,0.0,0.0,0.0,0.0,0.0,0.0,0.0,0.0,2.8189,2.8189,2.8189,2.8189,2.8189,2.8189,2.8189,2.8189,2.8189,2.8189,2.8189,2.8189,2.8189,2.8189,2.8189,2.8189,2.8189,2.8189,2.8189,2.8189,2.8189,2.8189,2.8189,2.8189,2.8189,2.8189,2.8189,2.8189,2.8189,2.8189,2.8189,2.8186,2.8186,2.818,2.8161,2.8172,2.8177,2.8177,2.8153,2.7303,2.6396,2.6396,2.6396,2.6396,2.6396,2.6396,2.6396,2.6396,2.6396,2.6396,2.6396,2.6396,2.6396,2.6396,2.6396,2.6396,2.6396,2.6396,2.6396,2.6396,2.6396,2.6396,2.6396,2.6396,2.6396,2.6396,2.6396,2.6396,2.6396,2.6396,2.6396,2.6396,2.6396,2.6396,2.6396,2.6396,2.6396,2.6396,2.6396,2.6396,2.6396,2.6396,2.6232,1.2488,0.0,0.0,0.0,0.0,0.0,1.6468,1.8556,2.0686,2.2128,2.3644,2.4905,2.5505,2.5951,0.0,0.0,0.0,0.0,0.0,0.0,0.0,0.0,0.0,0.0,0.0,0.0,0.0,0.0,2.8058,2.8189,2.8189,2.8189,2.8189,2.8189,2.8189,2.8189,2.8189,2.8189,2.8189,2.8189,2.8189,2.8189,2.8189,2.8189,2.8189,2.8189,2.8189,2.8189,2.8189,2.8189,2.8189,2.8189,2.8189,2.8189,2.8189,2.8189,2.8189,2.8189,2.8189,2.8045,2.7837,2.7837,2.7712,2.7546,2.7541,2.7553,2.747,2.7025,2.6668,2.6396,2.6396,2.6396,2.6396,2.6396,2.6396,2.6396,2.6396,2.6396,2.6396,2.6396,2.6396,2.6396,2.6396,2.6396,2.6396,2.6396,2.6396,2.6396,2.6396,2.6396,2.6396,2.6396,2.6396,2.6396,2.6396,2.6396,2.6396,2.6396,2.6396,2.6396,2.6396,2.6396,2.6396,2.6396,2.6396,2.6396,2.6396,2.6396,2.6396,2.6396,2.6202,2.5841,1.2501,1.2559,1.2675,1.2938,0.0,0.0,1.6954,1.9166,2.1272,0.0,2.4607,2.5802,2.5802,2.6129,2.6396,0.0,0.0,0.0,0.0,0.0,0.0,0.0,0.0,0.0,0.0,0.0,0.0,2.7532,2.782,2.8058,2.8189,2.8189,2.8189,2.8189,2.8189,2.8189,2.8189,2.8189,2.8189,2.8189,2.8189,2.8189,2.8189,2.8189,2.8189,2.8189,2.8189,2.8189,2.8189,2.8189,2.8189,2.8189,2.8189,2.8189,2.8189,2.8189,2.8112,2.7994,2.7994,2.7794,2.7532,2.7532,2.7437,2.7304,2.7293,2.7118,2.686,2.6499,2.6396,2.6396,2.6396,2.6396,2.6396,2.6396,2.6396,2.6396,2.6396,2.6396,2.6396,2.6396,2.6396,2.6396,2.6396,2.6396,2.6396,2.6396,2.6396,2.6396,2.6396,2.6396,2.6396,2.6396,2.6396,2.6396,2.6396,2.6396,2.6396,2.6396,2.6396,2.6396,2.6396,2.6396,2.6396,2.6396,2.6396,2.6396,2.6396,2.6396,2.6343,2.6229,2.5925,2.5537,1.2501,1.2501,1.2576,0.0,1.3003,0.0,1.8269,1.9298,2.0454,0.0,2.5517,2.5872,2.5872,2.6159,2.6396,2.6396,0.0,0.0,0.0,0.0,0.0,0.0,0.0,0.0,0.0,2.7051,2.7235,2.7235,2.7519,2.7837,2.8136,2.8176,2.8189,2.8189,2.8189,2.8189,2.8189,2.8189,2.8189,2.8189,2.8189,2.8189,2.8189,2.8189,2.8189,2.8189,2.8189,2.8189,2.8189,2.8189,2.8189,2.8189,2.8189,2.8176,2.8138,2.8138,2.7941,2.7666,2.7666,2.7476,2.7245,2.7255,2.7243,2.7199,2.7199,2.6836,2.6396,2.6396,2.6396,2.6396,2.6396,2.6396,2.6396,2.6396,2.6396,2.6396,2.6396,2.6396,2.6396,2.6396,2.6396,2.6396,2.6396,2.6396,2.6396,2.6396,2.6396,2.6396,2.6396,2.6396,2.6396,2.6396,2.6396,2.6396,2.6396,2.6396,2.6396,2.6396,2.6396,2.6396,2.6396,2.6396,2.6396,2.6396,2.6396,2.6383,2.6366,2.6366,2.6205,2.5944,2.5608,2.5304,0.0,0.0,0.0,0.0,0.0,0.0,1.7862,1.9278,2.0797,0.0,2.5723,2.6277,2.6277,2.6347,2.6396,2.6396,2.6396,0.0,0.0,0.0,0.0,0.0,0.0,0.0,0.0,2.6724,2.6897,2.6897,2.7402,2.7733,2.7799,2.8058,2.8189,2.8189,2.8189,2.8189,2.8189,2.8189,2.8189,2.8189,2.8189,2.8189,2.8189,2.8189,2.8189,2.8189,2.8189,2.8189,2.8189,2.8189,2.8189,2.8189,2.8189,2.8031,2.781,2.781,2.7623,2.7379,2.7379,2.7171,2.6917,2.7021,2.683,2.6579,2.6579,2.6489,2.6396,2.6396,2.6396,2.6396,2.6396,2.6396,2.6396,2.6396,2.6396,2.6396,2.6396,2.6396,2.6396,2.6396,2.6396,2.6396,2.6396,2.6396,2.6396,2.6396,2.6396,2.6396,2.6396,2.6396,2.6396,2.6396,2.6396,2.6396,2.6396,2.6396,2.6396,2.6396,2.6396,2.6396,2.6396,2.6396,2.6396,2.6396,2.6396,2.6299,2.6078,2.6078,2.5911,2.5585,2.5314,2.501,0.0,0.0,0.0,1.4118,0.0,0.0,0.0,1.879,2.0696,2.3524,2.5333,2.6396,2.6396,2.6396,2.6396,2.6396,2.6396,2.6396,0.0,0.0,0.0,0.0,0.0,0.0,0.0,2.652,2.6657,2.6794,2.7074,2.7311,2.7489,2.7794,2.7954,2.7954,2.8112,2.8189,2.8189,2.8189,2.8189,2.8189,2.8189,2.8189,2.8189,2.8189,2.8189,2.8189,2.8189,2.8109,2.7954,2.7954,2.7874,2.7764,2.7911,2.7767,2.7502,2.7502,2.7305,2.7051,2.7051,2.6854,2.66,2.6683,2.657,2.6396,2.6396,2.6396,2.6396,2.6396,2.6396,2.6396,2.6396,2.6396,2.6396,2.6396,2.6396,2.6396,2.6396,2.6396,2.6396,2.6396,2.6396,2.6396,2.6396,2.6396,2.6396,2.6396,2.6396,2.6396,2.6396,2.6396,2.6396,2.6396,2.6396,2.6396,2.6396,2.6396,2.6396,2.6396,2.6396,2.6396,2.6396,2.6396,2.6396,2.6396,2.6396,2.6239,2.5897,2.5789,2.5604,2.53,2.5153,2.4917,0.0,0.0,0.0,0.0,0.0,1.5028,0.0,0.0,0.0,2.319,2.5102,2.6396,2.6396,0.0,0.0,0.0,0.0,0.0,0.0,0.0,0.0,0.0,0.0,0.0,0.0,2.6396,2.6493,2.671,2.6767,2.6911,2.7181,2.7465,2.7615,2.7615,2.7951,2.8098,2.8098,2.8162,2.8189,2.8189,2.8189,2.8189,2.8189,2.8189,2.8189,2.82,2.8125,2.7954,2.7696,2.7642,2.7462,2.7235,2.7505,2.7452,2.7195,2.7195,2.6998,2.6714,2.6714,2.6587,2.6396,2.6396,2.6396,2.6396,2.6396,2.6396,2.6396,2.6396,2.6396,2.6396,2.6396,2.6396,2.6396,2.6396,2.6396,2.6396,2.6396,2.6396,2.6396,2.6396,2.6396,2.6396,2.6396,2.6396,2.6396,2.6396,2.6396,2.6396,2.6396,2.6396,2.6396,2.6396,2.6396,2.6396,2.6396,2.6396,2.6396,2.6396,2.6396,2.6396,2.6396,2.6396,2.6396,2.6396,2.6396,2.6193,2.5807,2.5596,2.5371,2.5096,2.5033,2.4854,0.0,0.0,0.0,0.0,1.7965,0.0,0.0,0.0,2.326,2.5102,0.0,0.0,0.0,0.0,0.0,0.0,0.0,0.0,2.5678,2.6066,2.6396,0.0,0.0,0.0,0.0,0.0,2.641,2.644,2.667,2.682,2.6847,2.7168,2.7352,2.7352,2.7612,2.7759,2.7759,2.8045,2.8189,2.8189,2.8189,2.8189,2.8189,2.8189,2.8189,2.8176,2.789,2.7733,2.7682,2.7436,2.7145,2.6897,2.7222,2.7155,2.6857,2.6857,2.6684,2.645,2.645,2.6423,2.6396,2.6396,2.6396,2.6396,2.6396,2.6396,2.6396,2.6396,2.6396,2.6396,2.6396,2.6396,2.6396,2.6396,2.6396,2.6396,2.6396,2.6396,2.6396,2.6396,2.6396,2.6396,2.6396,2.6396,2.6396,2.6396,2.6396,2.6396,2.6396,2.6396,2.6396,2.6396,2.6396,2.6396,2.6396,2.6396,2.6396,2.6396,2.6396,2.6396,2.6396,2.6396,2.6396,2.6396,2.6396,2.6197,2.5809,2.5598,2.5371,2.5096,2.48,2.4648,0.0,0.0,0.0,0.0,0.0,0.0,2.1019,0.0,2.332,0.0,0.0,0.0,0.0,0.0,0.0,0.0,2.6226,0.0,0.0,0.0,2.6396,0.0,0.0,0.0,0.0,0.0,0.0,0.0,0.0,2.6573,2.6573,2.6854,2.7001,2.7001,2.7315,2.7462,2.7462,2.7617,2.767,2.767,2.767,2.767,2.767,2.767,2.767,2.767,2.7526,2.7358,2.7164,2.7054,2.6841,2.6587,2.6717,2.669,2.6573,2.6573,2.6503,2.6396,2.6396,2.6396,2.6396,2.6396,2.6396,2.6396,2.6396,2.6396,2.6396,2.6396,2.6396,2.6396,2.6396,2.6396,2.6396,2.6396,2.6396,2.6396,2.6396,2.6396,2.6396,2.6396,2.6396,2.6396,2.6396,2.6396,2.6396,2.6396,2.6396,2.6396,2.6396,2.6396,2.6396,2.6396,2.6396,2.6396,2.6396,2.6396,2.6396,2.6396,2.6396,2.6396,2.6396,2.6396,2.6247,2.5881,2.5992,2.5742,2.5095,2.5203,2.5104,2.4814,2.4662,2.4599,1.9624,0.0,0.0,0.0,0.0,0.0,0.0,0.0,0.0,0.0,0.0,0.0,0.0,0.0,0.0,0.0,0.0,2.6343,0.0,0.0,0.0,0.0,0.0,0.0,0.0,0.0,0.0,2.6396,2.6396,2.6396,2.6396,2.6577,2.6697,2.6697,2.6998,2.7168,2.7168,2.7248,2.7299,2.7299,2.7299,2.7299,2.7299,2.7299,2.7299,2.7299,2.7195,2.7028,2.6794,2.6714,2.6587,2.6396,2.6396,2.6396,2.6396,2.6396,2.6396,2.6396,2.6396,2.6396,2.6396,2.6396,2.6396,2.6396,2.6396,2.6396,2.6396,2.6396,2.6396,2.6396,2.6396,2.6396,2.6396,2.6396,2.6396,2.6396,2.6396,2.6396,2.6396,2.6396,2.6396,2.6396,2.6396,2.6396,2.6396,2.6396,2.6396,2.6396,2.6396,2.6396,2.6396,2.6396,2.6396,2.6396,2.6396,2.6396,2.6396,2.6396,2.6396,2.6396,2.6396,2.6247,2.595,2.5517,2.5587,2.5286,2.4601,2.4942,2.493,2.4599,2.4599,2.4599,0.0,0.0,0.0,2.1068,0.0,0.0,0.0,0.0,2.6287,0.0,0.0,0.0,0.0,0.0,0.0,0.0,0.0,0.0,0.0,0.0,0.0,0.0,0.0,0.0,0.0,0.0,0.0,2.6396,2.6396,2.6396,2.6396,2.641,2.641,2.641,2.667,2.682,2.682,2.7141,2.7299,2.7299,2.7299,2.7299,2.7299,2.7299,2.7299,2.7285,2.6961,2.6807,2.678,2.652,2.641,2.6396,2.6396,2.6396,2.6396,2.6396,2.6396,2.6396,2.6396,2.6396,2.6396,2.6396,2.6396,2.6396,2.6396,2.6396,2.6396,2.6396,2.6396,2.6396,2.6396,2.6396,2.6396,2.6396,2.6396,2.6396,2.6396,2.6396,2.6396,2.6396,2.6396,2.6396,2.6396,2.6396,2.6396,2.6396,2.6396,2.6396,2.6396,2.6396,2.6396,2.6396,2.6396,2.6396,2.6396,2.6396,2.6396,2.6396,2.6396,2.6396,2.6396,2.5835,2.5517,2.5507,2.5321,2.5008,2.4601,2.4942,2.493,2.4599,2.4599,2.4599,0.0,0.0,2.4276,2.4566,0.0,0.0,0.0,0.0,0.0,0.0,0.0,0.0,0.0,0.0,0.0,0.0,0.0,0.0,0.0,0.0,0.0,0.0,0.0,0.0,0.0,0.0,0.0,2.6396,2.6396,2.6396,0.0,2.6396,2.6396,2.6396,2.649,2.6533,2.6533,2.665,2.67,2.67,2.67,2.67,2.67,2.67,2.67,2.67,2.6573,2.6533,2.6533,2.6436,2.6396,2.6396,2.6396,2.6396,2.6396,2.6396,2.6396,2.6396,2.6396,2.6396,2.6396,2.6396,2.6396,2.6396,2.6396,2.6396,2.6396,2.6396,2.6396,2.6396,2.6396,2.6396,2.6396,2.6396,2.6396,2.6396,2.6396,2.6396,2.6396,2.6396,2.6396,2.6396,2.6396,2.6396,2.6396,2.6396,2.6396,2.6396,2.6396,2.6396,2.6396,2.6396,2.6396,2.6396,2.6396,2.6396,2.6396,2.6396,2.6396,2.6273,2.6004,2.582,2.5552,2.5234,2.5169,2.496,2.4603,2.4709,2.4702,2.4599,2.4599,2.4599,2.6396,2.6396,0.0,0.0,2.6396,0.0,2.6396,0.0,0.0,0.0,0.0,0.0,0.0,0.0,0.0,0.0,0.0,0.0,0.0,2.6396,0.0,0.0,0.0,0.0,0.0,0.0,2.6396,2.6396,2.6396,2.6396,0.0,0.0,2.6396,2.6396,2.6396,2.6396,2.6396,2.6396,2.6396,2.6396,2.6396,2.6396,2.6396,2.6396,2.6396,2.6396,2.6396,2.6396,2.6396,2.6396,2.6396,2.6396,2.6396,2.6396,2.6396,2.6396,2.6396,2.6396,2.6396,2.6396,2.6396,2.6396,2.6396,2.6396,2.6396,2.6396,2.6396,2.6396,2.6396,2.6396,2.6396,2.6396,2.6396,2.6396,2.6396,2.6396,2.6396,2.6396,2.6396,2.6396,2.6396,2.6396,2.6396,2.6396,2.6396,2.6396,2.6396,2.6396,2.6396,2.6396,2.6396,2.6396,2.6396,2.6396,2.6396,2.6396,2.6396,2.6396,2.6273,2.6064,2.5819,2.5635,2.5403,2.5109,2.497,2.4814,2.4599,2.4599,2.4599,2.4599,2.4599,2.4599]}]]